Time,TemperatureF,DewpointF,PressureIn,WindDirection,WindDirectionDegrees,WindSpeedMPH,WindSpeedGustMPH,Humidity,HourlyPrecipIn,Conditions,Clouds,dailyrainin,SoftwareType,DateUTC
2013-06-11 00:00:00,68.1,64.7,29.92,SW,234,6.0,9.0,89,0.00,,,0.00,VWS V14.01,2013-06-11 04:00:00,
2013-06-11 00:01:00,68.0,64.6,29.92,WSW,251,7.5,9.0,89,0.00,,,0.00,VWS V14.01,2013-06-11 04:01:00,
2013-06-11 00:02:00,68.0,64.6,29.92,SW,223,9.0,9.0,89,0.00,,,0.00,VWS V14.01,2013-06-11 04:02:00,
2013-06-11 00:03:00,68.0,64.6,29.92,WSW,253,6.0,9.0,89,0.00,,,0.00,VWS V14.01,2013-06-11 04:03:00,
2013-06-11 00:04:00,68.0,64.6,29.92,SW,223,7.5,10.5,89,0.00,,,0.00,VWS V14.01,2013-06-11 04:04:00,
2013-06-11 00:05:00,68.0,64.6,29.92,WSW,244,9.0,10.5,89,0.00,,,0.00,VWS V14.01,2013-06-11 04:05:00,
2013-06-11 00:06:00,68.0,64.6,29.92,WSW,249,7.5,10.5,89,0.00,,,0.00,VWS V14.01,2013-06-11 04:06:00,
2013-06-11 00:07:00,68.0,64.6,29.92,SW,234,10.5,10.5,89,0.00,,,0.00,VWS V14.01,2013-06-11 04:07:00,
2013-06-11 00:08:00,68.0,64.6,29.92,WSW,239,4.5,10.5,89,0.00,,,0.00,VWS V14.01,2013-06-11 04:08:00,
2013-06-11 00:09:00,68.0,64.6,29.92,WSW,250,7.5,15.0,89,0.00,,,0.00,VWS V14.01,2013-06-11 04:09:00,
2013-06-11 00:10:00,68.0,64.6,29.92,WSW,257,6.0,13.5,89,0.00,,,0.00,VWS V14.01,2013-06-11 04:10:00,
2013-06-11 00:11:00,68.0,64.6,29.92,WSW,255,6.0,10.5,89,0.00,,,0.00,VWS V14.01,2013-06-11 04:11:00,
2013-06-11 00:12:00,68.0,64.6,29.92,WSW,241,7.5,10.5,89,0.00,,,0.00,VWS V14.01,2013-06-11 04:12:00,
2013-06-11 00:13:00,68.0,64.6,29.92,WSW,246,4.5,9.0,89,0.00,,,0.00,VWS V14.01,2013-06-11 04:13:00,
2013-06-11 00:14:00,67.9,64.5,29.92,WSW,247,6.0,9.0,89,0.00,,,0.00,VWS V14.01,2013-06-11 04:14:00,
2013-06-11 00:15:00,67.9,64.5,29.92,WSW,253,4.5,9.0,89,0.00,,,0.00,VWS V14.01,2013-06-11 04:15:00,
2013-06-11 00:16:00,67.9,64.5,29.92,WSW,252,4.5,7.5,89,0.00,,,0.00,VWS V14.01,2013-06-11 04:16:00,
2013-06-11 00:17:00,67.9,64.5,29.92,WSW,249,4.5,9.0,89,0.00,,,0.00,VWS V14.01,2013-06-11 04:17:00,
2013-06-11 00:18:00,67.9,64.5,29.92,WSW,247,6.0,9.0,89,0.00,,,0.00,VWS V14.01,2013-06-11 04:18:00,
2013-06-11 00:19:00,67.8,64.4,29.92,WSW,248,6.0,9.0,89,0.00,,,0.00,VWS V14.01,2013-06-11 04:19:00,
2013-06-11 00:20:00,67.8,64.4,29.92,WSW,255,4.5,9.0,89,0.00,,,0.00,VWS V14.01,2013-06-11 04:20:00,
2013-06-11 00:21:00,67.8,64.4,29.92,WSW,251,7.5,7.5,89,0.00,,,0.00,VWS V14.01,2013-06-11 04:21:00,
2013-06-11 00:22:00,67.8,64.4,29.92,WSW,253,7.5,9.0,89,0.00,,,0.00,VWS V14.01,2013-06-11 04:22:00,
2013-06-11 00:23:00,67.8,64.4,29.92,WSW,248,6.0,9.0,89,0.00,,,0.00,VWS V14.01,2013-06-11 04:23:00,
2013-06-11 00:24:00,67.8,64.4,29.92,West,264,9.0,9.0,89,0.00,,,0.00,VWS V14.01,2013-06-11 04:24:00,
2013-06-11 00:25:00,67.8,64.4,29.92,WSW,246,6.0,9.0,89,0.00,,,0.00,VWS V14.01,2013-06-11 04:25:00,
2013-06-11 00:26:00,67.8,64.4,29.92,WSW,248,6.0,9.0,89,0.00,,,0.00,VWS V14.01,2013-06-11 04:26:00,
2013-06-11 00:27:00,67.8,64.4,29.92,SW,231,7.5,10.5,89,0.00,,,0.00,VWS V14.01,2013-06-11 04:27:00,
2013-06-11 00:28:00,67.8,64.4,29.93,WSW,250,9.0,10.5,89,0.00,,,0.00,VWS V14.01,2013-06-11 04:28:00,
2013-06-11 00:29:00,67.8,64.4,29.93,WSW,254,7.5,10.5,89,0.00,,,0.00,VWS V14.01,2013-06-11 04:29:00,
2013-06-11 00:30:00,67.8,64.4,29.93,WSW,248,4.5,10.5,89,0.00,,,0.00,VWS V14.01,2013-06-11 04:30:00,
2013-06-11 00:31:00,67.8,64.4,29.92,SW,220,6.0,9.0,89,0.00,,,0.00,VWS V14.01,2013-06-11 04:31:00,
2013-06-11 00:32:00,67.8,64.4,29.93,WSW,237,3.0,9.0,89,0.00,,,0.00,VWS V14.01,2013-06-11 04:32:00,
2013-06-11 00:33:00,67.7,64.3,29.92,WSW,252,4.5,7.5,89,0.00,,,0.00,VWS V14.01,2013-06-11 04:33:00,
2013-06-11 00:34:00,67.7,64.3,29.92,WSW,251,4.5,7.5,89,0.00,,,0.00,VWS V14.01,2013-06-11 04:34:00,
2013-06-11 00:35:00,67.7,64.3,29.93,WSW,239,4.5,7.5,89,0.00,,,0.00,VWS V14.01,2013-06-11 04:35:00,
2013-06-11 00:36:00,67.7,64.3,29.92,WSW,248,4.5,7.5,89,0.00,,,0.00,VWS V14.01,2013-06-11 04:36:00,
2013-06-11 00:37:00,67.6,64.2,29.92,West,264,6.0,7.5,89,0.00,,,0.00,VWS V14.01,2013-06-11 04:37:00,
2013-06-11 00:38:00,67.6,64.2,29.93,West,265,6.0,7.5,89,0.00,,,0.00,VWS V14.01,2013-06-11 04:38:00,
2013-06-11 00:39:00,67.6,64.2,29.92,West,261,7.5,7.5,89,0.00,,,0.00,VWS V14.01,2013-06-11 04:39:00,
2013-06-11 00:40:00,67.6,64.2,29.92,WSW,254,6.0,7.5,89,0.00,,,0.00,VWS V14.01,2013-06-11 04:40:00,
2013-06-11 00:41:00,67.5,64.2,29.92,West,262,4.5,6.0,89,0.00,,,0.00,VWS V14.01,2013-06-11 04:41:00,
2013-06-11 00:42:00,67.5,64.2,29.92,SSW,206,3.0,6.0,89,0.00,,,0.00,VWS V14.01,2013-06-11 04:42:00,
2013-06-11 00:43:00,67.5,64.2,29.93,West,267,6.0,7.5,89,0.00,,,0.00,VWS V14.01,2013-06-11 04:43:00,
2013-06-11 00:44:00,67.5,64.2,29.93,WSW,254,4.5,7.5,89,0.00,,,0.00,VWS V14.01,2013-06-11 04:44:00,
2013-06-11 00:45:00,67.5,64.2,29.92,WSW,241,1.5,6.0,89,0.00,,,0.00,VWS V14.01,2013-06-11 04:45:00,
2013-06-11 00:46:00,67.5,64.2,29.93,WSW,246,6.0,7.5,89,0.00,,,0.00,VWS V14.01,2013-06-11 04:46:00,
2013-06-11 00:47:00,67.5,64.2,29.92,WSW,255,6.0,7.5,89,0.00,,,0.00,VWS V14.01,2013-06-11 04:47:00,
2013-06-11 00:48:00,67.4,64.1,29.92,West,267,4.5,7.5,89,0.00,,,0.00,VWS V14.01,2013-06-11 04:48:00,
2013-06-11 00:49:00,67.4,64.1,29.93,WSW,257,4.5,6.0,89,0.00,,,0.00,VWS V14.01,2013-06-11 04:49:00,
2013-06-11 00:50:00,67.4,64.1,29.93,WSW,244,3.0,6.0,89,0.00,,,0.00,VWS V14.01,2013-06-11 04:50:00,
2013-06-11 00:51:00,67.4,64.1,29.92,WSW,254,3.0,6.0,89,0.00,,,0.00,VWS V14.01,2013-06-11 04:51:00,
2013-06-11 00:52:00,67.3,64.0,29.92,SW,221,4.5,6.0,89,0.00,,,0.00,VWS V14.01,2013-06-11 04:52:00,
2013-06-11 00:53:00,67.3,64.3,29.93,WSW,255,6.0,6.0,90,0.00,,,0.00,VWS V14.01,2013-06-11 04:53:00,
2013-06-11 00:54:00,67.3,64.3,29.92,WSW,247,7.5,9.0,90,0.00,,,0.00,VWS V14.01,2013-06-11 04:54:00,
2013-06-11 00:55:00,67.3,64.3,29.92,WSW,241,4.5,9.0,90,0.00,,,0.00,VWS V14.01,2013-06-11 04:55:00,
2013-06-11 00:56:00,67.3,64.3,29.93,SW,228,6.0,7.5,90,0.00,,,0.00,VWS V14.01,2013-06-11 04:56:00,
2013-06-11 00:57:00,67.3,64.3,29.93,SW,220,4.5,7.5,90,0.00,,,0.00,VWS V14.01,2013-06-11 04:57:00,
2013-06-11 00:58:00,67.2,64.2,29.92,SW,224,4.5,7.5,90,0.00,,,0.00,VWS V14.01,2013-06-11 04:58:00,
2013-06-11 00:59:00,67.2,64.2,29.92,WSW,246,4.5,7.5,90,0.00,,,0.00,VWS V14.01,2013-06-11 04:59:00,
2013-06-11 01:00:00,67.2,64.2,29.92,WSW,253,6.0,6.0,90,0.00,,,0.00,VWS V14.01,2013-06-11 05:00:00,
2013-06-11 01:01:00,67.2,64.2,29.92,SW,231,4.5,7.5,90,0.00,,,0.00,VWS V14.01,2013-06-11 05:01:00,
2013-06-11 01:02:00,67.1,64.1,29.92,SW,229,4.5,7.5,90,0.00,,,0.00,VWS V14.01,2013-06-11 05:02:00,
2013-06-11 01:03:00,67.1,64.1,29.92,SW,230,1.5,6.0,90,0.00,,,0.00,VWS V14.01,2013-06-11 05:03:00,
2013-06-11 01:04:00,67.1,64.1,29.92,SW,231,4.5,6.0,90,0.00,,,0.00,VWS V14.01,2013-06-11 05:04:00,
2013-06-11 01:05:00,67.1,64.1,29.92,WSW,254,4.5,6.0,90,0.00,,,0.00,VWS V14.01,2013-06-11 05:05:00,
2013-06-11 01:06:00,67.1,64.1,29.92,WSW,237,1.5,6.0,90,0.00,,,0.00,VWS V14.01,2013-06-11 05:06:00,
2013-06-11 01:07:00,67.0,64.0,29.92,West,261,4.5,6.0,90,0.00,,,0.00,VWS V14.01,2013-06-11 05:07:00,
2013-06-11 01:08:00,67.0,64.0,29.92,WSW,253,4.5,6.0,90,0.00,,,0.00,VWS V14.01,2013-06-11 05:08:00,
2013-06-11 01:09:00,67.0,64.0,29.93,WSW,240,6.0,6.0,90,0.00,,,0.00,VWS V14.01,2013-06-11 05:09:00,
2013-06-11 01:10:00,67.0,64.0,29.93,West,267,6.0,10.5,90,0.00,,,0.00,VWS V14.01,2013-06-11 05:10:00,
2013-06-11 01:11:00,67.0,64.0,29.93,West,267,6.0,10.5,90,0.00,,,0.00,VWS V14.01,2013-06-11 05:11:00,
2013-06-11 01:12:00,67.0,64.0,29.93,West,260,6.0,9.0,90,0.00,,,0.00,VWS V14.01,2013-06-11 05:12:00,
2013-06-11 01:13:00,67.0,64.0,29.93,WSW,247,3.0,6.0,90,0.00,,,0.00,VWS V14.01,2013-06-11 05:13:00,
2013-06-11 01:14:00,66.9,63.9,29.93,WSW,240,3.0,6.0,90,0.00,,,0.00,VWS V14.01,2013-06-11 05:14:00,
2013-06-11 01:15:00,66.9,63.9,29.93,WSW,247,4.5,4.5,90,0.00,,,0.00,VWS V14.01,2013-06-11 05:15:00,
2013-06-11 01:16:00,66.9,63.9,29.93,WSW,247,4.5,4.5,90,0.00,,,0.00,VWS V14.01,2013-06-11 05:16:00,
2013-06-11 01:17:00,66.9,63.9,29.93,SW,228,4.5,4.5,90,0.00,,,0.00,VWS V14.01,2013-06-11 05:17:00,
2013-06-11 01:18:00,66.8,63.8,29.93,SW,229,3.0,4.5,90,0.00,,,0.00,VWS V14.01,2013-06-11 05:18:00,
2013-06-11 01:19:00,66.8,63.8,29.93,SW,228,1.5,3.0,90,0.00,,,0.00,VWS V14.01,2013-06-11 05:19:00,
2013-06-11 01:20:00,66.7,63.7,29.93,SW,229,1.5,3.0,90,0.00,,,0.00,VWS V14.01,2013-06-11 05:20:00,
2013-06-11 01:21:00,66.7,63.7,29.93,SW,229,1.5,3.0,90,0.00,,,0.00,VWS V14.01,2013-06-11 05:21:00,
2013-06-11 01:22:00,66.7,63.7,29.93,SW,229,1.5,3.0,90,0.00,,,0.00,VWS V14.01,2013-06-11 05:22:00,
2013-06-11 01:23:00,66.6,63.6,29.93,SW,229,1.5,1.5,90,0.00,,,0.00,VWS V14.01,2013-06-11 05:23:00,
2013-06-11 01:24:00,66.6,63.9,29.93,SW,230,3.0,6.0,91,0.00,,,0.00,VWS V14.01,2013-06-11 05:24:00,
2013-06-11 01:25:00,66.5,63.8,29.93,SW,235,1.5,4.5,91,0.00,,,0.00,VWS V14.01,2013-06-11 05:25:00,
2013-06-11 01:26:00,66.5,63.8,29.93,SW,236,1.5,4.5,91,0.00,,,0.00,VWS V14.01,2013-06-11 05:26:00,
2013-06-11 01:27:00,66.5,63.8,29.93,WSW,248,4.5,4.5,91,0.00,,,0.00,VWS V14.01,2013-06-11 05:27:00,
2013-06-11 01:28:00,66.5,63.8,29.93,WSW,241,1.5,4.5,91,0.00,,,0.00,VWS V14.01,2013-06-11 05:28:00,
2013-06-11 01:29:00,66.5,63.8,29.93,WSW,241,3.0,4.5,91,0.00,,,0.00,VWS V14.01,2013-06-11 05:29:00,
2013-06-11 01:30:00,66.4,63.7,29.93,WSW,237,3.0,3.0,91,0.00,,,0.00,VWS V14.01,2013-06-11 05:30:00,
2013-06-11 01:31:00,66.4,63.7,29.93,WSW,237,3.0,3.0,91,0.00,,,0.00,VWS V14.01,2013-06-11 05:31:00,
2013-06-11 01:32:00,66.4,63.7,29.93,WSW,237,3.0,3.0,91,0.00,,,0.00,VWS V14.01,2013-06-11 05:32:00,
2013-06-11 01:33:00,66.4,63.7,29.93,WSW,248,1.5,3.0,91,0.00,,,0.00,VWS V14.01,2013-06-11 05:33:00,
2013-06-11 01:34:00,66.4,63.7,29.92,WSW,250,1.5,3.0,91,0.00,,,0.00,VWS V14.01,2013-06-11 05:34:00,
2013-06-11 01:35:00,66.3,63.6,29.93,WSW,250,1.5,3.0,91,0.00,,,0.00,VWS V14.01,2013-06-11 05:35:00,
2013-06-11 01:36:00,66.3,63.6,29.93,WSW,250,1.5,3.0,91,0.00,,,0.00,VWS V14.01,2013-06-11 05:36:00,
2013-06-11 01:37:00,66.3,63.6,29.93,WSW,254,1.5,1.5,91,0.00,,,0.00,VWS V14.01,2013-06-11 05:37:00,
2013-06-11 01:38:00,66.3,63.6,29.93,WSW,254,1.5,1.5,91,0.00,,,0.00,VWS V14.01,2013-06-11 05:38:00,
2013-06-11 01:39:00,66.3,63.6,29.93,WSW,254,1.5,1.5,91,0.00,,,0.00,VWS V14.01,2013-06-11 05:39:00,
2013-06-11 01:40:00,66.2,63.5,29.93,WSW,254,1.5,1.5,91,0.00,,,0.00,VWS V14.01,2013-06-11 05:40:00,
2013-06-11 01:41:00,66.2,63.5,29.93,WSW,254,1.5,1.5,91,0.00,,,0.00,VWS V14.01,2013-06-11 05:41:00,
2013-06-11 01:42:00,66.2,63.5,29.93,WSW,254,1.5,1.5,91,0.00,,,0.00,VWS V14.01,2013-06-11 05:42:00,
2013-06-11 01:43:00,66.1,63.4,29.93,WSW,254,1.5,1.5,91,0.00,,,0.00,VWS V14.01,2013-06-11 05:43:00,
2013-06-11 01:44:00,66.0,63.3,29.93,WSW,254,1.5,1.5,91,0.00,,,0.00,VWS V14.01,2013-06-11 05:44:00,
2013-06-11 01:45:00,65.9,63.2,29.93,WSW,254,1.5,1.5,91,0.00,,,0.00,VWS V14.01,2013-06-11 05:45:00,
2013-06-11 01:46:00,65.9,63.2,29.93,WSW,254,1.5,1.5,91,0.00,,,0.00,VWS V14.01,2013-06-11 05:46:00,
2013-06-11 01:47:00,65.8,63.1,29.93,WSW,254,1.5,1.5,91,0.00,,,0.00,VWS V14.01,2013-06-11 05:47:00,
2013-06-11 01:48:00,65.7,63.0,29.93,WSW,254,1.5,1.5,91,0.00,,,0.00,VWS V14.01,2013-06-11 05:48:00,
2013-06-11 01:49:00,65.6,62.9,29.93,WSW,254,1.5,1.5,91,0.00,,,0.00,VWS V14.01,2013-06-11 05:49:00,
2013-06-11 01:50:00,65.5,63.1,29.93,WSW,254,1.5,1.5,92,0.00,,,0.00,VWS V14.01,2013-06-11 05:50:00,
2013-06-11 01:51:00,65.5,63.1,29.93,WSW,254,1.5,1.5,92,0.00,,,0.00,VWS V14.01,2013-06-11 05:51:00,
2013-06-11 01:52:00,65.5,63.1,29.93,WSW,254,1.5,1.5,92,0.00,,,0.00,VWS V14.01,2013-06-11 05:52:00,
2013-06-11 01:53:00,65.4,63.0,29.93,WSW,254,1.5,1.5,92,0.00,,,0.00,VWS V14.01,2013-06-11 05:53:00,
2013-06-11 01:54:00,65.3,62.9,29.93,WSW,254,1.5,1.5,92,0.00,,,0.00,VWS V14.01,2013-06-11 05:54:00,
2013-06-11 01:55:00,65.2,62.8,29.93,WSW,254,1.5,1.5,92,0.00,,,0.00,VWS V14.01,2013-06-11 05:55:00,
2013-06-11 01:56:00,65.1,62.7,29.93,WSW,254,1.5,1.5,92,0.00,,,0.00,VWS V14.01,2013-06-11 05:56:00,
2013-06-11 01:57:00,65.1,62.7,29.93,WSW,254,1.5,1.5,92,0.00,,,0.00,VWS V14.01,2013-06-11 05:57:00,
2013-06-11 01:58:00,65.0,62.6,29.93,WSW,254,1.5,1.5,92,0.00,,,0.00,VWS V14.01,2013-06-11 05:58:00,
2013-06-11 01:59:00,64.9,62.5,29.93,WSW,254,1.5,1.5,92,0.00,,,0.00,VWS V14.01,2013-06-11 05:59:00,
2013-06-11 02:00:00,64.8,62.7,29.93,WSW,254,1.5,1.5,93,0.00,,,0.00,VWS V14.01,2013-06-11 06:00:00,
2013-06-11 02:01:00,64.8,62.7,29.93,WSW,254,1.5,1.5,93,0.00,,,0.00,VWS V14.01,2013-06-11 06:01:00,
2013-06-11 02:02:00,64.8,62.7,29.93,WSW,254,1.5,1.5,93,0.00,,,0.00,VWS V14.01,2013-06-11 06:02:00,
2013-06-11 02:03:00,64.7,62.6,29.93,WSW,254,1.5,1.5,93,0.00,,,0.00,VWS V14.01,2013-06-11 06:03:00,
2013-06-11 02:04:00,64.7,62.6,29.93,WSW,254,1.5,1.5,93,0.00,,,0.00,VWS V14.01,2013-06-11 06:04:00,
2013-06-11 02:05:00,64.7,62.6,29.93,WSW,250,3.0,3.0,93,0.00,,,0.00,VWS V14.01,2013-06-11 06:05:00,
2013-06-11 02:06:00,64.7,62.6,29.93,WSW,248,3.0,3.0,93,0.00,,,0.00,VWS V14.01,2013-06-11 06:06:00,
2013-06-11 02:07:00,64.7,62.9,29.93,WSW,255,1.5,3.0,94,0.00,,,0.00,VWS V14.01,2013-06-11 06:07:00,
2013-06-11 02:08:00,64.7,62.9,29.93,West,265,3.0,3.0,94,0.00,,,0.00,VWS V14.01,2013-06-11 06:08:00,
2013-06-11 02:09:00,64.8,63.0,29.93,West,265,1.5,3.0,94,0.00,,,0.00,VWS V14.01,2013-06-11 06:09:00,
2013-06-11 02:10:00,64.8,63.0,29.93,West,264,3.0,3.0,94,0.00,,,0.00,VWS V14.01,2013-06-11 06:10:00,
2013-06-11 02:11:00,64.8,63.0,29.93,West,264,3.0,3.0,94,0.00,,,0.00,VWS V14.01,2013-06-11 06:11:00,
2013-06-11 02:12:00,64.9,63.1,29.93,West,264,3.0,3.0,94,0.00,,,0.00,VWS V14.01,2013-06-11 06:12:00,
2013-06-11 02:13:00,64.9,63.1,29.93,West,267,3.0,4.5,94,0.00,,,0.00,VWS V14.01,2013-06-11 06:13:00,
2013-06-11 02:14:00,64.9,62.8,29.93,West,259,3.0,4.5,93,0.00,,,0.00,VWS V14.01,2013-06-11 06:14:00,
2013-06-11 02:15:00,65.0,62.9,29.93,West,265,1.5,3.0,93,0.00,,,0.00,VWS V14.01,2013-06-11 06:15:00,
2013-06-11 02:16:00,65.0,62.9,29.93,West,265,1.5,3.0,93,0.00,,,0.00,VWS V14.01,2013-06-11 06:16:00,
2013-06-11 02:17:00,65.0,62.9,29.93,West,265,3.0,3.0,93,0.00,,,0.00,VWS V14.01,2013-06-11 06:17:00,
2013-06-11 02:18:00,65.0,62.9,29.93,West,264,3.0,3.0,93,0.00,,,0.00,VWS V14.01,2013-06-11 06:18:00,
2013-06-11 02:19:00,65.0,62.9,29.93,West,264,1.5,3.0,93,0.00,,,0.00,VWS V14.01,2013-06-11 06:19:00,
2013-06-11 02:20:00,65.0,62.9,29.93,West,264,1.5,3.0,93,0.00,,,0.00,VWS V14.01,2013-06-11 06:20:00,
2013-06-11 02:21:00,65.0,62.9,29.93,West,264,1.5,3.0,93,0.00,,,0.00,VWS V14.01,2013-06-11 06:21:00,
2013-06-11 02:22:00,65.0,62.9,29.93,West,264,1.5,1.5,93,0.00,,,0.00,VWS V14.01,2013-06-11 06:22:00,
2013-06-11 02:23:00,64.9,62.8,29.93,West,265,3.0,3.0,93,0.00,,,0.00,VWS V14.01,2013-06-11 06:23:00,
2013-06-11 02:24:00,64.9,62.8,29.93,WSW,255,3.0,4.5,93,0.00,,,0.00,VWS V14.01,2013-06-11 06:24:00,
2013-06-11 02:25:00,64.9,62.8,29.93,WSW,257,1.5,3.0,93,0.00,,,0.00,VWS V14.01,2013-06-11 06:25:00,
2013-06-11 02:26:00,64.9,62.8,29.93,WSW,257,3.0,3.0,93,0.00,,,0.00,VWS V14.01,2013-06-11 06:26:00,
2013-06-11 02:27:00,64.9,62.8,29.93,West,262,3.0,6.0,93,0.00,,,0.00,VWS V14.01,2013-06-11 06:27:00,
2013-06-11 02:28:00,64.9,62.8,29.93,West,262,1.5,6.0,93,0.00,,,0.00,VWS V14.01,2013-06-11 06:28:00,
2013-06-11 02:29:00,64.9,62.8,29.93,West,260,3.0,3.0,93,0.00,,,0.00,VWS V14.01,2013-06-11 06:29:00,
2013-06-11 02:30:00,64.9,62.8,29.93,WSW,256,3.0,6.0,93,0.00,,,0.00,VWS V14.01,2013-06-11 06:30:00,
2013-06-11 02:31:00,64.9,62.8,29.93,WSW,257,3.0,6.0,93,0.00,,,0.00,VWS V14.01,2013-06-11 06:31:00,
2013-06-11 02:32:00,65.0,62.9,29.93,WSW,258,4.5,6.0,93,0.00,,,0.00,VWS V14.01,2013-06-11 06:32:00,
2013-06-11 02:33:00,65.0,62.9,29.93,WSW,253,4.5,6.0,93,0.00,,,0.00,VWS V14.01,2013-06-11 06:33:00,
2013-06-11 02:34:00,65.0,62.9,29.93,WSW,239,3.0,6.0,93,0.00,,,0.00,VWS V14.01,2013-06-11 06:34:00,
2013-06-11 02:35:00,65.1,63.0,29.93,WSW,258,3.0,6.0,93,0.00,,,0.00,VWS V14.01,2013-06-11 06:35:00,
2013-06-11 02:36:00,65.1,63.0,29.93,WSW,254,4.5,6.0,93,0.00,,,0.00,VWS V14.01,2013-06-11 06:36:00,
2013-06-11 02:37:00,65.1,63.0,29.93,WSW,258,3.0,7.5,93,0.00,,,0.00,VWS V14.01,2013-06-11 06:37:00,
2013-06-11 02:38:00,65.2,63.1,29.93,WSW,255,6.0,7.5,93,0.00,,,0.00,VWS V14.01,2013-06-11 06:38:00,
2013-06-11 02:39:00,65.2,63.1,29.93,WSW,239,4.5,6.0,93,0.00,,,0.00,VWS V14.01,2013-06-11 06:39:00,
2013-06-11 02:40:00,65.3,63.2,29.93,SW,220,4.5,6.0,93,0.00,,,0.00,VWS V14.01,2013-06-11 06:40:00,
2013-06-11 02:41:00,65.3,63.2,29.93,WSW,248,4.5,6.0,93,0.00,,,0.00,VWS V14.01,2013-06-11 06:41:00,
2013-06-11 02:42:00,65.3,63.2,29.93,WSW,244,3.0,6.0,93,0.00,,,0.00,VWS V14.01,2013-06-11 06:42:00,
2013-06-11 02:43:00,65.3,63.2,29.93,West,274,6.0,6.0,93,0.00,,,0.00,VWS V14.01,2013-06-11 06:43:00,
2013-06-11 02:44:00,65.3,63.2,29.93,SW,236,4.5,6.0,93,0.00,,,0.00,VWS V14.01,2013-06-11 06:44:00,
2013-06-11 02:45:00,65.4,63.3,29.93,WSW,241,4.5,6.0,93,0.00,,,0.00,VWS V14.01,2013-06-11 06:45:00,
2013-06-11 02:46:00,65.4,63.3,29.93,SW,234,4.5,6.0,93,0.00,,,0.00,VWS V14.01,2013-06-11 06:46:00,
2013-06-11 02:47:00,65.4,63.3,29.93,WSW,247,4.5,6.0,93,0.00,,,0.00,VWS V14.01,2013-06-11 06:47:00,
2013-06-11 02:48:00,65.4,63.3,29.93,WSW,254,6.0,6.0,93,0.00,,,0.00,VWS V14.01,2013-06-11 06:48:00,
2013-06-11 02:49:00,65.4,63.3,29.93,WSW,257,6.0,6.0,93,0.00,,,0.00,VWS V14.01,2013-06-11 06:49:00,
2013-06-11 02:50:00,65.4,63.3,29.93,WSW,246,4.5,6.0,93,0.00,,,0.00,VWS V14.01,2013-06-11 06:50:00,
2013-06-11 02:51:00,65.4,63.3,29.93,WSW,250,4.5,6.0,93,0.00,,,0.00,VWS V14.01,2013-06-11 06:51:00,
2013-06-11 02:52:00,65.4,63.3,29.93,West,260,4.5,6.0,93,0.00,,,0.00,VWS V14.01,2013-06-11 06:52:00,
2013-06-11 02:53:00,65.4,63.3,29.93,WSW,257,3.0,4.5,93,0.00,,,0.00,VWS V14.01,2013-06-11 06:53:00,
2013-06-11 02:54:00,65.4,63.0,29.93,SW,229,4.5,4.5,92,0.00,,,0.00,VWS V14.01,2013-06-11 06:54:00,
2013-06-11 02:55:00,65.4,63.0,29.93,WSW,250,3.0,6.0,92,0.00,,,0.00,VWS V14.01,2013-06-11 06:55:00,
2013-06-11 02:56:00,65.4,63.0,29.93,WSW,250,4.5,6.0,92,0.00,,,0.00,VWS V14.01,2013-06-11 06:56:00,
2013-06-11 02:57:00,65.4,63.3,29.93,WSW,248,3.0,6.0,93,0.00,,,0.00,VWS V14.01,2013-06-11 06:57:00,
2013-06-11 02:58:00,65.4,63.3,29.93,West,265,3.0,4.5,93,0.00,,,0.00,VWS V14.01,2013-06-11 06:58:00,
2013-06-11 02:59:00,65.3,63.2,29.93,WSW,252,4.5,4.5,93,0.00,,,0.00,VWS V14.01,2013-06-11 06:59:00,
2013-06-11 03:00:00,65.3,63.2,29.93,WSW,246,1.5,4.5,93,0.00,,,0.00,VWS V14.01,2013-06-11 07:00:00,
2013-06-11 03:01:00,65.3,62.9,29.93,WSW,246,1.5,4.5,92,0.00,,,0.00,VWS V14.01,2013-06-11 07:01:00,
2013-06-11 03:02:00,65.3,63.2,29.93,WSW,240,1.5,6.0,93,0.00,,,0.00,VWS V14.01,2013-06-11 07:02:00,
2013-06-11 03:03:00,65.3,63.2,29.93,WSW,237,3.0,6.0,93,0.00,,,0.00,VWS V14.01,2013-06-11 07:03:00,
2013-06-11 03:04:00,65.3,63.2,29.93,WSW,239,3.0,6.0,93,0.00,,,0.00,VWS V14.01,2013-06-11 07:04:00,
2013-06-11 03:05:00,65.3,63.2,29.93,WSW,254,3.0,6.0,93,0.00,,,0.00,VWS V14.01,2013-06-11 07:05:00,
2013-06-11 03:06:00,65.3,63.2,29.93,West,261,4.5,6.0,93,0.00,,,0.00,VWS V14.01,2013-06-11 07:06:00,
2013-06-11 03:07:00,65.2,63.1,29.93,WSW,253,6.0,6.0,93,0.00,,,0.00,VWS V14.01,2013-06-11 07:07:00,
2013-06-11 03:08:00,65.3,63.2,29.93,WSW,241,4.5,6.0,93,0.00,,,0.00,VWS V14.01,2013-06-11 07:08:00,
2013-06-11 03:09:00,65.2,63.1,29.93,WSW,246,3.0,6.0,93,0.00,,,0.00,VWS V14.01,2013-06-11 07:09:00,
2013-06-11 03:10:00,65.2,63.1,29.93,West,260,3.0,4.5,93,0.00,,,0.00,VWS V14.01,2013-06-11 07:10:00,
2013-06-11 03:11:00,65.2,63.1,29.93,WSW,253,4.5,6.0,93,0.00,,,0.00,VWS V14.01,2013-06-11 07:11:00,
2013-06-11 03:12:00,65.2,63.1,29.93,WSW,247,3.0,6.0,93,0.00,,,0.00,VWS V14.01,2013-06-11 07:12:00,
2013-06-11 03:13:00,65.1,63.0,29.93,SW,229,3.0,6.0,93,0.00,,,0.00,VWS V14.01,2013-06-11 07:13:00,
2013-06-11 03:14:00,65.1,63.0,29.93,West,260,4.5,6.0,93,0.00,,,0.00,VWS V14.01,2013-06-11 07:14:00,
2013-06-11 03:15:00,65.1,63.0,29.93,SW,222,3.0,4.5,93,0.00,,,0.00,VWS V14.01,2013-06-11 07:15:00,
2013-06-11 03:16:00,65.1,63.0,29.93,WSW,246,4.5,4.5,93,0.00,,,0.00,VWS V14.01,2013-06-11 07:16:00,
2013-06-11 03:17:00,65.1,63.0,29.93,WSW,257,4.5,6.0,93,0.00,,,0.00,VWS V14.01,2013-06-11 07:17:00,
2013-06-11 03:18:00,65.1,63.0,29.93,West,267,1.5,6.0,93,0.00,,,0.00,VWS V14.01,2013-06-11 07:18:00,
2013-06-11 03:19:00,65.1,63.0,29.93,West,267,3.0,4.5,93,0.00,,,0.00,VWS V14.01,2013-06-11 07:19:00,
2013-06-11 03:20:00,65.1,63.0,29.93,West,260,4.5,4.5,93,0.00,,,0.00,VWS V14.01,2013-06-11 07:20:00,
2013-06-11 03:21:00,65.1,63.0,29.93,WSW,248,4.5,4.5,93,0.00,,,0.00,VWS V14.01,2013-06-11 07:21:00,
2013-06-11 03:22:00,65.0,62.9,29.93,WSW,248,3.0,4.5,93,0.00,,,0.00,VWS V14.01,2013-06-11 07:22:00,
2013-06-11 03:23:00,65.0,62.9,29.93,SW,236,4.5,4.5,93,0.00,,,0.00,VWS V14.01,2013-06-11 07:23:00,
2013-06-11 03:24:00,65.0,62.9,29.93,WSW,258,4.5,6.0,93,0.00,,,0.00,VWS V14.01,2013-06-11 07:24:00,
2013-06-11 03:25:00,65.0,62.9,29.93,West,259,1.5,6.0,93,0.00,,,0.00,VWS V14.01,2013-06-11 07:25:00,
2013-06-11 03:26:00,64.9,62.8,29.93,WSW,258,3.0,4.5,93,0.00,,,0.00,VWS V14.01,2013-06-11 07:26:00,
2013-06-11 03:27:00,64.9,62.8,29.93,SW,226,3.0,3.0,93,0.00,,,0.00,VWS V14.01,2013-06-11 07:27:00,
2013-06-11 03:28:00,64.9,62.8,29.93,SW,226,3.0,4.5,93,0.00,,,0.00,VWS V14.01,2013-06-11 07:28:00,
2013-06-11 03:29:00,64.8,62.7,29.93,SW,236,6.0,7.5,93,0.00,,,0.00,VWS V14.01,2013-06-11 07:29:00,
2013-06-11 03:30:00,64.9,62.8,29.93,WSW,237,4.5,7.5,93,0.00,,,0.00,VWS V14.01,2013-06-11 07:30:00,
2013-06-11 03:31:00,64.8,62.7,29.93,WSW,242,3.0,7.5,93,0.00,,,0.00,VWS V14.01,2013-06-11 07:31:00,
2013-06-11 03:32:00,64.8,62.7,29.93,West,262,4.5,6.0,93,0.00,,,0.00,VWS V14.01,2013-06-11 07:32:00,
2013-06-11 03:33:00,64.8,62.7,29.93,WSW,255,3.0,6.0,93,0.00,,,0.00,VWS V14.01,2013-06-11 07:33:00,
2013-06-11 03:34:00,64.8,62.7,29.93,West,263,3.0,6.0,93,0.00,,,0.00,VWS V14.01,2013-06-11 07:34:00,
2013-06-11 03:35:00,64.8,62.7,29.93,West,260,4.5,7.5,93,0.00,,,0.00,VWS V14.01,2013-06-11 07:35:00,
2013-06-11 03:36:00,64.8,62.7,29.93,West,265,4.5,7.5,93,0.00,,,0.00,VWS V14.01,2013-06-11 07:36:00,
2013-06-11 03:37:00,64.8,63.0,29.93,WSW,255,4.5,7.5,94,0.00,,,0.00,VWS V14.01,2013-06-11 07:37:00,
2013-06-11 03:38:00,64.8,63.0,29.93,WSW,241,3.0,7.5,94,0.00,,,0.00,VWS V14.01,2013-06-11 07:38:00,
2013-06-11 03:39:00,64.8,63.0,29.93,WSW,249,3.0,6.0,94,0.00,,,0.00,VWS V14.01,2013-06-11 07:39:00,
2013-06-11 03:40:00,64.8,62.7,29.93,WSW,241,3.0,6.0,93,0.00,,,0.00,VWS V14.01,2013-06-11 07:40:00,
2013-06-11 03:41:00,64.8,62.7,29.93,WSW,246,4.5,6.0,93,0.00,,,0.00,VWS V14.01,2013-06-11 07:41:00,
2013-06-11 03:42:00,64.8,62.7,29.93,SW,234,3.0,7.5,93,0.00,,,0.00,VWS V14.01,2013-06-11 07:42:00,
2013-06-11 03:43:00,64.8,63.0,29.93,West,272,4.5,7.5,94,0.00,,,0.00,VWS V14.01,2013-06-11 07:43:00,
2013-06-11 03:44:00,64.8,63.0,29.93,WSW,237,6.0,7.5,94,0.00,,,0.00,VWS V14.01,2013-06-11 07:44:00,
2013-06-11 03:45:00,64.8,63.0,29.93,WSW,246,4.5,6.0,94,0.00,,,0.00,VWS V14.01,2013-06-11 07:45:00,
2013-06-11 03:46:00,64.8,63.0,29.93,WSW,248,4.5,6.0,94,0.00,,,0.00,VWS V14.01,2013-06-11 07:46:00,
2013-06-11 03:47:00,64.8,63.0,29.93,West,267,4.5,6.0,94,0.00,,,0.00,VWS V14.01,2013-06-11 07:47:00,
2013-06-11 03:48:00,64.8,63.0,29.93,West,265,3.0,6.0,94,0.00,,,0.00,VWS V14.01,2013-06-11 07:48:00,
2013-06-11 03:49:00,64.8,63.0,29.93,SW,234,3.0,6.0,94,0.00,,,0.00,VWS V14.01,2013-06-11 07:49:00,
2013-06-11 03:50:00,64.8,62.7,29.93,West,262,1.5,4.5,93,0.00,,,0.00,VWS V14.01,2013-06-11 07:50:00,
2013-06-11 03:51:00,64.8,62.7,29.93,West,262,3.0,4.5,93,0.00,,,0.00,VWS V14.01,2013-06-11 07:51:00,
2013-06-11 03:52:00,64.7,62.6,29.93,WSW,255,1.5,4.5,93,0.00,,,0.00,VWS V14.01,2013-06-11 07:52:00,
2013-06-11 03:53:00,64.7,62.6,29.93,SW,230,3.0,4.5,93,0.00,,,0.00,VWS V14.01,2013-06-11 07:53:00,
2013-06-11 03:54:00,64.7,62.6,29.93,SW,230,1.5,3.0,93,0.00,,,0.00,VWS V14.01,2013-06-11 07:54:00,
2013-06-11 03:55:00,64.7,62.9,29.93,West,267,3.0,6.0,94,0.00,,,0.00,VWS V14.01,2013-06-11 07:55:00,
2013-06-11 03:56:00,64.7,62.9,29.93,WSW,257,3.0,6.0,94,0.00,,,0.00,VWS V14.01,2013-06-11 07:56:00,
2013-06-11 03:57:00,64.6,62.8,29.93,SW,224,3.0,4.5,94,0.00,,,0.00,VWS V14.01,2013-06-11 07:57:00,
2013-06-11 03:58:00,64.6,62.8,29.93,WSW,250,3.0,4.5,94,0.00,,,0.00,VWS V14.01,2013-06-11 07:58:00,
2013-06-11 03:59:00,64.6,62.8,29.93,WSW,248,3.0,4.5,94,0.00,,,0.00,VWS V14.01,2013-06-11 07:59:00,
2013-06-11 04:00:00,64.5,62.4,29.93,SSW,212,3.0,4.5,93,0.00,,,0.00,VWS V14.01,2013-06-11 08:00:00,
2013-06-11 04:01:00,64.5,62.4,29.93,WSW,249,3.0,4.5,93,0.00,,,0.00,VWS V14.01,2013-06-11 08:01:00,
2013-06-11 04:02:00,64.5,62.4,29.93,WSW,248,1.5,4.5,93,0.00,,,0.00,VWS V14.01,2013-06-11 08:02:00,
2013-06-11 04:03:00,64.5,62.7,29.93,SW,227,4.5,6.0,94,0.00,,,0.00,VWS V14.01,2013-06-11 08:03:00,
2013-06-11 04:04:00,64.5,62.7,29.93,SSW,208,4.5,12.0,94,0.00,,,0.00,VWS V14.01,2013-06-11 08:04:00,
2013-06-11 04:05:00,64.6,62.8,29.93,WSW,237,6.0,12.0,94,0.00,,,0.00,VWS V14.01,2013-06-11 08:05:00,
2013-06-11 04:06:00,64.6,62.8,29.93,SW,216,4.5,7.5,94,0.00,,,0.00,VWS V14.01,2013-06-11 08:06:00,
2013-06-11 04:07:00,64.6,62.8,29.93,SW,217,4.5,7.5,94,0.00,,,0.00,VWS V14.01,2013-06-11 08:07:00,
2013-06-11 04:08:00,64.6,62.8,29.93,SW,236,6.0,9.0,94,0.00,,,0.00,VWS V14.01,2013-06-11 08:08:00,
2013-06-11 04:09:00,64.6,62.8,29.93,SW,231,3.0,9.0,94,0.00,,,0.00,VWS V14.01,2013-06-11 08:09:00,
2013-06-11 04:10:00,64.6,62.8,29.93,WSW,251,3.0,7.5,94,0.00,,,0.00,VWS V14.01,2013-06-11 08:10:00,
2013-06-11 04:11:00,64.6,62.8,29.93,West,260,4.5,6.0,94,0.00,,,0.00,VWS V14.01,2013-06-11 08:11:00,
2013-06-11 04:12:00,64.6,62.8,29.93,SW,226,1.5,6.0,94,0.00,,,0.00,VWS V14.01,2013-06-11 08:12:00,
2013-06-11 04:13:00,64.6,62.8,29.93,WNW,295,3.0,6.0,94,0.00,,,0.00,VWS V14.01,2013-06-11 08:13:00,
2013-06-11 04:14:00,64.6,62.8,29.93,WNW,296,1.5,6.0,94,0.00,,,0.00,VWS V14.01,2013-06-11 08:14:00,
2013-06-11 04:15:00,64.5,62.7,29.93,WNW,284,3.0,3.0,94,0.00,,,0.00,VWS V14.01,2013-06-11 08:15:00,
2013-06-11 04:16:00,64.5,62.7,29.93,SW,226,1.5,4.5,94,0.00,,,0.00,VWS V14.01,2013-06-11 08:16:00,
2013-06-11 04:17:00,64.5,62.7,29.93,SW,220,3.0,4.5,94,0.00,,,0.00,VWS V14.01,2013-06-11 08:17:00,
2013-06-11 04:18:00,64.4,62.6,29.93,WSW,249,3.0,4.5,94,0.00,,,0.00,VWS V14.01,2013-06-11 08:18:00,
2013-06-11 04:19:00,64.4,62.6,29.93,West,264,1.5,4.5,94,0.00,,,0.00,VWS V14.01,2013-06-11 08:19:00,
2013-06-11 04:20:00,64.3,62.5,29.93,SW,236,3.0,3.0,94,0.00,,,0.00,VWS V14.01,2013-06-11 08:20:00,
2013-06-11 04:21:00,64.3,62.5,29.93,WSW,239,3.0,4.5,94,0.00,,,0.00,VWS V14.01,2013-06-11 08:21:00,
2013-06-11 04:22:00,64.3,62.5,29.93,West,281,1.5,4.5,94,0.00,,,0.00,VWS V14.01,2013-06-11 08:22:00,
2013-06-11 04:23:00,64.3,62.5,29.93,WSW,246,3.0,4.5,94,0.00,,,0.00,VWS V14.01,2013-06-11 08:23:00,
2013-06-11 04:24:00,64.2,62.4,29.93,WSW,251,4.5,4.5,94,0.00,,,0.00,VWS V14.01,2013-06-11 08:24:00,
2013-06-11 04:25:00,64.2,62.4,29.93,WSW,241,6.0,7.5,94,0.00,,,0.00,VWS V14.01,2013-06-11 08:25:00,
2013-06-11 04:26:00,64.2,62.4,29.93,West,267,4.5,7.5,94,0.00,,,0.00,VWS V14.01,2013-06-11 08:26:00,
2013-06-11 04:27:00,64.2,62.4,29.94,WSW,246,4.5,7.5,94,0.00,,,0.00,VWS V14.01,2013-06-11 08:27:00,
2013-06-11 04:28:00,64.2,62.7,29.94,SSW,212,3.0,7.5,95,0.00,,,0.00,VWS V14.01,2013-06-11 08:28:00,
2013-06-11 04:29:00,64.2,62.7,29.94,SW,230,3.0,4.5,95,0.00,,,0.00,VWS V14.01,2013-06-11 08:29:00,
2013-06-11 04:30:00,64.2,62.7,29.94,WSW,255,3.0,6.0,95,0.00,,,0.00,VWS V14.01,2013-06-11 08:30:00,
2013-06-11 04:31:00,64.2,62.7,29.94,SSW,199,4.5,6.0,95,0.00,,,0.00,VWS V14.01,2013-06-11 08:31:00,
2013-06-11 04:32:00,64.2,62.7,29.94,WSW,253,4.5,7.5,95,0.00,,,0.00,VWS V14.01,2013-06-11 08:32:00,
2013-06-11 04:33:00,64.3,62.8,29.94,WSW,239,3.0,7.5,95,0.00,,,0.00,VWS V14.01,2013-06-11 08:33:00,
2013-06-11 04:34:00,64.2,62.7,29.94,SW,226,7.5,7.5,95,0.00,,,0.00,VWS V14.01,2013-06-11 08:34:00,
2013-06-11 04:35:00,64.3,62.8,29.94,WSW,255,6.0,10.5,95,0.00,,,0.00,VWS V14.01,2013-06-11 08:35:00,
2013-06-11 04:36:00,64.3,62.8,29.94,SW,229,6.0,10.5,95,0.00,,,0.00,VWS V14.01,2013-06-11 08:36:00,
2013-06-11 04:37:00,64.3,62.8,29.94,WSW,244,4.5,7.5,95,0.00,,,0.00,VWS V14.01,2013-06-11 08:37:00,
2013-06-11 04:38:00,64.3,62.8,29.94,WSW,244,4.5,7.5,95,0.00,,,0.00,VWS V14.01,2013-06-11 08:38:00,
2013-06-11 04:39:00,64.3,62.8,29.94,SW,223,3.0,7.5,95,0.00,,,0.00,VWS V14.01,2013-06-11 08:39:00,
2013-06-11 04:40:00,64.3,62.8,29.94,WSW,258,4.5,7.5,95,0.00,,,0.00,VWS V14.01,2013-06-11 08:40:00,
2013-06-11 04:41:00,64.3,62.8,29.94,West,271,4.5,7.5,95,0.00,,,0.00,VWS V14.01,2013-06-11 08:41:00,
2013-06-11 04:42:00,64.3,62.8,29.94,WSW,240,4.5,6.0,95,0.00,,,0.00,VWS V14.01,2013-06-11 08:42:00,
2013-06-11 04:43:00,64.2,62.7,29.94,WSW,243,3.0,4.5,95,0.00,,,0.00,VWS V14.01,2013-06-11 08:43:00,
2013-06-11 04:44:00,64.2,62.4,29.94,WSW,246,6.0,6.0,94,0.00,,,0.00,VWS V14.01,2013-06-11 08:44:00,
2013-06-11 04:45:00,64.2,62.7,29.94,WSW,258,1.5,6.0,95,0.00,,,0.00,VWS V14.01,2013-06-11 08:45:00,
2013-06-11 04:46:00,64.2,62.7,29.94,WSW,250,4.5,7.5,95,0.00,,,0.00,VWS V14.01,2013-06-11 08:46:00,
2013-06-11 04:47:00,64.2,62.7,29.94,WSW,257,3.0,7.5,95,0.00,,,0.00,VWS V14.01,2013-06-11 08:47:00,
2013-06-11 04:48:00,64.2,62.7,29.94,WSW,257,1.5,4.5,95,0.00,,,0.00,VWS V14.01,2013-06-11 08:48:00,
2013-06-11 04:49:00,64.1,62.3,29.94,WSW,257,4.5,4.5,94,0.00,,,0.00,VWS V14.01,2013-06-11 08:49:00,
2013-06-11 04:50:00,64.1,62.6,29.94,West,269,1.5,4.5,95,0.00,,,0.00,VWS V14.01,2013-06-11 08:50:00,
2013-06-11 04:51:00,64.1,62.3,29.94,WSW,248,1.5,4.5,94,0.00,,,0.00,VWS V14.01,2013-06-11 08:51:00,
2013-06-11 04:52:00,64.1,62.3,29.94,WSW,254,3.0,3.0,94,0.00,,,0.00,VWS V14.01,2013-06-11 08:52:00,
2013-06-11 04:53:00,64.1,62.6,29.94,WSW,240,1.5,4.5,95,0.00,,,0.00,VWS V14.01,2013-06-11 08:53:00,
2013-06-11 04:54:00,64.0,62.5,29.94,WSW,246,4.5,4.5,95,0.00,,,0.00,VWS V14.01,2013-06-11 08:54:00,
2013-06-11 04:55:00,64.0,62.5,29.94,SW,222,3.0,4.5,95,0.00,,,0.00,VWS V14.01,2013-06-11 08:55:00,
2013-06-11 04:56:00,64.0,62.5,29.94,WSW,248,3.0,4.5,95,0.00,,,0.00,VWS V14.01,2013-06-11 08:56:00,
2013-06-11 04:57:00,64.0,62.5,29.94,WSW,249,3.0,3.0,95,0.00,,,0.00,VWS V14.01,2013-06-11 08:57:00,
2013-06-11 04:58:00,63.9,62.4,29.94,West,260,3.0,4.5,95,0.00,,,0.00,VWS V14.01,2013-06-11 08:58:00,
2013-06-11 04:59:00,63.9,62.4,29.94,WSW,253,4.5,4.5,95,0.00,,,0.00,VWS V14.01,2013-06-11 08:59:00,
2013-06-11 05:00:00,63.9,62.4,29.94,WSW,246,3.0,4.5,95,0.00,,,0.00,VWS V14.01,2013-06-11 09:00:00,
2013-06-11 05:01:00,63.9,62.4,29.94,WSW,246,1.5,4.5,95,0.00,,,0.00,VWS V14.01,2013-06-11 09:01:00,
2013-06-11 05:02:00,63.9,62.4,29.94,WSW,246,1.5,3.0,95,0.00,,,0.00,VWS V14.01,2013-06-11 09:02:00,
2013-06-11 05:03:00,63.8,62.3,29.94,WSW,246,1.5,1.5,95,0.00,,,0.00,VWS V14.01,2013-06-11 09:03:00,
2013-06-11 05:04:00,63.8,62.3,29.94,WSW,246,1.5,1.5,95,0.00,,,0.00,VWS V14.01,2013-06-11 09:04:00,
2013-06-11 05:05:00,63.6,61.8,29.94,WSW,246,1.5,1.5,94,0.00,,,0.00,VWS V14.01,2013-06-11 09:05:00,
2013-06-11 05:06:00,63.6,61.8,29.94,SW,231,3.0,3.0,94,0.00,,,0.00,VWS V14.01,2013-06-11 09:06:00,
2013-06-11 05:07:00,63.6,62.2,29.94,WSW,246,3.0,3.0,95,0.00,,,0.00,VWS V14.01,2013-06-11 09:07:00,
2013-06-11 05:08:00,63.6,62.2,29.94,West,269,1.5,3.0,95,0.00,,,0.00,VWS V14.01,2013-06-11 09:08:00,
2013-06-11 05:09:00,63.6,62.2,29.94,West,269,1.5,3.0,95,0.00,,,0.00,VWS V14.01,2013-06-11 09:09:00,
2013-06-11 05:10:00,63.5,62.0,29.94,West,269,1.5,1.5,95,0.00,,,0.00,VWS V14.01,2013-06-11 09:10:00,
2013-06-11 05:11:00,63.5,62.0,29.94,West,269,3.0,4.5,95,0.00,,,0.00,VWS V14.01,2013-06-11 09:11:00,
2013-06-11 05:12:00,63.5,62.0,29.94,West,269,1.5,4.5,95,0.00,,,0.00,VWS V14.01,2013-06-11 09:12:00,
2013-06-11 05:13:00,63.5,62.0,29.94,West,269,1.5,3.0,95,0.00,,,0.00,VWS V14.01,2013-06-11 09:13:00,
2013-06-11 05:14:00,63.5,62.0,29.94,West,265,1.5,4.5,95,0.00,,,0.00,VWS V14.01,2013-06-11 09:14:00,
2013-06-11 05:15:00,63.5,62.0,29.94,West,265,1.5,4.5,95,0.00,,,0.00,VWS V14.01,2013-06-11 09:15:00,
2013-06-11 05:16:00,63.5,62.0,29.94,West,265,1.5,3.0,95,0.00,,,0.00,VWS V14.01,2013-06-11 09:16:00,
2013-06-11 05:17:00,63.4,62.0,29.94,West,265,1.5,1.5,95,0.00,,,0.00,VWS V14.01,2013-06-11 09:17:00,
2013-06-11 05:18:00,63.5,62.0,29.94,West,263,1.5,3.0,95,0.00,,,0.00,VWS V14.01,2013-06-11 09:18:00,
2013-06-11 05:19:00,63.5,62.0,29.95,West,264,1.5,3.0,95,0.00,,,0.00,VWS V14.01,2013-06-11 09:19:00,
2013-06-11 05:20:00,63.5,62.0,29.95,West,262,1.5,3.0,95,0.00,,,0.00,VWS V14.01,2013-06-11 09:20:00,
2013-06-11 05:21:00,63.5,62.0,29.95,WSW,253,4.5,4.5,95,0.00,,,0.00,VWS V14.01,2013-06-11 09:21:00,
2013-06-11 05:22:00,63.5,62.0,29.94,WSW,252,1.5,4.5,95,0.00,,,0.00,VWS V14.01,2013-06-11 09:22:00,
2013-06-11 05:23:00,63.5,62.3,29.95,WSW,254,1.5,3.0,96,0.00,,,0.00,VWS V14.01,2013-06-11 09:23:00,
2013-06-11 05:24:00,63.5,62.0,29.95,WSW,253,1.5,3.0,95,0.00,,,0.00,VWS V14.01,2013-06-11 09:24:00,
2013-06-11 05:25:00,63.5,62.0,29.95,WSW,253,1.5,3.0,95,0.00,,,0.00,VWS V14.01,2013-06-11 09:25:00,
2013-06-11 05:26:00,63.5,62.0,29.95,WSW,253,3.0,3.0,95,0.00,,,0.00,VWS V14.01,2013-06-11 09:26:00,
2013-06-11 05:27:00,63.5,62.0,29.95,WSW,253,1.5,3.0,95,0.00,,,0.00,VWS V14.01,2013-06-11 09:27:00,
2013-06-11 05:28:00,63.6,62.2,29.95,WSW,253,1.5,3.0,95,0.00,,,0.00,VWS V14.01,2013-06-11 09:28:00,
2013-06-11 05:29:00,63.6,62.4,29.95,WSW,248,3.0,3.0,96,0.00,,,0.00,VWS V14.01,2013-06-11 09:29:00,
2013-06-11 05:30:00,63.6,62.2,29.95,WSW,248,1.5,3.0,95,0.00,,,0.00,VWS V14.01,2013-06-11 09:30:00,
2013-06-11 05:31:00,63.6,62.2,29.95,WSW,250,3.0,3.0,95,0.00,,,0.00,VWS V14.01,2013-06-11 09:31:00,
2013-06-11 05:32:00,63.6,62.2,29.95,WSW,246,3.0,3.0,95,0.00,,,0.00,VWS V14.01,2013-06-11 09:32:00,
2013-06-11 05:33:00,63.6,62.2,29.95,SW,223,1.5,3.0,95,0.00,,,0.00,VWS V14.01,2013-06-11 09:33:00,
2013-06-11 05:34:00,63.6,62.2,29.95,WSW,248,3.0,3.0,95,0.00,,,0.00,VWS V14.01,2013-06-11 09:34:00,
2013-06-11 05:35:00,63.6,62.2,29.95,WSW,254,1.5,4.5,95,0.00,,,0.00,VWS V14.01,2013-06-11 09:35:00,
2013-06-11 05:36:00,63.6,62.2,29.95,WSW,251,3.0,4.5,95,0.00,,,0.00,VWS V14.01,2013-06-11 09:36:00,
2013-06-11 05:37:00,63.6,62.2,29.95,WSW,240,1.5,3.0,95,0.00,,,0.00,VWS V14.01,2013-06-11 09:37:00,
2013-06-11 05:38:00,63.6,62.2,29.95,West,260,4.5,4.5,95,0.00,,,0.00,VWS V14.01,2013-06-11 09:38:00,
2013-06-11 05:39:00,63.6,62.2,29.95,WSW,255,3.0,4.5,95,0.00,,,0.00,VWS V14.01,2013-06-11 09:39:00,
2013-06-11 05:40:00,63.7,62.2,29.95,WSW,258,4.5,4.5,95,0.00,,,0.00,VWS V14.01,2013-06-11 09:40:00,
2013-06-11 05:41:00,63.6,62.2,29.95,WSW,253,3.0,4.5,95,0.00,,,0.00,VWS V14.01,2013-06-11 09:41:00,
2013-06-11 05:42:00,63.7,62.2,29.95,WSW,241,3.0,6.0,95,0.00,,,0.00,VWS V14.01,2013-06-11 09:42:00,
2013-06-11 05:43:00,63.7,62.2,29.95,WSW,258,3.0,6.0,95,0.00,,,0.00,VWS V14.01,2013-06-11 09:43:00,
2013-06-11 05:44:00,63.7,62.2,29.95,WSW,248,4.5,4.5,95,0.00,,,0.00,VWS V14.01,2013-06-11 09:44:00,
2013-06-11 05:45:00,63.7,62.2,29.95,WSW,248,1.5,4.5,95,0.00,,,0.00,VWS V14.01,2013-06-11 09:45:00,
2013-06-11 05:46:00,63.7,62.2,29.95,WSW,248,1.5,4.5,95,0.00,,,0.00,VWS V14.01,2013-06-11 09:46:00,
2013-06-11 05:47:00,63.6,62.2,29.95,WSW,248,1.5,3.0,95,0.00,,,0.00,VWS V14.01,2013-06-11 09:47:00,
2013-06-11 05:48:00,63.6,62.2,29.95,WSW,248,1.5,3.0,95,0.00,,,0.00,VWS V14.01,2013-06-11 09:48:00,
2013-06-11 05:49:00,63.6,62.2,29.95,WSW,248,1.5,1.5,95,0.00,,,0.00,VWS V14.01,2013-06-11 09:49:00,
2013-06-11 05:50:00,63.5,62.0,29.95,WSW,248,1.5,1.5,95,0.00,,,0.00,VWS V14.01,2013-06-11 09:50:00,
2013-06-11 05:51:00,63.5,62.0,29.95,WSW,248,1.5,3.0,95,0.00,,,0.00,VWS V14.01,2013-06-11 09:51:00,
2013-06-11 05:52:00,63.5,62.0,29.95,WSW,248,1.5,3.0,95,0.00,,,0.00,VWS V14.01,2013-06-11 09:52:00,
2013-06-11 05:53:00,63.4,62.0,29.95,WSW,248,1.5,1.5,95,0.00,,,0.00,VWS V14.01,2013-06-11 09:53:00,
2013-06-11 05:54:00,63.4,62.0,29.95,WSW,248,3.0,3.0,95,0.00,,,0.00,VWS V14.01,2013-06-11 09:54:00,
2013-06-11 05:55:00,63.4,62.0,29.95,WSW,248,1.5,3.0,95,0.00,,,0.00,VWS V14.01,2013-06-11 09:55:00,
2013-06-11 05:56:00,63.4,62.0,29.95,WSW,248,1.5,1.5,95,0.00,,,0.00,VWS V14.01,2013-06-11 09:56:00,
2013-06-11 05:57:00,63.4,62.0,29.95,WSW,248,1.5,1.5,95,0.00,,,0.00,VWS V14.01,2013-06-11 09:57:00,
2013-06-11 05:58:00,63.4,62.0,29.95,WSW,248,1.5,1.5,95,0.00,,,0.00,VWS V14.01,2013-06-11 09:58:00,
2013-06-11 05:59:00,63.3,61.8,29.95,WSW,248,1.5,1.5,95,0.00,,,0.00,VWS V14.01,2013-06-11 09:59:00,
2013-06-11 06:00:00,63.3,61.8,29.95,WSW,248,1.5,3.0,95,0.00,,,0.00,VWS V14.01,2013-06-11 10:00:00,
2013-06-11 06:01:00,63.3,61.8,29.96,WSW,248,1.5,3.0,95,0.00,,,0.00,VWS V14.01,2013-06-11 10:01:00,
2013-06-11 06:02:00,63.3,61.8,29.96,WSW,248,3.0,3.0,95,0.00,,,0.00,VWS V14.01,2013-06-11 10:02:00,
2013-06-11 06:03:00,63.3,61.8,29.96,WSW,248,3.0,3.0,95,0.00,,,0.00,VWS V14.01,2013-06-11 10:03:00,
2013-06-11 06:04:00,63.3,61.8,29.96,WSW,248,1.5,3.0,95,0.00,,,0.00,VWS V14.01,2013-06-11 10:04:00,
2013-06-11 06:05:00,63.3,61.8,29.96,WSW,248,3.0,3.0,95,0.00,,,0.00,VWS V14.01,2013-06-11 10:05:00,
2013-06-11 06:06:00,63.3,61.8,29.96,WSW,248,1.5,3.0,95,0.00,,,0.00,VWS V14.01,2013-06-11 10:06:00,
2013-06-11 06:07:00,63.2,61.8,29.96,WSW,248,1.5,3.0,95,0.00,,,0.00,VWS V14.01,2013-06-11 10:07:00,
2013-06-11 06:08:00,63.2,61.8,29.96,WSW,253,3.0,4.5,95,0.00,,,0.00,VWS V14.01,2013-06-11 10:08:00,
2013-06-11 06:09:00,63.2,61.8,29.96,WSW,253,1.5,4.5,95,0.00,,,0.00,VWS V14.01,2013-06-11 10:09:00,
2013-06-11 06:10:00,63.2,61.8,29.97,WSW,253,1.5,1.5,95,0.00,,,0.00,VWS V14.01,2013-06-11 10:10:00,
2013-06-11 06:11:00,63.2,61.8,29.97,WSW,253,1.5,1.5,95,0.00,,,0.00,VWS V14.01,2013-06-11 10:11:00,
2013-06-11 06:12:00,63.1,61.7,29.96,WSW,253,1.5,1.5,95,0.00,,,0.00,VWS V14.01,2013-06-11 10:12:00,
2013-06-11 06:13:00,63.1,61.7,29.96,WSW,252,1.5,1.5,95,0.00,,,0.00,VWS V14.01,2013-06-11 10:13:00,
2013-06-11 06:14:00,63.1,61.7,29.97,WSW,253,1.5,1.5,95,0.00,,,0.00,VWS V14.01,2013-06-11 10:14:00,
2013-06-11 06:15:00,63.0,61.5,29.97,WSW,253,1.5,1.5,95,0.00,,,0.00,VWS V14.01,2013-06-11 10:15:00,
2013-06-11 06:16:00,63.0,61.5,29.97,WSW,253,1.5,1.5,95,0.00,,,0.00,VWS V14.01,2013-06-11 10:16:00,
2013-06-11 06:17:00,63.0,61.5,29.97,WSW,253,1.5,1.5,95,0.00,,,0.00,VWS V14.01,2013-06-11 10:17:00,
2013-06-11 06:18:00,63.0,61.5,29.97,WSW,253,1.5,1.5,95,0.00,,,0.00,VWS V14.01,2013-06-11 10:18:00,
2013-06-11 06:19:00,63.0,61.5,29.97,WSW,253,1.5,1.5,95,0.00,,,0.00,VWS V14.01,2013-06-11 10:19:00,
2013-06-11 06:20:00,63.0,61.5,29.97,WSW,253,1.5,1.5,95,0.00,,,0.00,VWS V14.01,2013-06-11 10:20:00,
2013-06-11 06:21:00,63.0,61.5,29.97,WSW,253,1.5,1.5,95,0.00,,,0.00,VWS V14.01,2013-06-11 10:21:00,
2013-06-11 06:22:00,63.0,61.8,29.97,WSW,253,1.5,1.5,96,0.00,,,0.00,VWS V14.01,2013-06-11 10:22:00,
2013-06-11 06:23:00,62.9,61.8,29.97,WSW,253,1.5,1.5,96,0.00,,,0.00,VWS V14.01,2013-06-11 10:23:00,
2013-06-11 06:24:00,62.9,61.8,29.97,WSW,253,1.5,1.5,96,0.00,,,0.00,VWS V14.01,2013-06-11 10:24:00,
2013-06-11 06:25:00,62.9,61.8,29.97,WSW,253,1.5,1.5,96,0.00,,,0.00,VWS V14.01,2013-06-11 10:25:00,
2013-06-11 06:26:00,62.9,61.8,29.97,WSW,253,1.5,1.5,96,0.00,,,0.00,VWS V14.01,2013-06-11 10:26:00,
2013-06-11 06:27:00,62.9,61.8,29.97,WSW,253,1.5,1.5,96,0.00,,,0.00,VWS V14.01,2013-06-11 10:27:00,
2013-06-11 06:28:00,63.0,61.8,29.97,WSW,253,1.5,1.5,96,0.00,,,0.00,VWS V14.01,2013-06-11 10:28:00,
2013-06-11 06:29:00,63.0,61.8,29.97,WSW,253,1.5,1.5,96,0.00,,,0.00,VWS V14.01,2013-06-11 10:29:00,
2013-06-11 06:30:00,63.0,61.8,29.97,WSW,253,1.5,1.5,96,0.00,,,0.00,VWS V14.01,2013-06-11 10:30:00,
2013-06-11 06:31:00,63.1,61.9,29.97,WSW,253,1.5,1.5,96,0.00,,,0.00,VWS V14.01,2013-06-11 10:31:00,
2013-06-11 06:32:00,63.1,61.9,29.97,WSW,253,1.5,1.5,96,0.00,,,0.00,VWS V14.01,2013-06-11 10:32:00,
2013-06-11 06:33:00,63.1,61.9,29.97,WSW,252,1.5,1.5,96,0.00,,,0.00,VWS V14.01,2013-06-11 10:33:00,
2013-06-11 06:34:00,63.1,61.9,29.97,WSW,253,1.5,1.5,96,0.00,,,0.00,VWS V14.01,2013-06-11 10:34:00,
2013-06-11 06:35:00,63.1,61.9,29.97,WSW,253,3.0,3.0,96,0.00,,,0.00,VWS V14.01,2013-06-11 10:35:00,
2013-06-11 06:36:00,63.2,62.0,29.97,West,260,1.5,4.5,96,0.00,,,0.00,VWS V14.01,2013-06-11 10:36:00,
2013-06-11 06:37:00,63.2,62.0,29.97,West,261,3.0,4.5,96,0.00,,,0.00,VWS V14.01,2013-06-11 10:37:00,
2013-06-11 06:38:00,63.2,62.0,29.98,West,260,1.5,3.0,96,0.00,,,0.00,VWS V14.01,2013-06-11 10:38:00,
2013-06-11 06:39:00,63.2,62.0,29.98,West,260,3.0,3.0,96,0.00,,,0.00,VWS V14.01,2013-06-11 10:39:00,
2013-06-11 06:40:00,63.2,62.0,29.97,West,260,1.5,3.0,96,0.00,,,0.00,VWS V14.01,2013-06-11 10:40:00,
2013-06-11 06:41:00,63.3,62.1,29.97,WSW,254,3.0,4.5,96,0.00,,,0.00,VWS V14.01,2013-06-11 10:41:00,
2013-06-11 06:42:00,63.3,62.1,29.98,WSW,254,3.0,4.5,96,0.00,,,0.00,VWS V14.01,2013-06-11 10:42:00,
2013-06-11 06:43:00,63.3,62.1,29.98,WSW,254,1.5,3.0,96,0.00,,,0.00,VWS V14.01,2013-06-11 10:43:00,
2013-06-11 06:44:00,63.3,62.1,29.98,WSW,254,1.5,3.0,96,0.00,,,0.00,VWS V14.01,2013-06-11 10:44:00,
2013-06-11 06:45:00,63.3,62.1,29.98,WSW,254,1.5,3.0,96,0.00,,,0.00,VWS V14.01,2013-06-11 10:45:00,
2013-06-11 06:46:00,63.4,62.2,29.98,WSW,254,1.5,3.0,96,0.00,,,0.00,VWS V14.01,2013-06-11 10:46:00,
2013-06-11 06:47:00,63.4,62.2,29.98,WSW,254,1.5,1.5,96,0.00,,,0.00,VWS V14.01,2013-06-11 10:47:00,
2013-06-11 06:48:00,63.4,62.2,29.98,WSW,254,1.5,1.5,96,0.00,,,0.00,VWS V14.01,2013-06-11 10:48:00,
2013-06-11 06:49:00,63.5,62.3,29.98,WSW,254,1.5,3.0,96,0.00,,,0.00,VWS V14.01,2013-06-11 10:49:00,
2013-06-11 06:50:00,63.5,62.3,29.98,SW,226,3.0,3.0,96,0.00,,,0.00,VWS V14.01,2013-06-11 10:50:00,
2013-06-11 06:51:00,63.5,62.3,29.98,SW,226,1.5,3.0,96,0.00,,,0.00,VWS V14.01,2013-06-11 10:51:00,
2013-06-11 06:52:00,63.5,62.3,29.98,SW,226,1.5,3.0,96,0.00,,,0.00,VWS V14.01,2013-06-11 10:52:00,
2013-06-11 06:53:00,63.5,62.3,29.98,SW,226,1.5,3.0,96,0.00,,,0.00,VWS V14.01,2013-06-11 10:53:00,
2013-06-11 06:54:00,63.6,62.4,29.98,SW,225,1.5,3.0,96,0.00,,,0.00,VWS V14.01,2013-06-11 10:54:00,
2013-06-11 06:55:00,63.6,62.4,29.98,WSW,248,3.0,4.5,96,0.00,,,0.00,VWS V14.01,2013-06-11 10:55:00,
2013-06-11 06:56:00,63.7,62.5,29.98,WSW,248,1.5,4.5,96,0.00,,,0.00,VWS V14.01,2013-06-11 10:56:00,
2013-06-11 06:57:00,63.7,62.2,29.98,WSW,248,1.5,3.0,95,0.00,,,0.00,VWS V14.01,2013-06-11 10:57:00,
2013-06-11 06:58:00,63.7,62.2,29.98,WSW,247,1.5,4.5,95,0.00,,,0.00,VWS V14.01,2013-06-11 10:58:00,
2013-06-11 06:59:00,63.7,62.2,29.98,WSW,247,1.5,4.5,95,0.00,,,0.00,VWS V14.01,2013-06-11 10:59:00,
2013-06-11 07:00:00,63.8,62.3,29.98,WSW,240,3.0,4.5,95,0.00,,,0.00,VWS V14.01,2013-06-11 11:00:00,
2013-06-11 07:01:00,63.8,62.3,29.98,WSW,240,1.5,4.5,95,0.00,,,0.00,VWS V14.01,2013-06-11 11:01:00,
2013-06-11 07:02:00,63.8,62.3,29.98,WSW,246,3.0,4.5,95,0.00,,,0.00,VWS V14.01,2013-06-11 11:02:00,
2013-06-11 07:03:00,63.9,62.4,29.98,WSW,248,1.5,4.5,95,0.00,,,0.00,VWS V14.01,2013-06-11 11:03:00,
2013-06-11 07:04:00,63.8,62.3,29.98,WSW,248,3.0,4.5,95,0.00,,,0.00,VWS V14.01,2013-06-11 11:04:00,
2013-06-11 07:05:00,63.9,62.4,29.98,WSW,246,3.0,3.0,95,0.00,,,0.00,VWS V14.01,2013-06-11 11:05:00,
2013-06-11 07:06:00,63.9,62.4,29.98,WSW,246,1.5,3.0,95,0.00,,,0.00,VWS V14.01,2013-06-11 11:06:00,
2013-06-11 07:07:00,63.9,62.4,29.98,WSW,246,1.5,3.0,95,0.00,,,0.00,VWS V14.01,2013-06-11 11:07:00,
2013-06-11 07:08:00,64.0,62.5,29.98,WSW,246,3.0,3.0,95,0.00,,,0.00,VWS V14.01,2013-06-11 11:08:00,
2013-06-11 07:09:00,64.1,62.6,29.98,WSW,246,3.0,3.0,95,0.00,,,0.00,VWS V14.01,2013-06-11 11:09:00,
2013-06-11 07:10:00,64.1,62.6,29.98,WSW,246,1.5,3.0,95,0.00,,,0.00,VWS V14.01,2013-06-11 11:10:00,
2013-06-11 07:11:00,64.2,62.7,29.98,WSW,246,1.5,3.0,95,0.00,,,0.00,VWS V14.01,2013-06-11 11:11:00,
2013-06-11 07:12:00,64.2,62.7,29.98,SW,232,3.0,4.5,95,0.00,,,0.00,VWS V14.01,2013-06-11 11:12:00,
2013-06-11 07:13:00,64.3,62.8,29.98,SW,233,3.0,4.5,95,0.00,,,0.00,VWS V14.01,2013-06-11 11:13:00,
2013-06-11 07:14:00,64.4,62.9,29.98,SW,233,3.0,3.0,95,0.00,,,0.00,VWS V14.01,2013-06-11 11:14:00,
2013-06-11 07:15:00,64.4,62.6,29.98,SW,234,1.5,3.0,94,0.00,,,0.00,VWS V14.01,2013-06-11 11:15:00,
2013-06-11 07:16:00,64.5,62.7,29.98,SW,233,1.5,3.0,94,0.00,,,0.00,VWS V14.01,2013-06-11 11:16:00,
2013-06-11 07:17:00,64.6,62.8,29.98,SW,233,3.0,3.0,94,0.00,,,0.00,VWS V14.01,2013-06-11 11:17:00,
2013-06-11 07:18:00,64.6,62.8,29.98,SW,233,1.5,3.0,94,0.00,,,0.00,VWS V14.01,2013-06-11 11:18:00,
2013-06-11 07:19:00,64.7,62.9,29.98,SW,233,1.5,3.0,94,0.00,,,0.00,VWS V14.01,2013-06-11 11:19:00,
2013-06-11 07:20:00,64.7,62.9,29.98,SW,233,1.5,3.0,94,0.00,,,0.00,VWS V14.01,2013-06-11 11:20:00,
2013-06-11 07:21:00,64.8,63.0,29.98,SW,233,1.5,3.0,94,0.00,,,0.00,VWS V14.01,2013-06-11 11:21:00,
2013-06-11 07:22:00,64.9,63.1,29.99,WSW,250,3.0,3.0,94,0.00,,,0.00,VWS V14.01,2013-06-11 11:22:00,
2013-06-11 07:23:00,65.0,63.2,29.99,WSW,244,3.0,4.5,94,0.00,,,0.00,VWS V14.01,2013-06-11 11:23:00,
2013-06-11 07:24:00,65.0,63.2,29.99,WSW,255,3.0,4.5,94,0.00,,,0.00,VWS V14.01,2013-06-11 11:24:00,
2013-06-11 07:25:00,65.1,63.0,29.99,WSW,254,3.0,4.5,93,0.00,,,0.00,VWS V14.01,2013-06-11 11:25:00,
2013-06-11 07:26:00,65.2,63.1,29.99,WSW,244,3.0,4.5,93,0.00,,,0.00,VWS V14.01,2013-06-11 11:26:00,
2013-06-11 07:27:00,65.2,63.1,29.99,WSW,244,3.0,4.5,93,0.00,,,0.00,VWS V14.01,2013-06-11 11:27:00,
2013-06-11 07:28:00,65.3,63.2,29.99,WSW,248,3.0,3.0,93,0.00,,,0.00,VWS V14.01,2013-06-11 11:28:00,
2013-06-11 07:29:00,65.5,63.4,29.99,WSW,255,1.5,4.5,93,0.00,,,0.00,VWS V14.01,2013-06-11 11:29:00,
2013-06-11 07:30:00,65.5,63.4,29.99,WSW,255,1.5,4.5,93,0.00,,,0.00,VWS V14.01,2013-06-11 11:30:00,
2013-06-11 07:31:00,65.6,63.5,29.99,WSW,255,1.5,3.0,93,0.00,,,0.00,VWS V14.01,2013-06-11 11:31:00,
2013-06-11 07:32:00,65.6,63.5,29.99,WSW,255,3.0,3.0,93,0.00,,,0.00,VWS V14.01,2013-06-11 11:32:00,
2013-06-11 07:33:00,65.7,63.6,29.99,WSW,255,1.5,3.0,93,0.00,,,0.00,VWS V14.01,2013-06-11 11:33:00,
2013-06-11 07:34:00,65.9,63.5,29.99,WSW,255,1.5,3.0,92,0.00,,,0.00,VWS V14.01,2013-06-11 11:34:00,
2013-06-11 07:35:00,65.9,63.5,29.99,WSW,255,1.5,3.0,92,0.00,,,0.00,VWS V14.01,2013-06-11 11:35:00,
2013-06-11 07:36:00,66.0,63.9,29.99,WSW,255,1.5,1.5,93,0.00,,,0.00,VWS V14.01,2013-06-11 11:36:00,
2013-06-11 07:37:00,66.1,64.0,29.99,WSW,255,1.5,1.5,93,0.00,,,0.00,VWS V14.01,2013-06-11 11:37:00,
2013-06-11 07:38:00,66.2,63.8,29.99,WSW,255,3.0,3.0,92,0.00,,,0.00,VWS V14.01,2013-06-11 11:38:00,
2013-06-11 07:39:00,66.4,64.0,29.99,West,268,1.5,4.5,92,0.00,,,0.00,VWS V14.01,2013-06-11 11:39:00,
2013-06-11 07:40:00,66.4,64.0,29.99,West,268,1.5,4.5,92,0.00,,,0.00,VWS V14.01,2013-06-11 11:40:00,
2013-06-11 07:41:00,66.4,63.7,29.99,WSW,247,1.5,4.5,91,0.00,,,0.00,VWS V14.01,2013-06-11 11:41:00,
2013-06-11 07:42:00,66.6,63.9,29.99,WSW,247,1.5,3.0,91,0.00,,,0.00,VWS V14.01,2013-06-11 11:42:00,
2013-06-11 07:43:00,66.6,63.9,29.99,WSW,253,3.0,3.0,91,0.00,,,0.00,VWS V14.01,2013-06-11 11:43:00,
2013-06-11 07:44:00,66.8,64.1,29.99,WSW,257,3.0,4.5,91,0.00,,,0.00,VWS V14.01,2013-06-11 11:44:00,
2013-06-11 07:45:00,66.9,64.2,29.99,WSW,244,4.5,4.5,91,0.00,,,0.00,VWS V14.01,2013-06-11 11:45:00,
2013-06-11 07:46:00,66.9,64.2,29.99,WSW,253,4.5,6.0,91,0.00,,,0.00,VWS V14.01,2013-06-11 11:46:00,
2013-06-11 07:47:00,67.0,64.0,29.99,West,281,4.5,6.0,90,0.00,,,0.00,VWS V14.01,2013-06-11 11:47:00,
2013-06-11 07:48:00,67.1,64.1,29.99,WSW,248,3.0,4.5,90,0.00,,,0.00,VWS V14.01,2013-06-11 11:48:00,
2013-06-11 07:49:00,67.2,64.2,29.99,West,279,4.5,9.0,90,0.00,,,0.00,VWS V14.01,2013-06-11 11:49:00,
2013-06-11 07:50:00,67.2,64.2,29.99,West,279,4.5,9.0,90,0.00,,,0.00,VWS V14.01,2013-06-11 11:50:00,
2013-06-11 07:51:00,67.3,64.0,29.99,WSW,237,6.0,9.0,89,0.00,,,0.00,VWS V14.01,2013-06-11 11:51:00,
2013-06-11 07:52:00,67.3,64.0,29.99,West,278,4.5,6.0,89,0.00,,,0.00,VWS V14.01,2013-06-11 11:52:00,
2013-06-11 07:53:00,67.3,64.0,29.99,WSW,244,4.5,7.5,89,0.00,,,0.00,VWS V14.01,2013-06-11 11:53:00,
2013-06-11 07:54:00,67.4,64.1,29.99,SW,223,4.5,9.0,89,0.00,,,0.00,VWS V14.01,2013-06-11 11:54:00,
2013-06-11 07:55:00,67.4,64.1,29.99,WSW,254,4.5,9.0,89,0.00,,,0.00,VWS V14.01,2013-06-11 11:55:00,
2013-06-11 07:56:00,67.5,64.2,29.99,WSW,251,4.5,9.0,89,0.00,,,0.00,VWS V14.01,2013-06-11 11:56:00,
2013-06-11 07:57:00,67.5,64.2,29.99,West,260,3.0,7.5,89,0.00,,,0.00,VWS V14.01,2013-06-11 11:57:00,
2013-06-11 07:58:00,67.6,64.2,29.99,WNW,287,3.0,6.0,89,0.00,,,0.00,VWS V14.01,2013-06-11 11:58:00,
2013-06-11 07:59:00,67.7,64.3,29.99,West,267,4.5,7.5,89,0.00,,,0.00,VWS V14.01,2013-06-11 11:59:00,
2013-06-11 08:00:00,67.7,64.3,29.99,WNW,288,4.5,7.5,89,0.00,,,0.00,VWS V14.01,2013-06-11 12:00:00,
2013-06-11 08:01:00,67.7,64.3,30.00,West,276,6.0,6.0,89,0.00,,,0.00,VWS V14.01,2013-06-11 12:01:00,
2013-06-11 08:02:00,67.8,64.1,29.99,SW,231,3.0,6.0,88,0.00,,,0.00,VWS V14.01,2013-06-11 12:02:00,
2013-06-11 08:03:00,67.8,64.4,29.99,West,276,3.0,6.0,89,0.00,,,0.00,VWS V14.01,2013-06-11 12:03:00,
2013-06-11 08:04:00,67.9,64.2,30.00,West,265,3.0,7.5,88,0.00,,,0.00,VWS V14.01,2013-06-11 12:04:00,
2013-06-11 08:05:00,67.9,64.2,30.00,West,265,3.0,7.5,88,0.00,,,0.00,VWS V14.01,2013-06-11 12:05:00,
2013-06-11 08:06:00,68.0,64.6,30.00,West,264,1.5,6.0,89,0.00,,,0.00,VWS V14.01,2013-06-11 12:06:00,
2013-06-11 08:07:00,68.0,64.3,30.00,SW,229,4.5,7.5,88,0.00,,,0.00,VWS V14.01,2013-06-11 12:07:00,
2013-06-11 08:08:00,68.1,64.4,29.99,West,278,4.5,7.5,88,0.00,,,0.00,VWS V14.01,2013-06-11 12:08:00,
2013-06-11 08:09:00,68.2,64.5,29.99,WNW,286,3.0,6.0,88,0.00,,,0.00,VWS V14.01,2013-06-11 12:09:00,
2013-06-11 08:10:00,68.2,64.5,29.99,WNW,286,3.0,6.0,88,0.00,,,0.00,VWS V14.01,2013-06-11 12:10:00,
2013-06-11 08:11:00,68.3,64.6,29.99,WSW,258,3.0,6.0,88,0.00,,,0.00,VWS V14.01,2013-06-11 12:11:00,
2013-06-11 08:12:00,68.4,64.7,29.99,West,265,3.0,4.5,88,0.00,,,0.00,VWS V14.01,2013-06-11 12:12:00,
2013-06-11 08:13:00,68.4,64.4,30.00,West,274,4.5,4.5,87,0.00,,,0.00,VWS V14.01,2013-06-11 12:13:00,
2013-06-11 08:14:00,68.5,64.5,30.00,West,269,4.5,4.5,87,0.00,,,0.00,VWS V14.01,2013-06-11 12:14:00,
2013-06-11 08:15:00,68.5,64.5,30.00,West,269,4.5,4.5,87,0.00,,,0.00,VWS V14.01,2013-06-11 12:15:00,
2013-06-11 08:16:00,68.6,64.6,30.00,West,267,3.0,6.0,87,0.00,,,0.00,VWS V14.01,2013-06-11 12:16:00,
2013-06-11 08:17:00,68.6,64.6,30.00,WSW,250,7.5,9.0,87,0.00,,,0.00,VWS V14.01,2013-06-11 12:17:00,
2013-06-11 08:18:00,68.7,64.3,30.00,West,269,4.5,9.0,86,0.00,,,0.00,VWS V14.01,2013-06-11 12:18:00,
2013-06-11 08:19:00,68.7,64.3,29.99,West,276,3.0,7.5,86,0.00,,,0.00,VWS V14.01,2013-06-11 12:19:00,
2013-06-11 08:20:00,68.8,64.4,30.00,WNW,293,4.5,7.5,86,0.00,,,0.00,VWS V14.01,2013-06-11 12:20:00,
2013-06-11 08:21:00,68.8,64.4,30.00,SW,230,4.5,6.0,86,0.00,,,0.00,VWS V14.01,2013-06-11 12:21:00,
2013-06-11 08:22:00,68.9,64.5,29.99,West,271,7.5,7.5,86,0.00,,,0.00,VWS V14.01,2013-06-11 12:22:00,
2013-06-11 08:23:00,69.0,64.6,29.99,West,264,4.5,7.5,86,0.00,,,0.00,VWS V14.01,2013-06-11 12:23:00,
2013-06-11 08:24:00,69.1,64.7,29.99,West,261,6.0,6.0,86,0.00,,,0.00,VWS V14.01,2013-06-11 12:24:00,
2013-06-11 08:25:00,69.1,64.7,29.99,West,269,7.5,7.5,86,0.00,,,0.00,VWS V14.01,2013-06-11 12:25:00,
2013-06-11 08:26:00,69.2,64.5,30.00,WSW,253,4.5,7.5,85,0.00,,,0.00,VWS V14.01,2013-06-11 12:26:00,
2013-06-11 08:27:00,69.2,64.8,30.00,West,265,4.5,7.5,86,0.00,,,0.00,VWS V14.01,2013-06-11 12:27:00,
2013-06-11 08:28:00,69.3,64.6,29.99,WSW,248,6.0,6.0,85,0.00,,,0.00,VWS V14.01,2013-06-11 12:28:00,
2013-06-11 08:29:00,69.4,64.7,30.00,SW,231,3.0,9.0,85,0.00,,,0.00,VWS V14.01,2013-06-11 12:29:00,
2013-06-11 08:30:00,69.4,64.7,30.00,WSW,237,4.5,9.0,85,0.00,,,0.00,VWS V14.01,2013-06-11 12:30:00,
2013-06-11 08:31:00,69.4,64.7,30.00,West,264,4.5,6.0,85,0.00,,,0.00,VWS V14.01,2013-06-11 12:31:00,
2013-06-11 08:32:00,69.5,64.8,30.00,West,264,4.5,6.0,85,0.00,,,0.00,VWS V14.01,2013-06-11 12:32:00,
2013-06-11 08:33:00,69.6,65.2,30.00,NW,305,4.5,6.0,86,0.00,,,0.00,VWS V14.01,2013-06-11 12:33:00,
2013-06-11 08:34:00,69.9,65.2,30.00,WNW,299,3.0,7.5,85,0.00,,,0.00,VWS V14.01,2013-06-11 12:34:00,
2013-06-11 08:35:00,69.9,65.2,30.00,NNW,330,3.0,7.5,85,0.00,,,0.00,VWS V14.01,2013-06-11 12:35:00,
2013-06-11 08:36:00,70.1,65.4,30.00,West,265,3.0,7.5,85,0.00,,,0.00,VWS V14.01,2013-06-11 12:36:00,
2013-06-11 08:37:00,70.2,65.5,30.00,West,267,4.5,6.0,85,0.00,,,0.00,VWS V14.01,2013-06-11 12:37:00,
2013-06-11 08:38:00,70.3,65.2,30.00,West,278,4.5,7.5,84,0.00,,,0.00,VWS V14.01,2013-06-11 12:38:00,
2013-06-11 08:39:00,70.4,65.3,30.00,WNW,286,4.5,7.5,84,0.00,,,0.00,VWS V14.01,2013-06-11 12:39:00,
2013-06-11 08:40:00,70.4,65.3,30.00,WNW,285,3.0,7.5,84,0.00,,,0.00,VWS V14.01,2013-06-11 12:40:00,
2013-06-11 08:41:00,70.5,65.4,30.00,WNW,288,3.0,7.5,84,0.00,,,0.00,VWS V14.01,2013-06-11 12:41:00,
2013-06-11 08:42:00,70.6,65.2,30.00,WSW,250,4.5,7.5,83,0.00,,,0.00,VWS V14.01,2013-06-11 12:42:00,
2013-06-11 08:43:00,70.6,65.2,30.00,WSW,258,4.5,7.5,83,0.00,,,0.00,VWS V14.01,2013-06-11 12:43:00,
2013-06-11 08:44:00,70.7,65.3,30.00,WNW,299,3.0,6.0,83,0.00,,,0.00,VWS V14.01,2013-06-11 12:44:00,
2013-06-11 08:45:00,70.7,65.3,30.00,WNW,299,3.0,6.0,83,0.00,,,0.00,VWS V14.01,2013-06-11 12:45:00,
2013-06-11 08:46:00,70.8,65.4,30.00,West,261,7.5,7.5,83,0.00,,,0.00,VWS V14.01,2013-06-11 12:46:00,
2013-06-11 08:47:00,70.8,65.0,30.00,WSW,237,6.0,7.5,82,0.00,,,0.00,VWS V14.01,2013-06-11 12:47:00,
2013-06-11 08:48:00,70.8,65.0,30.00,West,260,6.0,7.5,82,0.00,,,0.00,VWS V14.01,2013-06-11 12:48:00,
2013-06-11 08:49:00,70.9,65.1,30.00,WSW,247,6.0,9.0,82,0.00,,,0.00,VWS V14.01,2013-06-11 12:49:00,
2013-06-11 08:50:00,70.9,65.1,30.00,WNW,285,6.0,9.0,82,0.00,,,0.00,VWS V14.01,2013-06-11 12:50:00,
2013-06-11 08:51:00,70.9,65.1,30.00,West,279,4.5,7.5,82,0.00,,,0.00,VWS V14.01,2013-06-11 12:51:00,
2013-06-11 08:52:00,70.9,65.1,30.00,WNW,285,6.0,7.5,82,0.00,,,0.00,VWS V14.01,2013-06-11 12:52:00,
2013-06-11 08:53:00,71.0,65.2,30.00,NW,305,6.0,7.5,82,0.00,,,0.00,VWS V14.01,2013-06-11 12:53:00,
2013-06-11 08:54:00,71.1,65.3,30.00,West,281,3.0,6.0,82,0.00,,,0.00,VWS V14.01,2013-06-11 12:54:00,
2013-06-11 08:55:00,71.1,65.3,30.00,WNW,282,1.5,4.5,82,0.00,,,0.00,VWS V14.01,2013-06-11 12:55:00,
2013-06-11 08:56:00,71.3,65.5,30.00,WNW,288,3.0,4.5,82,0.00,,,0.00,VWS V14.01,2013-06-11 12:56:00,
2013-06-11 08:57:00,71.4,65.6,30.00,WNW,293,4.5,4.5,82,0.00,,,0.00,VWS V14.01,2013-06-11 12:57:00,
2013-06-11 08:58:00,71.5,65.7,30.00,SW,234,6.0,6.0,82,0.00,,,0.00,VWS V14.01,2013-06-11 12:58:00,
2013-06-11 08:59:00,71.7,65.9,30.00,WNW,296,4.5,6.0,82,0.00,,,0.00,VWS V14.01,2013-06-11 12:59:00,
2013-06-11 09:00:00,71.7,65.9,30.00,WNW,282,4.5,6.0,82,0.00,,,0.00,VWS V14.01,2013-06-11 13:00:00,
2013-06-11 09:01:00,71.8,65.7,30.00,West,275,4.5,6.0,81,0.00,,,0.00,VWS V14.01,2013-06-11 13:01:00,
2013-06-11 09:02:00,71.8,65.7,30.00,WNW,285,4.5,7.5,81,0.00,,,0.00,VWS V14.01,2013-06-11 13:02:00,
2013-06-11 09:03:00,71.9,65.8,30.00,West,261,4.5,7.5,81,0.00,,,0.00,VWS V14.01,2013-06-11 13:03:00,
2013-06-11 09:04:00,71.9,65.8,30.00,West,271,4.5,7.5,81,0.00,,,0.00,VWS V14.01,2013-06-11 13:04:00,
2013-06-11 09:05:00,71.9,65.8,30.00,WNW,288,4.5,7.5,81,0.00,,,0.00,VWS V14.01,2013-06-11 13:05:00,
2013-06-11 09:06:00,72.0,65.5,30.00,WNW,284,4.5,6.0,80,0.00,,,0.00,VWS V14.01,2013-06-11 13:06:00,
2013-06-11 09:07:00,72.0,65.9,30.00,West,268,1.5,4.5,81,0.00,,,0.00,VWS V14.01,2013-06-11 13:07:00,
2013-06-11 09:08:00,72.2,66.1,30.00,NE,37,7.5,7.5,81,0.00,,,0.00,VWS V14.01,2013-06-11 13:08:00,
2013-06-11 09:09:00,72.3,66.2,30.00,West,269,3.0,7.5,81,0.00,,,0.00,VWS V14.01,2013-06-11 13:09:00,
2013-06-11 09:10:00,72.4,66.2,30.00,West,266,1.5,6.0,81,0.00,,,0.00,VWS V14.01,2013-06-11 13:10:00,
2013-06-11 09:11:00,72.6,66.4,30.01,West,276,1.5,4.5,81,0.00,,,0.00,VWS V14.01,2013-06-11 13:11:00,
2013-06-11 09:12:00,72.8,66.6,30.00,West,279,3.0,4.5,81,0.00,,,0.00,VWS V14.01,2013-06-11 13:12:00,
2013-06-11 09:13:00,73.0,66.8,30.00,NW,313,4.5,6.0,81,0.00,,,0.00,VWS V14.01,2013-06-11 13:13:00,
2013-06-11 09:14:00,73.1,66.2,30.00,NW,321,6.0,6.0,79,0.00,,,0.00,VWS V14.01,2013-06-11 13:14:00,
2013-06-11 09:15:00,73.1,66.2,30.00,NW,312,4.5,6.0,79,0.00,,,0.00,VWS V14.01,2013-06-11 13:15:00,
2013-06-11 09:16:00,73.2,66.3,30.00,North,350,7.5,7.5,79,0.00,,,0.00,VWS V14.01,2013-06-11 13:16:00,
2013-06-11 09:17:00,73.2,66.3,30.00,NW,310,6.0,9.0,79,0.00,,,0.00,VWS V14.01,2013-06-11 13:17:00,
2013-06-11 09:18:00,73.1,65.8,30.00,West,265,6.0,9.0,78,0.00,,,0.00,VWS V14.01,2013-06-11 13:18:00,
2013-06-11 09:19:00,73.1,66.2,30.01,WNW,298,4.5,6.0,79,0.00,,,0.00,VWS V14.01,2013-06-11 13:19:00,
2013-06-11 09:20:00,73.2,66.3,30.01,WNW,299,3.0,6.0,79,0.00,,,0.00,VWS V14.01,2013-06-11 13:20:00,
2013-06-11 09:21:00,73.3,66.8,30.01,NW,319,3.0,6.0,80,0.00,,,0.00,VWS V14.01,2013-06-11 13:21:00,
2013-06-11 09:22:00,73.5,67.0,30.01,West,266,3.0,6.0,80,0.00,,,0.00,VWS V14.01,2013-06-11 13:22:00,
2013-06-11 09:23:00,73.6,66.3,30.00,WNW,291,3.0,6.0,78,0.00,,,0.00,VWS V14.01,2013-06-11 13:23:00,
2013-06-11 09:24:00,73.8,66.5,30.00,WNW,285,4.5,7.5,78,0.00,,,0.00,VWS V14.01,2013-06-11 13:24:00,
2013-06-11 09:25:00,73.9,66.6,30.00,WNW,285,3.0,7.5,78,0.00,,,0.00,VWS V14.01,2013-06-11 13:25:00,
2013-06-11 09:26:00,74.0,66.7,30.00,WSW,237,7.5,9.0,78,0.00,,,0.00,VWS V14.01,2013-06-11 13:26:00,
2013-06-11 09:27:00,74.0,66.7,30.00,WSW,253,4.5,9.0,78,0.00,,,0.00,VWS V14.01,2013-06-11 13:27:00,
2013-06-11 09:28:00,74.1,66.4,30.00,West,279,6.0,9.0,77,0.00,,,0.00,VWS V14.01,2013-06-11 13:28:00,
2013-06-11 09:29:00,74.1,66.4,30.00,WSW,257,4.5,7.5,77,0.00,,,0.00,VWS V14.01,2013-06-11 13:29:00,
2013-06-11 09:30:00,74.1,66.4,30.00,West,266,4.5,7.5,77,0.00,,,0.00,VWS V14.01,2013-06-11 13:30:00,
2013-06-11 09:31:00,74.2,66.5,30.00,WSW,254,4.5,7.5,77,0.00,,,0.00,VWS V14.01,2013-06-11 13:31:00,
2013-06-11 09:32:00,74.2,66.2,30.00,West,274,3.0,7.5,76,0.00,,,0.00,VWS V14.01,2013-06-11 13:32:00,
2013-06-11 09:33:00,74.3,66.6,30.00,WSW,248,6.0,9.0,77,0.00,,,0.00,VWS V14.01,2013-06-11 13:33:00,
2013-06-11 09:34:00,74.3,66.2,30.00,WNW,303,1.5,9.0,76,0.00,,,0.00,VWS V14.01,2013-06-11 13:34:00,
2013-06-11 09:35:00,74.3,66.2,30.00,WNW,303,1.5,9.0,76,0.00,,,0.00,VWS V14.01,2013-06-11 13:35:00,
2013-06-11 09:36:00,74.4,66.3,30.00,NW,306,6.0,7.5,76,0.00,,,0.00,VWS V14.01,2013-06-11 13:36:00,
2013-06-11 09:37:00,74.3,66.2,29.99,WNW,293,4.5,7.5,76,0.00,,,0.00,VWS V14.01,2013-06-11 13:37:00,
2013-06-11 09:38:00,74.4,66.3,30.00,North,352,3.0,7.5,76,0.00,,,0.00,VWS V14.01,2013-06-11 13:38:00,
2013-06-11 09:39:00,74.5,66.4,30.00,West,268,1.5,4.5,76,0.00,,,0.00,VWS V14.01,2013-06-11 13:39:00,
2013-06-11 09:40:00,74.5,66.4,30.00,West,267,1.5,4.5,76,0.00,,,0.00,VWS V14.01,2013-06-11 13:40:00,
2013-06-11 09:41:00,74.7,67.0,30.00,West,268,7.5,7.5,77,0.00,,,0.00,VWS V14.01,2013-06-11 13:41:00,
2013-06-11 09:42:00,74.8,66.7,30.00,West,272,9.0,10.5,76,0.00,,,0.00,VWS V14.01,2013-06-11 13:42:00,
2013-06-11 09:43:00,74.8,66.3,30.00,WNW,285,7.5,10.5,75,0.00,,,0.00,VWS V14.01,2013-06-11 13:43:00,
2013-06-11 09:44:00,74.8,66.7,30.00,WSW,241,3.0,9.0,76,0.00,,,0.00,VWS V14.01,2013-06-11 13:44:00,
2013-06-11 09:45:00,74.8,66.7,30.00,WSW,258,3.0,7.5,76,0.00,,,0.00,VWS V14.01,2013-06-11 13:45:00,
2013-06-11 09:46:00,74.9,66.4,30.00,West,281,3.0,4.5,75,0.00,,,0.00,VWS V14.01,2013-06-11 13:46:00,
2013-06-11 09:47:00,75.0,66.9,30.00,SW,232,7.5,7.5,76,0.00,,,0.00,VWS V14.01,2013-06-11 13:47:00,
2013-06-11 09:48:00,75.1,66.6,30.00,West,272,4.5,7.5,75,0.00,,,0.00,VWS V14.01,2013-06-11 13:48:00,
2013-06-11 09:49:00,75.4,66.9,30.00,WSW,243,6.0,9.0,75,0.00,,,0.00,VWS V14.01,2013-06-11 13:49:00,
2013-06-11 09:50:00,75.4,66.5,30.00,WSW,250,9.0,9.0,74,0.00,,,0.00,VWS V14.01,2013-06-11 13:50:00,
2013-06-11 09:51:00,75.5,66.6,30.00,WSW,251,6.0,9.0,74,0.00,,,0.00,VWS V14.01,2013-06-11 13:51:00,
2013-06-11 09:52:00,75.5,67.0,30.00,West,281,4.5,7.5,75,0.00,,,0.00,VWS V14.01,2013-06-11 13:52:00,
2013-06-11 09:53:00,75.6,66.3,30.00,West,275,1.5,7.5,73,0.00,,,0.00,VWS V14.01,2013-06-11 13:53:00,
2013-06-11 09:54:00,75.7,66.4,30.00,NNE,15,4.5,4.5,73,0.00,,,0.00,VWS V14.01,2013-06-11 13:54:00,
2013-06-11 09:55:00,75.7,66.4,30.00,NNE,14,3.0,4.5,73,0.00,,,0.00,VWS V14.01,2013-06-11 13:55:00,
2013-06-11 09:56:00,75.7,66.4,30.00,North,10,1.5,4.5,73,0.00,,,0.00,VWS V14.01,2013-06-11 13:56:00,
2013-06-11 09:57:00,75.7,66.4,30.00,WNW,285,6.0,6.0,73,0.00,,,0.00,VWS V14.01,2013-06-11 13:57:00,
2013-06-11 09:58:00,75.7,66.4,30.00,NW,319,4.5,7.5,73,0.00,,,0.00,VWS V14.01,2013-06-11 13:58:00,
2013-06-11 09:59:00,75.8,66.5,30.00,WSW,240,7.5,7.5,73,0.00,,,0.00,VWS V14.01,2013-06-11 13:59:00,
2013-06-11 10:00:00,75.9,67.0,30.00,West,274,6.0,7.5,74,0.00,,,0.00,VWS V14.01,2013-06-11 14:00:00,
2013-06-11 10:01:00,76.0,67.1,30.00,WSW,252,4.5,7.5,74,0.00,,,0.00,VWS V14.01,2013-06-11 14:01:00,
2013-06-11 10:02:00,76.1,67.2,30.00,WSW,241,7.5,7.5,74,0.00,,,0.00,VWS V14.01,2013-06-11 14:02:00,
2013-06-11 10:03:00,76.1,67.2,30.00,West,266,4.5,7.5,74,0.00,,,0.00,VWS V14.01,2013-06-11 14:03:00,
2013-06-11 10:04:00,76.3,67.4,30.00,WSW,257,7.5,7.5,74,0.00,,,0.00,VWS V14.01,2013-06-11 14:04:00,
2013-06-11 10:05:00,76.3,67.4,30.00,West,267,7.5,9.0,74,0.00,,,0.00,VWS V14.01,2013-06-11 14:05:00,
2013-06-11 10:06:00,76.3,67.0,30.00,WSW,244,4.5,9.0,73,0.00,,,0.00,VWS V14.01,2013-06-11 14:06:00,
2013-06-11 10:07:00,76.4,67.5,30.00,WNW,288,3.0,7.5,74,0.00,,,0.00,VWS V14.01,2013-06-11 14:07:00,
2013-06-11 10:08:00,76.5,67.2,30.00,WNW,282,6.0,6.0,73,0.00,,,0.00,VWS V14.01,2013-06-11 14:08:00,
2013-06-11 10:09:00,76.8,67.9,30.00,WSW,258,6.0,6.0,74,0.00,,,0.00,VWS V14.01,2013-06-11 14:09:00,
2013-06-11 10:10:00,76.8,67.9,30.00,West,278,6.0,7.5,74,0.00,,,0.00,VWS V14.01,2013-06-11 14:10:00,
2013-06-11 10:11:00,76.9,67.2,30.00,NW,312,3.0,7.5,72,0.00,,,0.00,VWS V14.01,2013-06-11 14:11:00,
2013-06-11 10:12:00,77.0,67.3,30.00,West,278,3.0,6.0,72,0.00,,,0.00,VWS V14.01,2013-06-11 14:12:00,
2013-06-11 10:13:00,77.1,67.0,30.00,North,349,3.0,6.0,71,0.00,,,0.00,VWS V14.01,2013-06-11 14:13:00,
2013-06-11 10:14:00,77.1,67.0,30.00,NNE,24,4.5,4.5,71,0.00,,,0.00,VWS V14.01,2013-06-11 14:14:00,
2013-06-11 10:15:00,77.1,67.4,30.00,NNE,28,3.0,4.5,72,0.00,,,0.00,VWS V14.01,2013-06-11 14:15:00,
2013-06-11 10:16:00,77.1,67.0,30.00,North,350,4.5,4.5,71,0.00,,,0.00,VWS V14.01,2013-06-11 14:16:00,
2013-06-11 10:17:00,77.2,67.1,30.00,NNE,23,4.5,6.0,71,0.00,,,0.00,VWS V14.01,2013-06-11 14:17:00,
2013-06-11 10:18:00,77.2,67.1,30.00,NNE,30,7.5,9.0,71,0.00,,,0.00,VWS V14.01,2013-06-11 14:18:00,
2013-06-11 10:19:00,77.1,67.4,30.00,NE,47,4.5,9.0,72,0.00,,,0.00,VWS V14.01,2013-06-11 14:19:00,
2013-06-11 10:20:00,77.1,67.0,30.00,ENE,58,7.5,7.5,71,0.00,,,0.00,VWS V14.01,2013-06-11 14:20:00,
2013-06-11 10:21:00,77.1,67.4,29.99,NNW,331,4.5,7.5,72,0.00,,,0.00,VWS V14.01,2013-06-11 14:21:00,
2013-06-11 10:22:00,77.1,67.4,30.00,NNW,340,3.0,7.5,72,0.00,,,0.00,VWS V14.01,2013-06-11 14:22:00,
2013-06-11 10:23:00,77.2,67.5,30.00,SW,223,6.0,6.0,72,0.00,,,0.00,VWS V14.01,2013-06-11 14:23:00,
2013-06-11 10:24:00,77.2,67.1,30.00,West,269,6.0,9.0,71,0.00,,,0.00,VWS V14.01,2013-06-11 14:24:00,
2013-06-11 10:25:00,77.2,66.7,30.00,West,272,4.5,9.0,70,0.00,,,0.00,VWS V14.01,2013-06-11 14:25:00,
2013-06-11 10:26:00,77.2,67.1,30.00,WSW,257,6.0,6.0,71,0.00,,,0.00,VWS V14.01,2013-06-11 14:26:00,
2013-06-11 10:27:00,77.2,67.1,30.00,WNW,288,4.5,7.5,71,0.00,,,0.00,VWS V14.01,2013-06-11 14:27:00,
2013-06-11 10:28:00,77.3,67.6,30.00,NW,313,1.5,7.5,72,0.00,,,0.00,VWS V14.01,2013-06-11 14:28:00,
2013-06-11 10:29:00,77.5,67.4,29.99,SW,219,1.5,1.5,71,0.00,,,0.00,VWS V14.01,2013-06-11 14:29:00,
2013-06-11 10:30:00,77.6,67.5,29.99,SW,219,1.5,1.5,71,0.00,,,0.00,VWS V14.01,2013-06-11 14:30:00,
2013-06-11 10:31:00,77.8,67.2,29.99,WSW,240,1.5,3.0,70,0.00,,,0.00,VWS V14.01,2013-06-11 14:31:00,
2013-06-11 10:32:00,78.1,67.9,29.99,SW,216,3.0,4.5,71,0.00,,,0.00,VWS V14.01,2013-06-11 14:32:00,
2013-06-11 10:33:00,78.2,67.6,29.99,South,184,3.0,6.0,70,0.00,,,0.00,VWS V14.01,2013-06-11 14:33:00,
2013-06-11 10:34:00,78.4,67.4,29.99,WNW,284,7.5,12.0,69,0.00,,,0.00,VWS V14.01,2013-06-11 14:34:00,
2013-06-11 10:35:00,78.4,67.4,29.99,NW,305,9.0,12.0,69,0.00,,,0.00,VWS V14.01,2013-06-11 14:35:00,
2013-06-11 10:36:00,78.4,67.4,29.99,WSW,258,9.0,10.5,69,0.00,,,0.00,VWS V14.01,2013-06-11 14:36:00,
2013-06-11 10:37:00,78.3,66.4,29.99,West,274,7.5,10.5,67,0.00,,,0.00,VWS V14.01,2013-06-11 14:37:00,
2013-06-11 10:38:00,78.2,66.8,29.99,WSW,254,6.0,10.5,68,0.00,,,0.00,VWS V14.01,2013-06-11 14:38:00,
2013-06-11 10:39:00,78.1,66.3,29.99,SSW,212,3.0,6.0,67,0.00,,,0.00,VWS V14.01,2013-06-11 14:39:00,
2013-06-11 10:40:00,78.1,67.1,29.99,SSW,212,3.0,4.5,69,0.00,,,0.00,VWS V14.01,2013-06-11 14:40:00,
2013-06-11 10:41:00,78.1,67.1,29.99,West,262,4.5,7.5,69,0.00,,,0.00,VWS V14.01,2013-06-11 14:41:00,
2013-06-11 10:42:00,78.2,67.6,29.99,West,269,1.5,7.5,70,0.00,,,0.00,VWS V14.01,2013-06-11 14:42:00,
2013-06-11 10:43:00,78.3,67.7,29.99,ENE,69,1.5,4.5,70,0.00,,,0.00,VWS V14.01,2013-06-11 14:43:00,
2013-06-11 10:44:00,78.5,67.5,29.99,WNW,300,7.5,7.5,69,0.00,,,0.00,VWS V14.01,2013-06-11 14:44:00,
2013-06-11 10:45:00,78.6,66.3,29.99,NNW,327,3.0,7.5,66,0.00,,,0.00,VWS V14.01,2013-06-11 14:45:00,
2013-06-11 10:46:00,78.6,66.7,29.99,West,276,3.0,7.5,67,0.00,,,0.00,VWS V14.01,2013-06-11 14:46:00,
2013-06-11 10:47:00,78.6,66.7,29.99,NW,315,3.0,4.5,67,0.00,,,0.00,VWS V14.01,2013-06-11 14:47:00,
2013-06-11 10:48:00,78.6,66.3,29.99,NW,321,1.5,4.5,66,0.00,,,0.00,VWS V14.01,2013-06-11 14:48:00,
2013-06-11 10:49:00,78.7,67.3,29.99,WSW,244,4.5,6.0,68,0.00,,,0.00,VWS V14.01,2013-06-11 14:49:00,
2013-06-11 10:50:00,78.7,67.3,29.99,WSW,250,6.0,6.0,68,0.00,,,0.00,VWS V14.01,2013-06-11 14:50:00,
2013-06-11 10:51:00,78.7,67.7,29.99,SSW,196,3.0,6.0,69,0.00,,,0.00,VWS V14.01,2013-06-11 14:51:00,
2013-06-11 10:52:00,78.7,68.1,29.99,SSW,209,4.5,6.0,70,0.00,,,0.00,VWS V14.01,2013-06-11 14:52:00,
2013-06-11 10:53:00,78.8,67.8,29.99,West,267,3.0,4.5,69,0.00,,,0.00,VWS V14.01,2013-06-11 14:53:00,
2013-06-11 10:54:00,79.1,67.6,29.99,WSW,257,9.0,10.5,68,0.00,,,0.00,VWS V14.01,2013-06-11 14:54:00,
2013-06-11 10:55:00,79.1,67.6,29.99,WNW,285,6.0,10.5,68,0.00,,,0.00,VWS V14.01,2013-06-11 14:55:00,
2013-06-11 10:56:00,79.0,66.7,29.99,NW,319,12.0,12.0,66,0.00,,,0.00,VWS V14.01,2013-06-11 14:56:00,
2013-06-11 10:57:00,79.0,67.1,29.99,West,279,6.0,12.0,67,0.00,,,0.00,VWS V14.01,2013-06-11 14:57:00,
2013-06-11 10:58:00,79.0,67.1,29.99,WSW,250,4.5,12.0,67,0.00,,,0.00,VWS V14.01,2013-06-11 14:58:00,
2013-06-11 10:59:00,79.1,67.2,29.99,SW,215,4.5,7.5,67,0.00,,,0.00,VWS V14.01,2013-06-11 14:59:00,
2013-06-11 11:00:00,79.1,67.2,29.99,WNW,302,3.0,7.5,67,0.00,,,0.00,VWS V14.01,2013-06-11 15:00:00,
2013-06-11 11:01:00,79.2,68.2,29.99,WSW,251,1.5,6.0,69,0.00,,,0.00,VWS V14.01,2013-06-11 15:01:00,
2013-06-11 11:02:00,79.3,67.4,29.99,WNW,303,6.0,6.0,67,0.00,,,0.00,VWS V14.01,2013-06-11 15:02:00,
2013-06-11 11:03:00,79.4,67.9,29.99,West,266,6.0,6.0,68,0.00,,,0.00,VWS V14.01,2013-06-11 15:03:00,
2013-06-11 11:04:00,79.5,67.2,29.99,WSW,237,3.0,9.0,66,0.00,,,0.00,VWS V14.01,2013-06-11 15:04:00,
2013-06-11 11:05:00,79.5,67.6,29.99,SSW,205,6.0,9.0,67,0.00,,,0.00,VWS V14.01,2013-06-11 15:05:00,
2013-06-11 11:06:00,79.6,67.2,29.99,South,187,6.0,7.5,66,0.00,,,0.00,VWS V14.01,2013-06-11 15:06:00,
2013-06-11 11:07:00,79.6,67.7,29.99,West,268,7.5,9.0,67,0.00,,,0.00,VWS V14.01,2013-06-11 15:07:00,
2013-06-11 11:08:00,79.6,67.2,29.99,West,259,6.0,10.5,66,0.00,,,0.00,VWS V14.01,2013-06-11 15:08:00,
2013-06-11 11:09:00,79.5,67.2,29.99,SW,216,4.5,10.5,66,0.00,,,0.00,VWS V14.01,2013-06-11 15:09:00,
2013-06-11 11:10:00,79.4,67.1,29.99,SSW,209,3.0,10.5,66,0.00,,,0.00,VWS V14.01,2013-06-11 15:10:00,
2013-06-11 11:11:00,79.3,67.4,29.99,WNW,287,3.0,7.5,67,0.00,,,0.00,VWS V14.01,2013-06-11 15:11:00,
2013-06-11 11:12:00,79.3,67.0,29.99,ENE,59,3.0,4.5,66,0.00,,,0.00,VWS V14.01,2013-06-11 15:12:00,
2013-06-11 11:13:00,79.4,67.5,29.99,West,264,3.0,4.5,67,0.00,,,0.00,VWS V14.01,2013-06-11 15:13:00,
2013-06-11 11:14:00,79.6,68.1,29.99,SW,226,3.0,7.5,68,0.00,,,0.00,VWS V14.01,2013-06-11 15:14:00,
2013-06-11 11:15:00,79.6,68.1,29.99,WSW,252,1.5,18.0,68,0.00,,,0.00,VWS V14.01,2013-06-11 15:15:00,
2013-06-11 11:16:00,79.7,67.3,29.99,SSW,201,10.5,16.5,66,0.00,,,0.00,VWS V14.01,2013-06-11 15:16:00,
2013-06-11 11:17:00,79.8,67.9,29.99,West,279,7.5,18.0,67,0.00,,,0.00,VWS V14.01,2013-06-11 15:17:00,
2013-06-11 11:18:00,79.9,67.1,29.99,NW,318,4.5,18.0,65,0.00,,,0.00,VWS V14.01,2013-06-11 15:18:00,
2013-06-11 11:19:00,80.0,66.7,29.99,WNW,299,4.5,9.0,64,0.00,,,0.00,VWS V14.01,2013-06-11 15:19:00,
2013-06-11 11:20:00,79.9,66.6,29.99,WNW,303,7.5,7.5,64,0.00,,,0.00,VWS V14.01,2013-06-11 15:20:00,
2013-06-11 11:21:00,80.0,67.2,29.99,WNW,296,3.0,10.5,65,0.00,,,0.00,VWS V14.01,2013-06-11 15:21:00,
2013-06-11 11:22:00,80.0,66.7,29.99,WNW,303,9.0,12.0,64,0.00,,,0.00,VWS V14.01,2013-06-11 15:22:00,
2013-06-11 11:23:00,79.9,66.6,29.99,NNW,330,10.5,12.0,64,0.00,,,0.00,VWS V14.01,2013-06-11 15:23:00,
2013-06-11 11:24:00,79.8,67.4,30.00,WSW,250,4.5,13.5,66,0.00,,,0.00,VWS V14.01,2013-06-11 15:24:00,
2013-06-11 11:25:00,79.8,67.4,30.00,WNW,285,7.5,13.5,66,0.00,,,0.00,VWS V14.01,2013-06-11 15:25:00,
2013-06-11 11:26:00,79.9,67.1,30.00,NW,308,6.0,9.0,65,0.00,,,0.00,VWS V14.01,2013-06-11 15:26:00,
2013-06-11 11:27:00,80.0,67.2,29.99,West,276,4.5,9.0,65,0.00,,,0.00,VWS V14.01,2013-06-11 15:27:00,
2013-06-11 11:28:00,80.1,66.8,29.99,NW,312,3.0,7.5,64,0.00,,,0.00,VWS V14.01,2013-06-11 15:28:00,
2013-06-11 11:29:00,80.2,66.9,29.99,NNW,332,6.0,6.0,64,0.00,,,0.00,VWS V14.01,2013-06-11 15:29:00,
2013-06-11 11:30:00,80.2,66.5,29.99,NNW,337,12.0,12.0,63,0.00,,,0.00,VWS V14.01,2013-06-11 15:30:00,
2013-06-11 11:31:00,80.1,66.4,30.00,NNW,333,6.0,13.5,63,0.00,,,0.00,VWS V14.01,2013-06-11 15:31:00,
2013-06-11 11:32:00,80.1,66.8,30.00,NW,324,4.5,13.5,64,0.00,,,0.00,VWS V14.01,2013-06-11 15:32:00,
2013-06-11 11:33:00,80.0,66.3,29.99,West,265,7.5,10.5,63,0.00,,,0.00,VWS V14.01,2013-06-11 15:33:00,
2013-06-11 11:34:00,80.0,66.3,30.00,NW,319,7.5,10.5,63,0.00,,,0.00,VWS V14.01,2013-06-11 15:34:00,
2013-06-11 11:35:00,80.1,66.8,30.00,SW,230,10.5,10.5,64,0.00,,,0.00,VWS V14.01,2013-06-11 15:35:00,
2013-06-11 11:36:00,80.1,66.4,29.99,WNW,294,7.5,10.5,63,0.00,,,0.00,VWS V14.01,2013-06-11 15:36:00,
2013-06-11 11:37:00,80.2,66.9,30.00,NNE,32,4.5,7.5,64,0.00,,,0.00,VWS V14.01,2013-06-11 15:37:00,
2013-06-11 11:38:00,80.3,66.6,30.00,WNW,291,7.5,7.5,63,0.00,,,0.00,VWS V14.01,2013-06-11 15:38:00,
2013-06-11 11:39:00,80.3,66.6,30.00,West,278,9.0,15.0,63,0.00,,,0.00,VWS V14.01,2013-06-11 15:39:00,
2013-06-11 11:40:00,80.4,66.7,30.00,NW,321,7.5,15.0,63,0.00,,,0.00,VWS V14.01,2013-06-11 15:40:00,
2013-06-11 11:41:00,80.4,67.1,30.00,WSW,247,7.5,15.0,64,0.00,,,0.00,VWS V14.01,2013-06-11 15:41:00,
2013-06-11 11:42:00,80.4,67.1,30.00,West,281,9.0,10.5,64,0.00,,,0.00,VWS V14.01,2013-06-11 15:42:00,
2013-06-11 11:43:00,80.3,67.0,30.00,WSW,243,13.5,13.5,64,0.00,,,0.00,VWS V14.01,2013-06-11 15:43:00,
2013-06-11 11:44:00,80.2,66.0,30.00,West,265,10.5,13.5,62,0.00,,,0.00,VWS V14.01,2013-06-11 15:44:00,
2013-06-11 11:45:00,80.1,65.9,30.00,WNW,282,4.5,12.0,62,0.00,,,0.00,VWS V14.01,2013-06-11 15:45:00,
2013-06-11 11:46:00,80.1,66.8,30.00,NNW,333,6.0,12.0,64,0.00,,,0.00,VWS V14.01,2013-06-11 15:46:00,
2013-06-11 11:47:00,80.2,66.5,30.00,WSW,254,6.0,12.0,63,0.00,,,0.00,VWS V14.01,2013-06-11 15:47:00,
2013-06-11 11:48:00,80.3,66.6,30.00,WNW,292,4.5,10.5,63,0.00,,,0.00,VWS V14.01,2013-06-11 15:48:00,
2013-06-11 11:49:00,80.3,66.6,30.00,NW,312,4.5,10.5,63,0.00,,,0.00,VWS V14.01,2013-06-11 15:49:00,
2013-06-11 11:50:00,80.3,66.6,30.00,NW,321,9.0,9.0,63,0.00,,,0.00,VWS V14.01,2013-06-11 15:50:00,
2013-06-11 11:51:00,80.2,66.0,30.00,North,4,7.5,9.0,62,0.00,,,0.00,VWS V14.01,2013-06-11 15:51:00,
2013-06-11 11:52:00,80.2,66.9,30.00,NNW,327,4.5,12.0,64,0.00,,,0.00,VWS V14.01,2013-06-11 15:52:00,
2013-06-11 11:53:00,80.2,66.5,30.00,SW,222,6.0,12.0,63,0.00,,,0.00,VWS V14.01,2013-06-11 15:53:00,
2013-06-11 11:54:00,80.1,66.4,30.00,West,268,9.0,15.0,63,0.00,,,0.00,VWS V14.01,2013-06-11 15:54:00,
2013-06-11 11:55:00,80.1,66.4,30.00,West,264,4.5,15.0,63,0.00,,,0.00,VWS V14.01,2013-06-11 15:55:00,
2013-06-11 11:56:00,80.2,67.4,30.00,WSW,250,6.0,15.0,65,0.00,,,0.00,VWS V14.01,2013-06-11 15:56:00,
2013-06-11 11:57:00,80.3,67.0,30.00,SW,230,9.0,10.5,64,0.00,,,0.00,VWS V14.01,2013-06-11 15:57:00,
2013-06-11 11:58:00,80.4,67.1,30.00,SW,234,4.5,10.5,64,0.00,,,0.00,VWS V14.01,2013-06-11 15:58:00,
2013-06-11 11:59:00,80.5,67.2,30.00,West,269,9.0,10.5,64,0.00,,,0.00,VWS V14.01,2013-06-11 15:59:00,
2013-06-11 12:00:00,80.6,66.8,30.00,SW,223,10.5,12.0,63,0.00,,,0.00,VWS V14.01,2013-06-11 16:00:00,
2013-06-11 12:01:00,80.7,66.5,30.00,WSW,250,6.0,12.0,62,0.00,,,0.00,VWS V14.01,2013-06-11 16:01:00,
2013-06-11 12:02:00,80.7,66.5,30.00,West,268,9.0,12.0,62,0.00,,,0.00,VWS V14.01,2013-06-11 16:02:00,
2013-06-11 12:03:00,80.7,66.5,30.00,WSW,241,7.5,12.0,62,0.00,,,0.00,VWS V14.01,2013-06-11 16:03:00,
2013-06-11 12:04:00,80.7,66.9,30.00,WSW,257,7.5,13.5,63,0.00,,,0.00,VWS V14.01,2013-06-11 16:04:00,
2013-06-11 12:05:00,80.7,66.9,30.00,WSW,246,9.0,15.0,63,0.00,,,0.00,VWS V14.01,2013-06-11 16:05:00,
2013-06-11 12:06:00,80.7,66.5,30.00,SSW,212,13.5,15.0,62,0.00,,,0.00,VWS V14.01,2013-06-11 16:06:00,
2013-06-11 12:07:00,80.6,66.4,30.00,West,267,7.5,13.5,62,0.00,,,0.00,VWS V14.01,2013-06-11 16:07:00,
2013-06-11 12:08:00,80.5,66.3,30.00,West,273,4.5,13.5,62,0.00,,,0.00,VWS V14.01,2013-06-11 16:08:00,
2013-06-11 12:09:00,80.6,66.4,30.00,West,266,9.0,12.0,62,0.00,,,0.00,VWS V14.01,2013-06-11 16:09:00,
2013-06-11 12:10:00,80.7,66.9,30.00,NW,305,6.0,12.0,63,0.00,,,0.00,VWS V14.01,2013-06-11 16:10:00,
2013-06-11 12:11:00,80.9,66.7,30.00,NNW,331,6.0,10.5,62,0.00,,,0.00,VWS V14.01,2013-06-11 16:11:00,
2013-06-11 12:12:00,81.0,66.3,30.00,West,277,9.0,10.5,61,0.00,,,0.00,VWS V14.01,2013-06-11 16:12:00,
2013-06-11 12:13:00,81.1,67.3,30.00,West,269,6.0,10.5,63,0.00,,,0.00,VWS V14.01,2013-06-11 16:13:00,
2013-06-11 12:14:00,81.4,67.1,30.00,West,269,6.0,10.5,62,0.00,,,0.00,VWS V14.01,2013-06-11 16:14:00,
2013-06-11 12:15:00,81.5,66.8,30.00,WSW,258,3.0,7.5,61,0.00,,,0.00,VWS V14.01,2013-06-11 16:15:00,
2013-06-11 12:16:00,81.7,66.9,30.00,SSE,168,3.0,22.5,61,0.00,,,0.00,VWS V14.01,2013-06-11 16:16:00,
2013-06-11 12:17:00,81.8,67.1,30.01,West,260,22.5,22.5,61,0.00,,,0.00,VWS V14.01,2013-06-11 16:17:00,
2013-06-11 12:18:00,81.8,67.5,30.00,NW,319,10.5,22.5,62,0.00,,,0.00,VWS V14.01,2013-06-11 16:18:00,
2013-06-11 12:19:00,81.7,67.9,30.00,SW,223,4.5,10.5,63,0.00,,,0.00,VWS V14.01,2013-06-11 16:19:00,
2013-06-11 12:20:00,81.7,68.3,30.00,SSW,212,6.0,10.5,64,0.00,,,0.00,VWS V14.01,2013-06-11 16:20:00,
2013-06-11 12:21:00,81.7,67.4,30.00,West,268,10.5,15.0,62,0.00,,,0.00,VWS V14.01,2013-06-11 16:21:00,
2013-06-11 12:22:00,81.6,67.3,30.01,WSW,253,4.5,15.0,62,0.00,,,0.00,VWS V14.01,2013-06-11 16:22:00,
2013-06-11 12:23:00,81.6,67.3,30.01,WSW,237,7.5,10.5,62,0.00,,,0.00,VWS V14.01,2013-06-11 16:23:00,
2013-06-11 12:24:00,81.5,67.7,30.01,West,269,7.5,10.5,63,0.00,,,0.00,VWS V14.01,2013-06-11 16:24:00,
2013-06-11 12:25:00,81.6,66.9,30.01,SSW,208,7.5,10.5,61,0.00,,,0.00,VWS V14.01,2013-06-11 16:25:00,
2013-06-11 12:26:00,81.6,67.8,30.01,SW,216,15.0,15.0,63,0.00,,,0.00,VWS V14.01,2013-06-11 16:26:00,
2013-06-11 12:27:00,81.7,67.9,30.00,WSW,237,9.0,15.0,63,0.00,,,0.00,VWS V14.01,2013-06-11 16:27:00,
2013-06-11 12:28:00,81.6,67.3,30.00,SW,223,9.0,15.0,62,0.00,,,0.00,VWS V14.01,2013-06-11 16:28:00,
2013-06-11 12:29:00,81.4,67.6,30.01,West,259,7.5,15.0,63,0.00,,,0.00,VWS V14.01,2013-06-11 16:29:00,
2013-06-11 12:30:00,81.4,67.6,30.01,SW,225,12.0,13.5,63,0.00,,,0.00,VWS V14.01,2013-06-11 16:30:00,
2013-06-11 12:31:00,81.3,67.1,30.01,West,272,6.0,12.0,62,0.00,,,0.00,VWS V14.01,2013-06-11 16:31:00,
2013-06-11 12:32:00,81.2,66.5,30.01,NW,305,12.0,13.5,61,0.00,,,0.00,VWS V14.01,2013-06-11 16:32:00,
2013-06-11 12:33:00,81.0,66.3,30.01,WSW,252,6.0,13.5,61,0.00,,,0.00,VWS V14.01,2013-06-11 16:33:00,
2013-06-11 12:34:00,80.8,66.1,30.01,West,262,12.0,16.5,61,0.00,,,0.00,VWS V14.01,2013-06-11 16:34:00,
2013-06-11 12:35:00,80.7,66.0,30.01,West,272,9.0,16.5,61,0.00,,,0.00,VWS V14.01,2013-06-11 16:35:00,
2013-06-11 12:36:00,80.6,65.4,30.01,West,272,4.5,15.0,60,0.00,,,0.00,VWS V14.01,2013-06-11 16:36:00,
2013-06-11 12:37:00,80.7,66.5,30.01,West,267,9.0,9.0,62,0.00,,,0.00,VWS V14.01,2013-06-11 16:37:00,
2013-06-11 12:38:00,80.7,66.5,30.01,WSW,253,6.0,10.5,62,0.00,,,0.00,VWS V14.01,2013-06-11 16:38:00,
2013-06-11 12:39:00,80.8,66.6,30.01,West,276,4.5,9.0,62,0.00,,,0.00,VWS V14.01,2013-06-11 16:39:00,
2013-06-11 12:40:00,80.9,67.1,30.01,NW,305,3.0,7.5,63,0.00,,,0.00,VWS V14.01,2013-06-11 16:40:00,
2013-06-11 12:41:00,81.1,66.4,30.01,WSW,239,7.5,10.5,61,0.00,,,0.00,VWS V14.01,2013-06-11 16:41:00,
2013-06-11 12:42:00,81.2,66.0,30.01,West,268,6.0,15.0,60,0.00,,,0.00,VWS V14.01,2013-06-11 16:42:00,
2013-06-11 12:43:00,81.2,66.0,30.01,WNW,296,6.0,15.0,60,0.00,,,0.00,VWS V14.01,2013-06-11 16:43:00,
2013-06-11 12:44:00,81.2,66.0,30.01,WNW,286,7.5,12.0,60,0.00,,,0.00,VWS V14.01,2013-06-11 16:44:00,
2013-06-11 12:45:00,81.2,66.0,30.01,West,262,7.5,12.0,60,0.00,,,0.00,VWS V14.01,2013-06-11 16:45:00,
2013-06-11 12:46:00,81.2,65.5,30.01,West,260,6.0,10.5,59,0.00,,,0.00,VWS V14.01,2013-06-11 16:46:00,
2013-06-11 12:47:00,81.1,65.9,30.00,West,274,12.0,12.0,60,0.00,,,0.00,VWS V14.01,2013-06-11 16:47:00,
2013-06-11 12:48:00,81.0,66.3,30.00,West,262,7.5,12.0,61,0.00,,,0.00,VWS V14.01,2013-06-11 16:48:00,
2013-06-11 12:49:00,80.9,66.2,30.00,NW,313,6.0,12.0,61,0.00,,,0.00,VWS V14.01,2013-06-11 16:49:00,
2013-06-11 12:50:00,81.0,65.8,30.00,WNW,285,4.5,9.0,60,0.00,,,0.00,VWS V14.01,2013-06-11 16:50:00,
2013-06-11 12:51:00,81.0,66.3,30.00,West,267,6.0,7.5,61,0.00,,,0.00,VWS V14.01,2013-06-11 16:51:00,
2013-06-11 12:52:00,81.1,66.9,30.00,West,271,1.5,7.5,62,0.00,,,0.00,VWS V14.01,2013-06-11 16:52:00,
2013-06-11 12:53:00,81.2,67.9,30.00,NNW,337,6.0,6.0,64,0.00,,,0.00,VWS V14.01,2013-06-11 16:53:00,
2013-06-11 12:54:00,81.3,66.1,30.00,NW,321,7.5,7.5,60,0.00,,,0.00,VWS V14.01,2013-06-11 16:54:00,
2013-06-11 12:55:00,81.3,66.1,30.00,WNW,285,9.0,12.0,60,0.00,,,0.00,VWS V14.01,2013-06-11 16:55:00,
2013-06-11 12:56:00,81.4,67.1,30.00,West,279,15.0,15.0,62,0.00,,,0.00,VWS V14.01,2013-06-11 16:56:00,
2013-06-11 12:57:00,81.4,66.7,30.00,West,272,13.5,15.0,61,0.00,,,0.00,VWS V14.01,2013-06-11 16:57:00,
2013-06-11 12:58:00,81.3,67.1,30.00,West,269,12.0,13.5,62,0.00,,,0.00,VWS V14.01,2013-06-11 16:58:00,
2013-06-11 12:59:00,81.3,66.6,30.00,SW,226,7.5,13.5,61,0.00,,,0.00,VWS V14.01,2013-06-11 16:59:00,
2013-06-11 13:00:00,81.3,67.1,30.00,WSW,257,7.5,13.5,62,0.00,,,0.00,VWS V14.01,2013-06-11 17:00:00,
2013-06-11 13:01:00,81.3,66.6,30.00,WSW,250,3.0,9.0,61,0.00,,,0.00,VWS V14.01,2013-06-11 17:01:00,
2013-06-11 13:02:00,81.4,68.1,30.00,SSW,201,4.5,7.5,64,0.00,,,0.00,VWS V14.01,2013-06-11 17:02:00,
2013-06-11 13:03:00,81.5,67.7,30.00,West,271,6.0,6.0,63,0.00,,,0.00,VWS V14.01,2013-06-11 17:03:00,
2013-06-11 13:04:00,81.6,67.3,30.00,WSW,252,7.5,9.0,62,0.00,,,0.00,VWS V14.01,2013-06-11 17:04:00,
2013-06-11 13:05:00,81.6,66.9,30.00,WSW,253,3.0,9.0,61,0.00,,,0.00,VWS V14.01,2013-06-11 17:05:00,
2013-06-11 13:06:00,81.6,67.3,30.00,WNW,282,3.0,9.0,62,0.00,,,0.00,VWS V14.01,2013-06-11 17:06:00,
2013-06-11 13:07:00,81.6,67.8,30.00,WSW,246,4.5,10.5,63,0.00,,,0.00,VWS V14.01,2013-06-11 17:07:00,
2013-06-11 13:08:00,81.6,67.3,29.99,West,260,4.5,10.5,62,0.00,,,0.00,VWS V14.01,2013-06-11 17:08:00,
2013-06-11 13:09:00,81.6,67.3,29.99,WSW,248,4.5,10.5,62,0.00,,,0.00,VWS V14.01,2013-06-11 17:09:00,
2013-06-11 13:10:00,81.7,67.9,29.99,WNW,285,7.5,9.0,63,0.00,,,0.00,VWS V14.01,2013-06-11 17:10:00,
2013-06-11 13:11:00,81.8,67.5,29.99,West,265,7.5,9.0,62,0.00,,,0.00,VWS V14.01,2013-06-11 17:11:00,
2013-06-11 13:12:00,81.9,67.1,29.99,WSW,251,3.0,9.0,61,0.00,,,0.00,VWS V14.01,2013-06-11 17:12:00,
2013-06-11 13:13:00,82.0,67.7,29.99,South,179,3.0,7.5,62,0.00,,,0.00,VWS V14.01,2013-06-11 17:13:00,
2013-06-11 13:14:00,82.1,67.8,29.99,WSW,251,4.5,4.5,62,0.00,,,0.00,VWS V14.01,2013-06-11 17:14:00,
2013-06-11 13:15:00,82.1,67.3,29.99,WSW,247,4.5,9.0,61,0.00,,,0.00,VWS V14.01,2013-06-11 17:15:00,
2013-06-11 13:16:00,82.0,67.7,29.99,WSW,251,6.0,9.0,62,0.00,,,0.00,VWS V14.01,2013-06-11 17:16:00,
2013-06-11 13:17:00,81.9,66.7,29.99,SW,226,6.0,9.0,60,0.00,,,0.00,VWS V14.01,2013-06-11 17:17:00,
2013-06-11 13:18:00,81.9,67.1,29.99,WSW,239,7.5,10.5,61,0.00,,,0.00,VWS V14.01,2013-06-11 17:18:00,
2013-06-11 13:19:00,81.8,67.1,29.99,West,268,6.0,10.5,61,0.00,,,0.00,VWS V14.01,2013-06-11 17:19:00,
2013-06-11 13:20:00,81.8,67.5,29.99,WSW,252,6.0,9.0,62,0.00,,,0.00,VWS V14.01,2013-06-11 17:20:00,
2013-06-11 13:21:00,81.9,68.1,29.99,SW,229,10.5,15.0,63,0.00,,,0.00,VWS V14.01,2013-06-11 17:21:00,
2013-06-11 13:22:00,81.8,67.1,29.99,SW,229,7.5,15.0,61,0.00,,,0.00,VWS V14.01,2013-06-11 17:22:00,
2013-06-11 13:23:00,81.7,66.9,29.99,SW,219,3.0,13.5,61,0.00,,,0.00,VWS V14.01,2013-06-11 17:23:00,
2013-06-11 13:24:00,81.6,66.9,29.99,West,261,10.5,12.0,61,0.00,,,0.00,VWS V14.01,2013-06-11 17:24:00,
2013-06-11 13:25:00,81.5,67.7,29.99,WSW,250,6.0,12.0,63,0.00,,,0.00,VWS V14.01,2013-06-11 17:25:00,
2013-06-11 13:26:00,81.5,66.8,29.99,WSW,247,4.5,10.5,61,0.00,,,0.00,VWS V14.01,2013-06-11 17:26:00,
2013-06-11 13:27:00,81.6,67.8,29.99,South,189,9.0,9.0,63,0.00,,,0.00,VWS V14.01,2013-06-11 17:27:00,
2013-06-11 13:28:00,81.6,66.9,30.00,SW,215,12.0,13.5,61,0.00,,,0.00,VWS V14.01,2013-06-11 17:28:00,
2013-06-11 13:29:00,81.6,66.4,30.00,SSW,209,7.5,13.5,60,0.00,,,0.00,VWS V14.01,2013-06-11 17:29:00,
2013-06-11 13:30:00,81.6,66.4,30.00,SW,216,4.5,12.0,60,0.00,,,0.00,VWS V14.01,2013-06-11 17:30:00,
2013-06-11 13:31:00,81.7,66.0,29.99,WSW,257,6.0,9.0,59,0.00,,,0.00,VWS V14.01,2013-06-11 17:31:00,
2013-06-11 13:32:00,81.7,66.0,29.99,WSW,250,3.0,6.0,59,0.00,,,0.00,VWS V14.01,2013-06-11 17:32:00,
2013-06-11 13:33:00,81.7,66.0,29.99,WSW,255,4.5,6.0,59,0.00,,,0.00,VWS V14.01,2013-06-11 17:33:00,
2013-06-11 13:34:00,81.9,67.1,29.99,SW,233,15.0,15.0,61,0.00,,,0.00,VWS V14.01,2013-06-11 17:34:00,
2013-06-11 13:35:00,81.9,67.1,29.99,WSW,253,12.0,15.0,61,0.00,,,0.00,VWS V14.01,2013-06-11 17:35:00,
2013-06-11 13:36:00,82.0,66.8,29.99,SW,219,13.5,15.0,60,0.00,,,0.00,VWS V14.01,2013-06-11 17:36:00,
2013-06-11 13:37:00,81.9,66.7,29.99,SW,233,3.0,13.5,60,0.00,,,0.00,VWS V14.01,2013-06-11 17:37:00,
2013-06-11 13:38:00,81.9,66.7,29.99,NW,321,1.5,10.5,60,0.00,,,0.00,VWS V14.01,2013-06-11 17:38:00,
2013-06-11 13:39:00,82.1,67.8,29.99,WNW,298,9.0,9.0,62,0.00,,,0.00,VWS V14.01,2013-06-11 17:39:00,
2013-06-11 13:40:00,82.1,67.8,29.99,West,278,7.5,13.5,62,0.00,,,0.00,VWS V14.01,2013-06-11 17:40:00,
2013-06-11 13:41:00,82.2,67.9,29.99,WSW,250,15.0,15.0,62,0.00,,,0.00,VWS V14.01,2013-06-11 17:41:00,
2013-06-11 13:42:00,82.2,67.4,29.99,WNW,296,10.5,15.0,61,0.00,,,0.00,VWS V14.01,2013-06-11 17:42:00,
2013-06-11 13:43:00,82.2,68.4,29.99,WSW,246,9.0,15.0,63,0.00,,,0.00,VWS V14.01,2013-06-11 17:43:00,
2013-06-11 13:44:00,82.3,67.5,29.99,SW,232,10.5,15.0,61,0.00,,,0.00,VWS V14.01,2013-06-11 17:44:00,
2013-06-11 13:45:00,82.2,67.9,29.99,SW,226,6.0,15.0,62,0.00,,,0.00,VWS V14.01,2013-06-11 17:45:00,
2013-06-11 13:46:00,82.2,68.4,29.99,WSW,237,7.5,12.0,63,0.00,,,0.00,VWS V14.01,2013-06-11 17:46:00,
2013-06-11 13:47:00,82.3,67.5,29.99,WNW,296,4.5,9.0,61,0.00,,,0.00,VWS V14.01,2013-06-11 17:47:00,
2013-06-11 13:48:00,82.5,67.2,29.99,NNW,331,4.5,7.5,60,0.00,,,0.00,VWS V14.01,2013-06-11 17:48:00,
2013-06-11 13:49:00,82.7,67.4,29.99,WNW,298,3.0,9.0,60,0.00,,,0.00,VWS V14.01,2013-06-11 17:49:00,
2013-06-11 13:50:00,82.8,68.0,29.99,West,273,4.5,9.0,61,0.00,,,0.00,VWS V14.01,2013-06-11 17:50:00,
2013-06-11 13:51:00,82.9,68.6,29.99,SSW,213,7.5,12.0,62,0.00,,,0.00,VWS V14.01,2013-06-11 17:51:00,
2013-06-11 13:52:00,83.0,67.2,29.99,WSW,239,4.5,12.0,59,0.00,,,0.00,VWS V14.01,2013-06-11 17:52:00,
2013-06-11 13:53:00,83.0,66.7,29.99,SW,216,9.0,10.5,58,0.00,,,0.00,VWS V14.01,2013-06-11 17:53:00,
2013-06-11 13:54:00,83.0,67.7,29.99,SW,231,9.0,13.5,60,0.00,,,0.00,VWS V14.01,2013-06-11 17:54:00,
2013-06-11 13:55:00,83.1,68.7,29.99,WSW,241,16.5,16.5,62,0.00,,,0.00,VWS V14.01,2013-06-11 17:55:00,
2013-06-11 13:56:00,83.0,67.7,29.99,WSW,240,15.0,16.5,60,0.00,,,0.00,VWS V14.01,2013-06-11 17:56:00,
2013-06-11 13:57:00,82.9,66.6,29.99,WSW,251,7.5,15.0,58,0.00,,,0.00,VWS V14.01,2013-06-11 17:57:00,
2013-06-11 13:58:00,82.8,67.0,29.99,WSW,251,7.5,13.5,59,0.00,,,0.00,VWS V14.01,2013-06-11 17:58:00,
2013-06-11 13:59:00,82.8,68.0,29.99,WSW,237,10.5,10.5,61,0.00,,,0.00,VWS V14.01,2013-06-11 17:59:00,
2013-06-11 14:00:00,82.8,67.0,29.98,WSW,248,10.5,10.5,59,0.00,,,0.00,VWS V14.01,2013-06-11 18:00:00,
2013-06-11 14:01:00,82.7,67.4,29.98,West,278,9.0,13.5,60,0.00,,,0.00,VWS V14.01,2013-06-11 18:01:00,
2013-06-11 14:02:00,82.6,66.3,29.99,West,269,9.0,13.5,58,0.00,,,0.00,VWS V14.01,2013-06-11 18:02:00,
2013-06-11 14:03:00,82.5,66.2,29.99,WSW,247,12.0,12.0,58,0.00,,,0.00,VWS V14.01,2013-06-11 18:03:00,
2013-06-11 14:04:00,82.5,67.2,29.99,West,269,4.5,12.0,60,0.00,,,0.00,VWS V14.01,2013-06-11 18:04:00,
2013-06-11 14:05:00,82.5,67.2,29.99,NNW,334,10.5,12.0,60,0.00,,,0.00,VWS V14.01,2013-06-11 18:05:00,
2013-06-11 14:06:00,82.5,67.2,29.99,WSW,254,6.0,10.5,60,0.00,,,0.00,VWS V14.01,2013-06-11 18:06:00,
2013-06-11 14:07:00,82.7,67.4,29.98,WSW,241,10.5,10.5,60,0.00,,,0.00,VWS V14.01,2013-06-11 18:07:00,
2013-06-11 14:08:00,82.6,66.8,29.98,WSW,244,4.5,13.5,59,0.00,,,0.00,VWS V14.01,2013-06-11 18:08:00,
2013-06-11 14:09:00,82.6,66.8,29.98,WSW,244,4.5,13.5,59,0.00,,,0.00,VWS V14.01,2013-06-11 18:09:00,
2013-06-11 14:10:00,82.6,67.3,29.99,SW,234,7.5,12.0,60,0.00,,,0.00,VWS V14.01,2013-06-11 18:10:00,
2013-06-11 14:11:00,82.5,66.7,29.99,WNW,293,4.5,9.0,59,0.00,,,0.00,VWS V14.01,2013-06-11 18:11:00,
2013-06-11 14:12:00,82.6,67.3,29.99,SW,232,15.0,15.0,60,0.00,,,0.00,VWS V14.01,2013-06-11 18:12:00,
2013-06-11 14:13:00,82.8,68.5,29.99,WSW,246,9.0,13.5,62,0.00,,,0.00,VWS V14.01,2013-06-11 18:13:00,
2013-06-11 14:14:00,82.8,68.5,29.99,WSW,246,9.0,13.5,62,0.00,,,0.00,VWS V14.01,2013-06-11 18:14:00,
2013-06-11 14:15:00,82.8,67.5,29.99,SW,234,9.0,13.5,60,0.00,,,0.00,VWS V14.01,2013-06-11 18:15:00,
2013-06-11 14:16:00,82.8,67.5,29.99,South,182,4.5,10.5,60,0.00,,,0.00,VWS V14.01,2013-06-11 18:16:00,
2013-06-11 14:17:00,82.8,67.0,29.99,SE,146,1.5,9.0,59,0.00,,,0.00,VWS V14.01,2013-06-11 18:17:00,
2013-06-11 14:18:00,82.9,67.1,29.98,SW,224,6.0,6.0,59,0.00,,,0.00,VWS V14.01,2013-06-11 18:18:00,
2013-06-11 14:19:00,82.9,67.1,29.98,SW,224,6.0,6.0,59,0.00,,,0.00,VWS V14.01,2013-06-11 18:19:00,
2013-06-11 14:20:00,82.9,67.1,29.98,SW,234,7.5,9.0,59,0.00,,,0.00,VWS V14.01,2013-06-11 18:20:00,
2013-06-11 14:21:00,82.9,67.1,29.99,West,266,7.5,10.5,59,0.00,,,0.00,VWS V14.01,2013-06-11 18:21:00,
2013-06-11 14:22:00,82.9,67.1,29.98,SW,231,4.5,10.5,59,0.00,,,0.00,VWS V14.01,2013-06-11 18:22:00,
2013-06-11 14:23:00,82.9,68.1,29.98,SW,223,10.5,18.0,61,0.00,,,0.00,VWS V14.01,2013-06-11 18:23:00,
2013-06-11 14:24:00,82.9,68.1,29.98,SW,223,10.5,18.0,61,0.00,,,0.00,VWS V14.01,2013-06-11 18:24:00,
2013-06-11 14:25:00,82.9,68.1,29.98,SW,224,9.0,18.0,61,0.00,,,0.00,VWS V14.01,2013-06-11 18:25:00,
2013-06-11 14:26:00,82.9,68.1,29.98,WSW,237,13.5,15.0,61,0.00,,,0.00,VWS V14.01,2013-06-11 18:26:00,
2013-06-11 14:27:00,82.9,67.6,29.98,West,267,4.5,15.0,60,0.00,,,0.00,VWS V14.01,2013-06-11 18:27:00,
2013-06-11 14:28:00,83.0,67.7,29.98,West,261,6.0,12.0,60,0.00,,,0.00,VWS V14.01,2013-06-11 18:28:00,
2013-06-11 14:29:00,83.0,67.7,29.98,West,261,6.0,12.0,60,0.00,,,0.00,VWS V14.01,2013-06-11 18:29:00,
2013-06-11 14:30:00,83.1,67.3,29.98,WSW,247,4.5,10.5,59,0.00,,,0.00,VWS V14.01,2013-06-11 18:30:00,
2013-06-11 14:31:00,83.3,67.0,29.98,WNW,302,6.0,9.0,58,0.00,,,0.00,VWS V14.01,2013-06-11 18:31:00,
2013-06-11 14:32:00,83.3,67.0,29.98,West,281,9.0,9.0,58,0.00,,,0.00,VWS V14.01,2013-06-11 18:32:00,
2013-06-11 14:33:00,83.4,68.1,29.98,SSW,196,7.5,7.5,60,0.00,,,0.00,VWS V14.01,2013-06-11 18:33:00,
2013-06-11 14:34:00,83.4,68.1,29.98,SSW,196,7.5,7.5,60,0.00,,,0.00,VWS V14.01,2013-06-11 18:34:00,
2013-06-11 14:35:00,83.6,68.3,29.98,SW,234,9.0,10.5,60,0.00,,,0.00,VWS V14.01,2013-06-11 18:35:00,
2013-06-11 14:36:00,83.6,67.8,29.98,WSW,251,7.5,10.5,59,0.00,,,0.00,VWS V14.01,2013-06-11 18:36:00,
2013-06-11 14:37:00,83.6,67.3,29.98,WSW,247,1.5,12.0,58,0.00,,,0.00,VWS V14.01,2013-06-11 18:37:00,
2013-06-11 14:38:00,83.6,68.3,29.98,SW,232,7.5,9.0,60,0.00,,,0.00,VWS V14.01,2013-06-11 18:38:00,
2013-06-11 14:39:00,83.6,68.3,29.98,SW,232,7.5,9.0,60,0.00,,,0.00,VWS V14.01,2013-06-11 18:39:00,
2013-06-11 14:40:00,83.6,67.8,29.98,SW,226,9.0,10.5,59,0.00,,,0.00,VWS V14.01,2013-06-11 18:40:00,
2013-06-11 14:41:00,83.6,67.8,29.98,SW,236,7.5,10.5,59,0.00,,,0.00,VWS V14.01,2013-06-11 18:41:00,
2013-06-11 14:42:00,83.7,68.8,29.98,SW,222,12.0,12.0,61,0.00,,,0.00,VWS V14.01,2013-06-11 18:42:00,
2013-06-11 14:43:00,83.7,67.9,29.98,SW,216,4.5,13.5,59,0.00,,,0.00,VWS V14.01,2013-06-11 18:43:00,
2013-06-11 14:44:00,83.7,67.9,29.98,SW,216,4.5,13.5,59,0.00,,,0.00,VWS V14.01,2013-06-11 18:44:00,
2013-06-11 14:45:00,83.7,67.9,29.98,WSW,253,4.5,10.5,59,0.00,,,0.00,VWS V14.01,2013-06-11 18:45:00,
2013-06-11 14:46:00,83.8,68.0,29.98,West,267,9.0,9.0,59,0.00,,,0.00,VWS V14.01,2013-06-11 18:46:00,
2013-06-11 14:47:00,84.0,68.1,29.98,WSW,247,6.0,9.0,59,0.00,,,0.00,VWS V14.01,2013-06-11 18:47:00,
2013-06-11 14:48:00,84.2,68.3,29.98,West,264,13.5,13.5,59,0.00,,,0.00,VWS V14.01,2013-06-11 18:48:00,
2013-06-11 14:49:00,84.2,68.3,29.98,West,264,13.5,13.5,59,0.00,,,0.00,VWS V14.01,2013-06-11 18:49:00,
2013-06-11 14:50:00,84.2,67.8,29.98,WSW,240,12.0,13.5,58,0.00,,,0.00,VWS V14.01,2013-06-11 18:50:00,
2013-06-11 14:51:00,84.2,67.3,29.98,WSW,250,9.0,16.5,57,0.00,,,0.00,VWS V14.01,2013-06-11 18:51:00,
2013-06-11 14:52:00,84.1,66.7,29.98,SW,225,9.0,16.5,56,0.00,,,0.00,VWS V14.01,2013-06-11 18:52:00,
2013-06-11 14:53:00,83.9,67.6,29.98,WSW,248,9.0,13.5,58,0.00,,,0.00,VWS V14.01,2013-06-11 18:53:00,
2013-06-11 14:54:00,83.9,67.6,29.98,WSW,248,9.0,13.5,58,0.00,,,0.00,VWS V14.01,2013-06-11 18:54:00,
2013-06-11 14:55:00,83.9,67.1,29.98,West,261,4.5,10.5,57,0.00,,,0.00,VWS V14.01,2013-06-11 18:55:00,
2013-06-11 14:56:00,83.9,67.6,29.98,SW,220,7.5,9.0,58,0.00,,,0.00,VWS V14.01,2013-06-11 18:56:00,
2013-06-11 14:57:00,84.0,66.6,29.98,WNW,291,4.5,7.5,56,0.00,,,0.00,VWS V14.01,2013-06-11 18:57:00,
2013-06-11 14:58:00,84.1,68.2,29.98,WNW,287,7.5,12.0,59,0.00,,,0.00,VWS V14.01,2013-06-11 18:58:00,
2013-06-11 14:59:00,84.1,68.2,29.98,WNW,287,7.5,12.0,59,0.00,,,0.00,VWS V14.01,2013-06-11 18:59:00,
2013-06-11 15:00:00,84.3,68.4,29.98,West,275,10.5,13.5,59,0.00,,,0.00,VWS V14.01,2013-06-11 19:00:00,
2013-06-11 15:01:00,84.4,68.0,29.98,NNW,343,10.5,13.5,58,0.00,,,0.00,VWS V14.01,2013-06-11 19:01:00,
2013-06-11 15:02:00,84.3,67.9,29.98,WSW,257,13.5,13.5,58,0.00,,,0.00,VWS V14.01,2013-06-11 19:02:00,
2013-06-11 15:03:00,84.2,67.8,29.98,West,272,10.5,18.0,58,0.00,,,0.00,VWS V14.01,2013-06-11 19:03:00,
2013-06-11 15:04:00,84.2,67.8,29.98,West,272,10.5,18.0,58,0.00,,,0.00,VWS V14.01,2013-06-11 19:04:00,
2013-06-11 15:05:00,84.0,67.1,29.98,SW,230,9.0,18.0,57,0.00,,,0.00,VWS V14.01,2013-06-11 19:05:00,
2013-06-11 15:06:00,83.8,67.0,29.98,South,188,1.5,12.0,57,0.00,,,0.00,VWS V14.01,2013-06-11 19:06:00,
2013-06-11 15:07:00,83.8,67.0,29.98,SW,234,7.5,9.0,57,0.00,,,0.00,VWS V14.01,2013-06-11 19:07:00,
2013-06-11 15:08:00,84.0,69.1,29.98,WSW,251,4.5,7.5,61,0.00,,,0.00,VWS V14.01,2013-06-11 19:08:00,
2013-06-11 15:09:00,84.0,69.1,29.98,SW,234,4.5,7.5,61,0.00,,,0.00,VWS V14.01,2013-06-11 19:09:00,
2013-06-11 15:10:00,84.1,68.7,29.98,SW,226,9.0,9.0,60,0.00,,,0.00,VWS V14.01,2013-06-11 19:10:00,
2013-06-11 15:11:00,84.2,69.3,29.98,South,182,12.0,12.0,61,0.00,,,0.00,VWS V14.01,2013-06-11 19:11:00,
2013-06-11 15:12:00,84.1,67.7,29.98,SW,217,10.5,15.0,58,0.00,,,0.00,VWS V14.01,2013-06-11 19:12:00,
2013-06-11 15:13:00,84.1,67.7,29.97,WSW,252,7.5,12.0,58,0.00,,,0.00,VWS V14.01,2013-06-11 19:13:00,
2013-06-11 15:14:00,84.1,67.7,29.97,WSW,252,7.5,12.0,58,0.00,,,0.00,VWS V14.01,2013-06-11 19:14:00,
2013-06-11 15:15:00,84.0,68.1,29.97,WSW,257,4.5,12.0,59,0.00,,,0.00,VWS V14.01,2013-06-11 19:15:00,
2013-06-11 15:16:00,84.2,68.3,29.97,West,279,7.5,10.5,59,0.00,,,0.00,VWS V14.01,2013-06-11 19:16:00,
2013-06-11 15:17:00,84.3,67.9,29.97,WSW,248,7.5,16.5,58,0.00,,,0.00,VWS V14.01,2013-06-11 19:17:00,
2013-06-11 15:18:00,84.3,68.4,29.97,West,275,12.0,15.0,59,0.00,,,0.00,VWS V14.01,2013-06-11 19:18:00,
2013-06-11 15:19:00,84.3,68.4,29.97,WSW,239,15.0,15.0,59,0.00,,,0.00,VWS V14.01,2013-06-11 19:19:00,
2013-06-11 15:20:00,84.3,67.4,29.97,SW,220,9.0,15.0,57,0.00,,,0.00,VWS V14.01,2013-06-11 19:20:00,
2013-06-11 15:21:00,84.2,67.8,29.97,SW,233,7.5,12.0,58,0.00,,,0.00,VWS V14.01,2013-06-11 19:21:00,
2013-06-11 15:22:00,84.1,67.7,29.97,West,267,12.0,12.0,58,0.00,,,0.00,VWS V14.01,2013-06-11 19:22:00,
2013-06-11 15:23:00,84.2,68.8,29.97,WNW,288,9.0,15.0,60,0.00,,,0.00,VWS V14.01,2013-06-11 19:23:00,
2013-06-11 15:24:00,84.2,68.8,29.97,West,260,9.0,15.0,60,0.00,,,0.00,VWS V14.01,2013-06-11 19:24:00,
2013-06-11 15:25:00,84.2,67.8,29.97,WSW,241,22.5,22.5,58,0.00,,,0.00,VWS V14.01,2013-06-11 19:25:00,
2013-06-11 15:26:00,84.1,67.7,29.97,WSW,255,10.5,22.5,58,0.00,,,0.00,VWS V14.01,2013-06-11 19:26:00,
2013-06-11 15:27:00,84.0,67.1,29.97,WSW,252,13.5,21.0,57,0.00,,,0.00,VWS V14.01,2013-06-11 19:27:00,
2013-06-11 15:28:00,83.8,67.5,29.97,West,279,9.0,13.5,58,0.00,,,0.00,VWS V14.01,2013-06-11 19:28:00,
2013-06-11 15:29:00,83.8,67.5,29.97,West,277,9.0,12.0,58,0.00,,,0.00,VWS V14.01,2013-06-11 19:29:00,
2013-06-11 15:30:00,83.8,66.4,29.97,WSW,237,9.0,10.5,56,0.00,,,0.00,VWS V14.01,2013-06-11 19:30:00,
2013-06-11 15:31:00,83.8,67.0,29.97,WSW,248,9.0,10.5,57,0.00,,,0.00,VWS V14.01,2013-06-11 19:31:00,
2013-06-11 15:32:00,83.9,67.6,29.97,WSW,255,13.5,13.5,58,0.00,,,0.00,VWS V14.01,2013-06-11 19:32:00,
2013-06-11 15:33:00,83.9,67.6,29.97,SW,226,9.0,13.5,58,0.00,,,0.00,VWS V14.01,2013-06-11 19:33:00,
2013-06-11 15:34:00,83.9,67.6,29.97,West,275,6.0,13.5,58,0.00,,,0.00,VWS V14.01,2013-06-11 19:34:00,
2013-06-11 15:35:00,84.0,67.7,29.97,WNW,291,6.0,12.0,58,0.00,,,0.00,VWS V14.01,2013-06-11 19:35:00,
2013-06-11 15:36:00,83.9,67.6,29.96,WNW,298,7.5,9.0,58,0.00,,,0.00,VWS V14.01,2013-06-11 19:36:00,
2013-06-11 15:37:00,83.9,68.5,29.96,WSW,237,9.0,12.0,60,0.00,,,0.00,VWS V14.01,2013-06-11 19:37:00,
2013-06-11 15:38:00,83.8,67.5,29.96,WSW,243,6.0,13.5,58,0.00,,,0.00,VWS V14.01,2013-06-11 19:38:00,
2013-06-11 15:39:00,83.8,67.5,29.96,WSW,250,7.5,13.5,58,0.00,,,0.00,VWS V14.01,2013-06-11 19:39:00,
2013-06-11 15:40:00,83.8,67.0,29.96,SW,234,7.5,9.0,57,0.00,,,0.00,VWS V14.01,2013-06-11 19:40:00,
2013-06-11 15:41:00,83.7,67.9,29.96,SSW,208,10.5,10.5,59,0.00,,,0.00,VWS V14.01,2013-06-11 19:41:00,
2013-06-11 15:42:00,83.8,68.0,29.96,WSW,253,9.0,10.5,59,0.00,,,0.00,VWS V14.01,2013-06-11 19:42:00,
2013-06-11 15:43:00,84.0,67.7,29.96,WSW,252,13.5,13.5,58,0.00,,,0.00,VWS V14.01,2013-06-11 19:43:00,
2013-06-11 15:44:00,84.0,67.7,29.96,West,260,12.0,13.5,58,0.00,,,0.00,VWS V14.01,2013-06-11 19:44:00,
2013-06-11 15:45:00,84.1,67.7,29.96,SW,232,9.0,13.5,58,0.00,,,0.00,VWS V14.01,2013-06-11 19:45:00,
2013-06-11 15:46:00,84.0,67.1,29.96,NW,305,6.0,10.5,57,0.00,,,0.00,VWS V14.01,2013-06-11 19:46:00,
2013-06-11 15:47:00,84.0,67.1,29.96,WNW,286,9.0,10.5,57,0.00,,,0.00,VWS V14.01,2013-06-11 19:47:00,
2013-06-11 15:48:00,84.0,67.1,29.96,NNW,333,6.0,10.5,57,0.00,,,0.00,VWS V14.01,2013-06-11 19:48:00,
2013-06-11 15:49:00,84.0,67.1,29.96,NNW,330,4.5,10.5,57,0.00,,,0.00,VWS V14.01,2013-06-11 19:49:00,
2013-06-11 15:50:00,84.0,67.1,29.96,WSW,239,7.5,9.0,57,0.00,,,0.00,VWS V14.01,2013-06-11 19:50:00,
2013-06-11 15:51:00,84.1,67.7,29.96,WNW,285,7.5,7.5,58,0.00,,,0.00,VWS V14.01,2013-06-11 19:51:00,
2013-06-11 15:52:00,84.3,67.9,29.96,West,266,13.5,18.0,58,0.00,,,0.00,VWS V14.01,2013-06-11 19:52:00,
2013-06-11 15:53:00,84.4,67.5,29.96,West,265,9.0,16.5,57,0.00,,,0.00,VWS V14.01,2013-06-11 19:53:00,
2013-06-11 15:54:00,84.4,67.5,29.96,West,261,10.5,16.5,57,0.00,,,0.00,VWS V14.01,2013-06-11 19:54:00,
2013-06-11 15:55:00,84.4,68.5,29.96,West,276,12.0,16.5,59,0.00,,,0.00,VWS V14.01,2013-06-11 19:55:00,
2013-06-11 15:56:00,84.4,67.5,29.96,WSW,258,10.5,15.0,57,0.00,,,0.00,VWS V14.01,2013-06-11 19:56:00,
2013-06-11 15:57:00,84.4,67.0,29.97,WSW,257,6.0,15.0,56,0.00,,,0.00,VWS V14.01,2013-06-11 19:57:00,
2013-06-11 15:58:00,84.5,67.1,29.96,WSW,251,6.0,12.0,56,0.00,,,0.00,VWS V14.01,2013-06-11 19:58:00,
2013-06-11 15:59:00,84.5,67.1,29.96,SW,236,12.0,12.0,56,0.00,,,0.00,VWS V14.01,2013-06-11 19:59:00,
2013-06-11 16:00:00,84.5,67.6,29.96,WSW,253,13.5,15.0,57,0.00,,,0.00,VWS V14.01,2013-06-11 20:00:00,
2013-06-11 16:01:00,84.4,67.5,29.96,SW,226,10.5,15.0,57,0.00,,,0.00,VWS V14.01,2013-06-11 20:01:00,
2013-06-11 16:02:00,84.4,67.5,29.96,South,188,7.5,13.5,57,0.00,,,0.00,VWS V14.01,2013-06-11 20:02:00,
2013-06-11 16:03:00,84.5,69.1,29.96,WSW,246,7.5,13.5,60,0.00,,,0.00,VWS V14.01,2013-06-11 20:03:00,
2013-06-11 16:04:00,84.5,69.1,29.96,SW,224,9.0,12.0,60,0.00,,,0.00,VWS V14.01,2013-06-11 20:04:00,
2013-06-11 16:05:00,84.5,68.6,29.96,West,262,7.5,15.0,59,0.00,,,0.00,VWS V14.01,2013-06-11 20:05:00,
2013-06-11 16:06:00,84.6,68.7,29.96,WSW,248,7.5,15.0,59,0.00,,,0.00,VWS V14.01,2013-06-11 20:06:00,
2013-06-11 16:07:00,84.7,68.3,29.96,SW,236,12.0,12.0,58,0.00,,,0.00,VWS V14.01,2013-06-11 20:07:00,
2013-06-11 16:08:00,84.5,68.1,29.96,South,177,6.0,12.0,58,0.00,,,0.00,VWS V14.01,2013-06-11 20:08:00,
2013-06-11 16:09:00,84.5,68.1,29.96,SW,217,6.0,12.0,58,0.00,,,0.00,VWS V14.01,2013-06-11 20:09:00,
2013-06-11 16:10:00,84.5,68.1,29.96,West,265,12.0,15.0,58,0.00,,,0.00,VWS V14.01,2013-06-11 20:10:00,
2013-06-11 16:11:00,84.5,68.6,29.96,SSW,212,6.0,15.0,59,0.00,,,0.00,VWS V14.01,2013-06-11 20:11:00,
2013-06-11 16:12:00,84.5,68.1,29.96,SSE,158,3.0,12.0,58,0.00,,,0.00,VWS V14.01,2013-06-11 20:12:00,
2013-06-11 16:13:00,84.5,68.6,29.96,SSE,159,4.5,7.5,59,0.00,,,0.00,VWS V14.01,2013-06-11 20:13:00,
2013-06-11 16:14:00,84.5,68.6,29.96,WSW,250,6.0,7.5,59,0.00,,,0.00,VWS V14.01,2013-06-11 20:14:00,
2013-06-11 16:15:00,84.6,68.2,29.96,SSW,203,7.5,7.5,58,0.00,,,0.00,VWS V14.01,2013-06-11 20:15:00,
2013-06-11 16:16:00,84.7,68.3,29.96,WSW,254,10.5,10.5,58,0.00,,,0.00,VWS V14.01,2013-06-11 20:16:00,
2013-06-11 16:17:00,84.7,68.3,29.96,West,271,7.5,10.5,58,0.00,,,0.00,VWS V14.01,2013-06-11 20:17:00,
2013-06-11 16:18:00,84.8,68.9,29.96,SW,226,6.0,9.0,59,0.00,,,0.00,VWS V14.01,2013-06-11 20:18:00,
2013-06-11 16:19:00,84.8,68.9,29.96,WSW,237,6.0,7.5,59,0.00,,,0.00,VWS V14.01,2013-06-11 20:19:00,
2013-06-11 16:20:00,84.9,68.5,29.96,SW,216,3.0,7.5,58,0.00,,,0.00,VWS V14.01,2013-06-11 20:20:00,
2013-06-11 16:21:00,85.0,69.1,29.96,SW,233,12.0,12.0,59,0.00,,,0.00,VWS V14.01,2013-06-11 20:21:00,
2013-06-11 16:22:00,84.9,68.0,29.96,WSW,244,9.0,12.0,57,0.00,,,0.00,VWS V14.01,2013-06-11 20:22:00,
2013-06-11 16:23:00,84.7,68.8,29.96,SSW,195,7.5,16.5,59,0.00,,,0.00,VWS V14.01,2013-06-11 20:23:00,
2013-06-11 16:24:00,84.8,67.9,29.96,WSW,241,4.5,16.5,57,0.00,,,0.00,VWS V14.01,2013-06-11 20:24:00,
2013-06-11 16:25:00,84.7,68.3,29.96,South,185,7.5,16.5,58,0.00,,,0.00,VWS V14.01,2013-06-11 20:25:00,
2013-06-11 16:26:00,84.7,68.3,29.96,SSE,153,4.5,13.5,58,0.00,,,0.00,VWS V14.01,2013-06-11 20:26:00,
2013-06-11 16:27:00,84.7,68.3,29.96,SSW,213,4.5,10.5,58,0.00,,,0.00,VWS V14.01,2013-06-11 20:27:00,
2013-06-11 16:28:00,84.8,68.4,29.96,WSW,250,12.0,13.5,58,0.00,,,0.00,VWS V14.01,2013-06-11 20:28:00,
2013-06-11 16:29:00,84.8,68.4,29.96,West,279,12.0,13.5,58,0.00,,,0.00,VWS V14.01,2013-06-11 20:29:00,
2013-06-11 16:30:00,84.7,68.8,29.96,WSW,254,7.5,15.0,59,0.00,,,0.00,VWS V14.01,2013-06-11 20:30:00,
2013-06-11 16:31:00,84.8,67.9,29.96,SW,217,9.0,15.0,57,0.00,,,0.00,VWS V14.01,2013-06-11 20:31:00,
2013-06-11 16:32:00,84.8,68.4,29.96,West,266,7.5,12.0,58,0.00,,,0.00,VWS V14.01,2013-06-11 20:32:00,
2013-06-11 16:33:00,84.9,67.5,29.96,West,260,10.5,13.5,56,0.00,,,0.00,VWS V14.01,2013-06-11 20:33:00,
2013-06-11 16:34:00,84.8,67.4,29.96,WSW,247,12.0,13.5,56,0.00,,,0.00,VWS V14.01,2013-06-11 20:34:00,
2013-06-11 16:35:00,84.7,67.3,29.96,SW,229,15.0,15.0,56,0.00,,,0.00,VWS V14.01,2013-06-11 20:35:00,
2013-06-11 16:36:00,84.5,66.6,29.96,SSW,210,3.0,15.0,55,0.00,,,0.00,VWS V14.01,2013-06-11 20:36:00,
2013-06-11 16:37:00,84.3,66.9,29.96,SSW,198,1.5,15.0,56,0.00,,,0.00,VWS V14.01,2013-06-11 20:37:00,
2013-06-11 16:38:00,84.4,67.5,29.96,WSW,244,12.0,13.5,57,0.00,,,0.00,VWS V14.01,2013-06-11 20:38:00,
2013-06-11 16:39:00,84.4,67.5,29.96,West,259,10.5,13.5,57,0.00,,,0.00,VWS V14.01,2013-06-11 20:39:00,
2013-06-11 16:40:00,84.3,67.4,29.96,WSW,244,9.0,13.5,57,0.00,,,0.00,VWS V14.01,2013-06-11 20:40:00,
2013-06-11 16:41:00,84.3,67.9,29.96,SW,222,7.5,12.0,58,0.00,,,0.00,VWS V14.01,2013-06-11 20:41:00,
2013-06-11 16:42:00,84.3,67.9,29.96,West,261,3.0,10.5,58,0.00,,,0.00,VWS V14.01,2013-06-11 20:42:00,
2013-06-11 16:43:00,84.3,67.4,29.95,SW,224,6.0,9.0,57,0.00,,,0.00,VWS V14.01,2013-06-11 20:43:00,
2013-06-11 16:44:00,84.3,67.4,29.95,WSW,253,7.5,9.0,57,0.00,,,0.00,VWS V14.01,2013-06-11 20:44:00,
2013-06-11 16:45:00,84.3,67.9,29.95,WSW,250,13.5,16.5,58,0.00,,,0.00,VWS V14.01,2013-06-11 20:45:00,
2013-06-11 16:46:00,84.3,68.9,29.95,WSW,251,7.5,16.5,60,0.00,,,0.00,VWS V14.01,2013-06-11 20:46:00,
2013-06-11 16:47:00,84.3,67.9,29.95,West,262,7.5,15.0,58,0.00,,,0.00,VWS V14.01,2013-06-11 20:47:00,
2013-06-11 16:48:00,84.3,67.4,29.95,WSW,252,13.5,13.5,57,0.00,,,0.00,VWS V14.01,2013-06-11 20:48:00,
2013-06-11 16:49:00,84.3,66.9,29.95,WSW,258,12.0,13.5,56,0.00,,,0.00,VWS V14.01,2013-06-11 20:49:00,
2013-06-11 16:50:00,84.3,67.4,29.95,WSW,255,10.5,13.5,57,0.00,,,0.00,VWS V14.01,2013-06-11 20:50:00,
2013-06-11 16:51:00,84.3,67.9,29.95,SSW,212,9.0,19.5,58,0.00,,,0.00,VWS V14.01,2013-06-11 20:51:00,
2013-06-11 16:52:00,84.3,67.4,29.95,SW,220,10.5,19.5,57,0.00,,,0.00,VWS V14.01,2013-06-11 20:52:00,
2013-06-11 16:53:00,84.3,66.9,29.95,SW,230,10.5,12.0,56,0.00,,,0.00,VWS V14.01,2013-06-11 20:53:00,
2013-06-11 16:54:00,84.2,66.8,29.95,South,179,9.0,12.0,56,0.00,,,0.00,VWS V14.01,2013-06-11 20:54:00,
2013-06-11 16:55:00,84.3,67.9,29.95,SW,234,4.5,12.0,58,0.00,,,0.00,VWS V14.01,2013-06-11 20:55:00,
2013-06-11 16:56:00,84.4,68.5,29.95,WSW,257,4.5,10.5,59,0.00,,,0.00,VWS V14.01,2013-06-11 20:56:00,
2013-06-11 16:57:00,84.5,68.6,29.95,SW,220,9.0,9.0,59,0.00,,,0.00,VWS V14.01,2013-06-11 20:57:00,
2013-06-11 16:58:00,84.7,67.8,29.95,West,262,4.5,13.5,57,0.00,,,0.00,VWS V14.01,2013-06-11 20:58:00,
2013-06-11 16:59:00,84.7,67.8,29.95,WSW,239,7.5,13.5,57,0.00,,,0.00,VWS V14.01,2013-06-11 20:59:00,
2013-06-11 17:00:00,84.7,67.8,29.95,West,259,6.0,9.0,57,0.00,,,0.00,VWS V14.01,2013-06-11 21:00:00,
2013-06-11 17:01:00,84.7,67.3,29.95,West,269,4.5,7.5,56,0.00,,,0.00,VWS V14.01,2013-06-11 21:01:00,
2013-06-11 17:02:00,84.7,67.3,29.95,West,274,7.5,9.0,56,0.00,,,0.00,VWS V14.01,2013-06-11 21:02:00,
2013-06-11 17:03:00,84.7,67.8,29.95,West,260,9.0,13.5,57,0.00,,,0.00,VWS V14.01,2013-06-11 21:03:00,
2013-06-11 17:04:00,84.7,67.8,29.95,NW,305,6.0,13.5,57,0.00,,,0.00,VWS V14.01,2013-06-11 21:04:00,
2013-06-11 17:05:00,84.8,67.4,29.95,West,262,6.0,9.0,56,0.00,,,0.00,VWS V14.01,2013-06-11 21:05:00,
2013-06-11 17:06:00,84.8,67.4,29.95,West,281,7.5,10.5,56,0.00,,,0.00,VWS V14.01,2013-06-11 21:06:00,
2013-06-11 17:07:00,84.9,68.0,29.95,SSW,208,16.5,16.5,57,0.00,,,0.00,VWS V14.01,2013-06-11 21:07:00,
2013-06-11 17:08:00,84.9,67.5,29.95,WNW,282,3.0,16.5,56,0.00,,,0.00,VWS V14.01,2013-06-11 21:08:00,
2013-06-11 17:09:00,84.9,68.0,29.95,West,264,3.0,15.0,57,0.00,,,0.00,VWS V14.01,2013-06-11 21:09:00,
2013-06-11 17:10:00,84.9,67.5,29.95,West,275,4.5,9.0,56,0.00,,,0.00,VWS V14.01,2013-06-11 21:10:00,
2013-06-11 17:11:00,84.9,68.0,29.95,WNW,293,4.5,9.0,57,0.00,,,0.00,VWS V14.01,2013-06-11 21:11:00,
2013-06-11 17:12:00,85.1,68.2,29.95,WNW,299,7.5,9.0,57,0.00,,,0.00,VWS V14.01,2013-06-11 21:12:00,
2013-06-11 17:13:00,85.0,67.6,29.95,WSW,253,12.0,16.5,56,0.00,,,0.00,VWS V14.01,2013-06-11 21:13:00,
2013-06-11 17:14:00,85.0,67.6,29.95,SSW,213,13.5,16.5,56,0.00,,,0.00,VWS V14.01,2013-06-11 21:14:00,
2013-06-11 17:15:00,84.8,67.9,29.95,WSW,237,9.0,16.5,57,0.00,,,0.00,VWS V14.01,2013-06-11 21:15:00,
2013-06-11 17:16:00,84.7,67.3,29.95,SW,236,9.0,12.0,56,0.00,,,0.00,VWS V14.01,2013-06-11 21:16:00,
2013-06-11 17:17:00,84.6,67.7,29.95,WSW,253,12.0,13.5,57,0.00,,,0.00,VWS V14.01,2013-06-11 21:17:00,
2013-06-11 17:18:00,84.4,67.5,29.94,WSW,252,13.5,15.0,57,0.00,,,0.00,VWS V14.01,2013-06-11 21:18:00,
2013-06-11 17:19:00,84.3,67.4,29.94,WSW,252,12.0,15.0,57,0.00,,,0.00,VWS V14.01,2013-06-11 21:19:00,
2013-06-11 17:20:00,84.3,67.9,29.94,WSW,239,6.0,15.0,58,0.00,,,0.00,VWS V14.01,2013-06-11 21:20:00,
2013-06-11 17:21:00,84.3,67.9,29.94,West,274,6.0,10.5,58,0.00,,,0.00,VWS V14.01,2013-06-11 21:21:00,
2013-06-11 17:22:00,84.3,68.4,29.94,SW,225,7.5,12.0,59,0.00,,,0.00,VWS V14.01,2013-06-11 21:22:00,
2013-06-11 17:23:00,84.3,68.4,29.95,WSW,239,9.0,10.5,59,0.00,,,0.00,VWS V14.01,2013-06-11 21:23:00,
2013-06-11 17:24:00,84.3,68.4,29.95,WNW,291,9.0,10.5,59,0.00,,,0.00,VWS V14.01,2013-06-11 21:24:00,
2013-06-11 17:25:00,84.5,69.1,29.94,West,261,7.5,10.5,60,0.00,,,0.00,VWS V14.01,2013-06-11 21:25:00,
2013-06-11 17:26:00,84.5,68.6,29.94,West,266,7.5,13.5,59,0.00,,,0.00,VWS V14.01,2013-06-11 21:26:00,
2013-06-11 17:27:00,84.5,68.1,29.94,West,272,7.5,13.5,58,0.00,,,0.00,VWS V14.01,2013-06-11 21:27:00,
2013-06-11 17:28:00,84.7,68.3,29.94,WSW,248,6.0,12.0,58,0.00,,,0.00,VWS V14.01,2013-06-11 21:28:00,
2013-06-11 17:29:00,84.7,68.3,29.94,WSW,253,12.0,12.0,58,0.00,,,0.00,VWS V14.01,2013-06-11 21:29:00,
2013-06-11 17:30:00,84.7,68.8,29.94,West,261,9.0,12.0,59,0.00,,,0.00,VWS V14.01,2013-06-11 21:30:00,
2013-06-11 17:31:00,84.8,68.4,29.94,WSW,257,13.5,13.5,58,0.00,,,0.00,VWS V14.01,2013-06-11 21:31:00,
2013-06-11 17:32:00,84.9,67.5,29.94,WSW,243,12.0,13.5,56,0.00,,,0.00,VWS V14.01,2013-06-11 21:32:00,
2013-06-11 17:33:00,84.7,67.8,29.94,SW,226,9.0,15.0,57,0.00,,,0.00,VWS V14.01,2013-06-11 21:33:00,
2013-06-11 17:34:00,84.7,67.3,29.94,SW,217,13.5,15.0,56,0.00,,,0.00,VWS V14.01,2013-06-11 21:34:00,
2013-06-11 17:35:00,84.5,66.6,29.94,SW,230,10.5,13.5,55,0.00,,,0.00,VWS V14.01,2013-06-11 21:35:00,
2013-06-11 17:36:00,84.5,67.6,29.94,WNW,286,4.5,12.0,57,0.00,,,0.00,VWS V14.01,2013-06-11 21:36:00,
2013-06-11 17:37:00,84.5,68.1,29.94,WSW,253,4.5,12.0,58,0.00,,,0.00,VWS V14.01,2013-06-11 21:37:00,
2013-06-11 17:38:00,84.5,68.6,29.94,WSW,250,10.5,13.5,59,0.00,,,0.00,VWS V14.01,2013-06-11 21:38:00,
2013-06-11 17:39:00,84.5,67.6,29.94,SW,232,7.5,13.5,57,0.00,,,0.00,VWS V14.01,2013-06-11 21:39:00,
2013-06-11 17:40:00,84.5,68.1,29.94,SW,227,13.5,18.0,58,0.00,,,0.00,VWS V14.01,2013-06-11 21:40:00,
2013-06-11 17:41:00,84.5,68.1,29.94,SW,225,10.5,18.0,58,0.00,,,0.00,VWS V14.01,2013-06-11 21:41:00,
2013-06-11 17:42:00,84.4,68.0,29.94,SW,219,9.0,16.5,58,0.00,,,0.00,VWS V14.01,2013-06-11 21:42:00,
2013-06-11 17:43:00,84.2,67.3,29.94,West,264,13.5,16.5,57,0.00,,,0.00,VWS V14.01,2013-06-11 21:43:00,
2013-06-11 17:44:00,84.2,67.3,29.94,SW,234,12.0,16.5,57,0.00,,,0.00,VWS V14.01,2013-06-11 21:44:00,
2013-06-11 17:45:00,84.1,67.7,29.94,SSW,201,6.0,16.5,58,0.00,,,0.00,VWS V14.01,2013-06-11 21:45:00,
2013-06-11 17:46:00,84.2,68.3,29.94,SW,227,3.0,10.5,59,0.00,,,0.00,VWS V14.01,2013-06-11 21:46:00,
2013-06-11 17:47:00,84.3,68.4,29.95,SW,236,4.5,10.5,59,0.00,,,0.00,VWS V14.01,2013-06-11 21:47:00,
2013-06-11 17:48:00,84.4,68.0,29.94,SSW,194,4.5,9.0,58,0.00,,,0.00,VWS V14.01,2013-06-11 21:48:00,
2013-06-11 17:49:00,84.5,68.1,29.94,West,260,6.0,9.0,58,0.00,,,0.00,VWS V14.01,2013-06-11 21:49:00,
2013-06-11 17:50:00,84.6,68.2,29.94,SW,230,4.5,7.5,58,0.00,,,0.00,VWS V14.01,2013-06-11 21:50:00,
2013-06-11 17:51:00,84.6,68.2,29.94,West,271,6.0,7.5,58,0.00,,,0.00,VWS V14.01,2013-06-11 21:51:00,
2013-06-11 17:52:00,84.7,68.3,29.95,WSW,241,6.0,9.0,58,0.00,,,0.00,VWS V14.01,2013-06-11 21:52:00,
2013-06-11 17:53:00,84.9,69.0,29.95,WSW,252,9.0,10.5,59,0.00,,,0.00,VWS V14.01,2013-06-11 21:53:00,
2013-06-11 17:54:00,85.0,69.1,29.95,SSW,192,10.5,10.5,59,0.00,,,0.00,VWS V14.01,2013-06-11 21:54:00,
2013-06-11 17:55:00,84.9,68.5,29.95,West,261,7.5,10.5,58,0.00,,,0.00,VWS V14.01,2013-06-11 21:55:00,
2013-06-11 17:56:00,85.0,68.6,29.95,WNW,288,4.5,10.5,58,0.00,,,0.00,VWS V14.01,2013-06-11 21:56:00,
2013-06-11 17:57:00,84.9,68.5,29.95,WSW,257,7.5,12.0,58,0.00,,,0.00,VWS V14.01,2013-06-11 21:57:00,
2013-06-11 17:58:00,84.9,68.0,29.95,WSW,254,6.0,15.0,57,0.00,,,0.00,VWS V14.01,2013-06-11 21:58:00,
2013-06-11 17:59:00,84.8,68.4,29.95,SSW,206,9.0,15.0,58,0.00,,,0.00,VWS V14.01,2013-06-11 21:59:00,
2013-06-11 18:00:00,84.9,69.0,29.95,WSW,240,7.5,13.5,59,0.00,,,0.00,VWS V14.01,2013-06-11 22:00:00,
2013-06-11 18:01:00,84.8,67.9,29.94,WSW,237,6.0,10.5,57,0.00,,,0.00,VWS V14.01,2013-06-11 22:01:00,
2013-06-11 18:02:00,84.9,68.5,29.94,SW,231,6.0,13.5,58,0.00,,,0.00,VWS V14.01,2013-06-11 22:02:00,
2013-06-11 18:03:00,84.8,68.9,29.94,South,177,6.0,13.5,59,0.00,,,0.00,VWS V14.01,2013-06-11 22:03:00,
2013-06-11 18:04:00,84.8,67.9,29.94,SSW,208,6.0,13.5,57,0.00,,,0.00,VWS V14.01,2013-06-11 22:04:00,
2013-06-11 18:05:00,84.9,68.5,29.94,SW,234,12.0,13.5,58,0.00,,,0.00,VWS V14.01,2013-06-11 22:05:00,
2013-06-11 18:06:00,84.9,68.0,29.94,West,269,7.5,12.0,57,0.00,,,0.00,VWS V14.01,2013-06-11 22:06:00,
2013-06-11 18:07:00,84.8,67.9,29.94,WSW,255,7.5,12.0,57,0.00,,,0.00,VWS V14.01,2013-06-11 22:07:00,
2013-06-11 18:08:00,84.8,67.9,29.94,WSW,240,13.5,13.5,57,0.00,,,0.00,VWS V14.01,2013-06-11 22:08:00,
2013-06-11 18:09:00,84.7,67.8,29.94,SW,219,16.5,16.5,57,0.00,,,0.00,VWS V14.01,2013-06-11 22:09:00,
2013-06-11 18:10:00,84.6,68.2,29.95,SSW,209,9.0,16.5,58,0.00,,,0.00,VWS V14.01,2013-06-11 22:10:00,
2013-06-11 18:11:00,84.5,67.6,29.94,SW,229,15.0,15.0,57,0.00,,,0.00,VWS V14.01,2013-06-11 22:11:00,
2013-06-11 18:12:00,84.5,67.6,29.94,SW,228,12.0,15.0,57,0.00,,,0.00,VWS V14.01,2013-06-11 22:12:00,
2013-06-11 18:13:00,84.4,68.0,29.94,West,260,6.0,13.5,58,0.00,,,0.00,VWS V14.01,2013-06-11 22:13:00,
2013-06-11 18:14:00,84.4,68.0,29.94,SSW,202,10.5,13.5,58,0.00,,,0.00,VWS V14.01,2013-06-11 22:14:00,
2013-06-11 18:15:00,84.4,68.5,29.94,SW,216,10.5,12.0,59,0.00,,,0.00,VWS V14.01,2013-06-11 22:15:00,
2013-06-11 18:16:00,84.5,68.6,29.94,SW,223,6.0,13.5,59,0.00,,,0.00,VWS V14.01,2013-06-11 22:16:00,
2013-06-11 18:17:00,84.5,68.6,29.94,SSW,204,9.0,13.5,59,0.00,,,0.00,VWS V14.01,2013-06-11 22:17:00,
2013-06-11 18:18:00,84.5,68.6,29.94,SW,234,12.0,12.0,59,0.00,,,0.00,VWS V14.01,2013-06-11 22:18:00,
2013-06-11 18:19:00,84.5,68.6,29.94,WSW,252,9.0,12.0,59,0.00,,,0.00,VWS V14.01,2013-06-11 22:19:00,
2013-06-11 18:20:00,84.4,68.0,29.94,SW,219,7.5,16.5,58,0.00,,,0.00,VWS V14.01,2013-06-11 22:20:00,
2013-06-11 18:21:00,84.3,68.9,29.94,WSW,241,4.5,16.5,60,0.00,,,0.00,VWS V14.01,2013-06-11 22:21:00,
2013-06-11 18:22:00,84.3,68.9,29.94,WSW,247,4.5,12.0,60,0.00,,,0.00,VWS V14.01,2013-06-11 22:22:00,
2013-06-11 18:23:00,84.3,68.9,29.93,WSW,250,4.5,12.0,60,0.00,,,0.00,VWS V14.01,2013-06-11 22:23:00,
2013-06-11 18:24:00,84.3,68.9,29.93,WSW,247,7.5,10.5,60,0.00,,,0.00,VWS V14.01,2013-06-11 22:24:00,
2013-06-11 18:25:00,84.3,68.9,29.93,SSW,209,6.0,10.5,60,0.00,,,0.00,VWS V14.01,2013-06-11 22:25:00,
2013-06-11 18:26:00,84.3,68.9,29.93,West,264,9.0,12.0,60,0.00,,,0.00,VWS V14.01,2013-06-11 22:26:00,
2013-06-11 18:27:00,84.3,68.4,29.94,WSW,241,10.5,15.0,59,0.00,,,0.00,VWS V14.01,2013-06-11 22:27:00,
2013-06-11 18:28:00,84.2,68.3,29.94,SW,234,6.0,15.0,59,0.00,,,0.00,VWS V14.01,2013-06-11 22:28:00,
2013-06-11 18:29:00,84.1,68.7,29.94,SW,232,9.0,15.0,60,0.00,,,0.00,VWS V14.01,2013-06-11 22:29:00,
2013-06-11 18:30:00,84.1,69.2,29.94,WSW,253,12.0,12.0,61,0.00,,,0.00,VWS V14.01,2013-06-11 22:30:00,
2013-06-11 18:31:00,84.0,68.1,29.94,SW,219,7.5,13.5,59,0.00,,,0.00,VWS V14.01,2013-06-11 22:31:00,
2013-06-11 18:32:00,84.0,68.6,29.94,SW,229,7.5,13.5,60,0.00,,,0.00,VWS V14.01,2013-06-11 22:32:00,
2013-06-11 18:33:00,83.9,68.5,29.94,SW,231,7.5,12.0,60,0.00,,,0.00,VWS V14.01,2013-06-11 22:33:00,
2013-06-11 18:34:00,83.8,68.4,29.94,WSW,240,12.0,12.0,60,0.00,,,0.00,VWS V14.01,2013-06-11 22:34:00,
2013-06-11 18:35:00,83.8,68.4,29.94,WSW,248,7.5,13.5,60,0.00,,,0.00,VWS V14.01,2013-06-11 22:35:00,
2013-06-11 18:36:00,83.7,68.8,29.94,WSW,241,6.0,13.5,61,0.00,,,0.00,VWS V14.01,2013-06-11 22:36:00,
2013-06-11 18:37:00,83.8,69.4,29.94,SSW,212,7.5,12.0,62,0.00,,,0.00,VWS V14.01,2013-06-11 22:37:00,
2013-06-11 18:38:00,83.7,68.3,29.94,WSW,251,6.0,12.0,60,0.00,,,0.00,VWS V14.01,2013-06-11 22:38:00,
2013-06-11 18:39:00,83.8,68.4,29.94,SW,234,12.0,12.0,60,0.00,,,0.00,VWS V14.01,2013-06-11 22:39:00,
2013-06-11 18:40:00,83.7,68.8,29.94,WSW,250,13.5,18.0,61,0.00,,,0.00,VWS V14.01,2013-06-11 22:40:00,
2013-06-11 18:41:00,83.6,68.7,29.94,West,271,6.0,18.0,61,0.00,,,0.00,VWS V14.01,2013-06-11 22:41:00,
2013-06-11 18:42:00,83.5,68.7,29.94,WSW,248,10.5,13.5,61,0.00,,,0.00,VWS V14.01,2013-06-11 22:42:00,
2013-06-11 18:43:00,83.4,68.6,29.94,SW,217,4.5,12.0,61,0.00,,,0.00,VWS V14.01,2013-06-11 22:43:00,
2013-06-11 18:44:00,83.4,69.0,29.94,WSW,255,6.0,10.5,62,0.00,,,0.00,VWS V14.01,2013-06-11 22:44:00,
2013-06-11 18:45:00,83.4,69.0,29.95,WSW,257,7.5,9.0,62,0.00,,,0.00,VWS V14.01,2013-06-11 22:45:00,
2013-06-11 18:46:00,83.4,69.0,29.95,WSW,240,7.5,9.0,62,0.00,,,0.00,VWS V14.01,2013-06-11 22:46:00,
2013-06-11 18:47:00,83.4,69.0,29.95,West,281,7.5,10.5,62,0.00,,,0.00,VWS V14.01,2013-06-11 22:47:00,
2013-06-11 18:48:00,83.4,69.0,29.95,SW,232,9.0,10.5,62,0.00,,,0.00,VWS V14.01,2013-06-11 22:48:00,
2013-06-11 18:49:00,83.4,69.0,29.95,WSW,251,10.5,10.5,62,0.00,,,0.00,VWS V14.01,2013-06-11 22:49:00,
2013-06-11 18:50:00,83.3,68.9,29.95,SW,227,6.0,10.5,62,0.00,,,0.00,VWS V14.01,2013-06-11 22:50:00,
2013-06-11 18:51:00,83.2,69.3,29.95,WSW,248,10.5,15.0,63,0.00,,,0.00,VWS V14.01,2013-06-11 22:51:00,
2013-06-11 18:52:00,83.1,68.7,29.95,WSW,251,10.5,15.0,62,0.00,,,0.00,VWS V14.01,2013-06-11 22:52:00,
2013-06-11 18:53:00,83.0,68.7,29.95,West,265,10.5,13.5,62,0.00,,,0.00,VWS V14.01,2013-06-11 22:53:00,
2013-06-11 18:54:00,82.9,68.1,29.95,WSW,240,9.0,13.5,61,0.00,,,0.00,VWS V14.01,2013-06-11 22:54:00,
2013-06-11 18:55:00,82.9,68.1,29.95,West,269,7.5,13.5,61,0.00,,,0.00,VWS V14.01,2013-06-11 22:55:00,
2013-06-11 18:56:00,82.8,68.5,29.95,WSW,251,7.5,10.5,62,0.00,,,0.00,VWS V14.01,2013-06-11 22:56:00,
2013-06-11 18:57:00,82.8,68.0,29.95,WSW,258,6.0,10.5,61,0.00,,,0.00,VWS V14.01,2013-06-11 22:57:00,
2013-06-11 18:58:00,82.7,67.9,29.96,West,267,7.5,10.5,61,0.00,,,0.00,VWS V14.01,2013-06-11 22:58:00,
2013-06-11 18:59:00,82.7,67.9,29.96,WSW,248,13.5,15.0,61,0.00,,,0.00,VWS V14.01,2013-06-11 22:59:00,
2013-06-11 19:00:00,82.7,67.9,29.96,West,272,6.0,15.0,61,0.00,,,0.00,VWS V14.01,2013-06-11 23:00:00,
2013-06-11 19:01:00,82.7,67.9,29.95,WNW,291,9.0,13.5,61,0.00,,,0.00,VWS V14.01,2013-06-11 23:01:00,
2013-06-11 19:02:00,82.7,67.9,29.95,WSW,241,3.0,10.5,61,0.00,,,0.00,VWS V14.01,2013-06-11 23:02:00,
2013-06-11 19:03:00,82.8,68.0,29.95,SW,226,10.5,12.0,61,0.00,,,0.00,VWS V14.01,2013-06-11 23:03:00,
2013-06-11 19:04:00,82.8,68.0,29.95,WSW,257,10.5,13.5,61,0.00,,,0.00,VWS V14.01,2013-06-11 23:04:00,
2013-06-11 19:05:00,82.8,68.0,29.95,WSW,252,10.5,13.5,61,0.00,,,0.00,VWS V14.01,2013-06-11 23:05:00,
2013-06-11 19:06:00,82.8,68.0,29.95,WNW,282,10.5,12.0,61,0.00,,,0.00,VWS V14.01,2013-06-11 23:06:00,
2013-06-11 19:07:00,82.8,68.5,29.95,West,279,9.0,10.5,62,0.00,,,0.00,VWS V14.01,2013-06-11 23:07:00,
2013-06-11 19:08:00,82.9,68.1,29.96,WSW,251,7.5,12.0,61,0.00,,,0.00,VWS V14.01,2013-06-11 23:08:00,
2013-06-11 19:09:00,82.9,68.6,29.96,WSW,241,7.5,12.0,62,0.00,,,0.00,VWS V14.01,2013-06-11 23:09:00,
2013-06-11 19:10:00,82.9,68.1,29.96,West,260,6.0,10.5,61,0.00,,,0.00,VWS V14.01,2013-06-11 23:10:00,
2013-06-11 19:11:00,82.9,68.1,29.96,WNW,295,7.5,10.5,61,0.00,,,0.00,VWS V14.01,2013-06-11 23:11:00,
2013-06-11 19:12:00,82.9,68.6,29.96,WNW,292,6.0,10.5,62,0.00,,,0.00,VWS V14.01,2013-06-11 23:12:00,
2013-06-11 19:13:00,83.0,68.7,29.96,WSW,258,6.0,10.5,62,0.00,,,0.00,VWS V14.01,2013-06-11 23:13:00,
2013-06-11 19:14:00,83.0,68.2,29.96,WSW,254,9.0,10.5,61,0.00,,,0.00,VWS V14.01,2013-06-11 23:14:00,
2013-06-11 19:15:00,82.9,68.6,29.96,West,260,10.5,13.5,62,0.00,,,0.00,VWS V14.01,2013-06-11 23:15:00,
2013-06-11 19:16:00,82.9,68.1,29.96,SW,216,9.0,13.5,61,0.00,,,0.00,VWS V14.01,2013-06-11 23:16:00,
2013-06-11 19:17:00,82.9,68.6,29.95,West,267,9.0,13.5,62,0.00,,,0.00,VWS V14.01,2013-06-11 23:17:00,
2013-06-11 19:18:00,82.9,68.1,29.95,SW,222,6.0,13.5,61,0.00,,,0.00,VWS V14.01,2013-06-11 23:18:00,
2013-06-11 19:19:00,82.9,68.6,29.95,SW,225,6.0,13.5,62,0.00,,,0.00,VWS V14.01,2013-06-11 23:19:00,
2013-06-11 19:20:00,82.9,68.6,29.95,West,261,7.5,10.5,62,0.00,,,0.00,VWS V14.01,2013-06-11 23:20:00,
2013-06-11 19:21:00,82.9,68.6,29.95,SW,233,6.0,10.5,62,0.00,,,0.00,VWS V14.01,2013-06-11 23:21:00,
2013-06-11 19:22:00,82.9,68.6,29.95,WSW,250,3.0,7.5,62,0.00,,,0.00,VWS V14.01,2013-06-11 23:22:00,
2013-06-11 19:23:00,82.9,68.6,29.95,WSW,241,6.0,10.5,62,0.00,,,0.00,VWS V14.01,2013-06-11 23:23:00,
2013-06-11 19:24:00,82.9,68.6,29.95,SW,230,7.5,10.5,62,0.00,,,0.00,VWS V14.01,2013-06-11 23:24:00,
2013-06-11 19:25:00,82.9,68.6,29.95,WSW,254,10.5,10.5,62,0.00,,,0.00,VWS V14.01,2013-06-11 23:25:00,
2013-06-11 19:26:00,82.8,68.5,29.95,West,269,10.5,10.5,62,0.00,,,0.00,VWS V14.01,2013-06-11 23:26:00,
2013-06-11 19:27:00,82.8,68.5,29.95,West,264,6.0,12.0,62,0.00,,,0.00,VWS V14.01,2013-06-11 23:27:00,
2013-06-11 19:28:00,82.7,68.4,29.95,SW,236,6.0,12.0,62,0.00,,,0.00,VWS V14.01,2013-06-11 23:28:00,
2013-06-11 19:29:00,82.7,68.4,29.95,West,259,4.5,10.5,62,0.00,,,0.00,VWS V14.01,2013-06-11 23:29:00,
2013-06-11 19:30:00,82.7,68.8,29.95,West,266,4.5,9.0,63,0.00,,,0.00,VWS V14.01,2013-06-11 23:30:00,
2013-06-11 19:31:00,82.7,68.8,29.95,West,259,4.5,6.0,63,0.00,,,0.00,VWS V14.01,2013-06-11 23:31:00,
2013-06-11 19:32:00,82.8,69.4,29.94,WSW,250,3.0,6.0,64,0.00,,,0.00,VWS V14.01,2013-06-11 23:32:00,
2013-06-11 19:33:00,82.9,69.0,29.94,SW,230,7.5,7.5,63,0.00,,,0.00,VWS V14.01,2013-06-11 23:33:00,
2013-06-11 19:34:00,82.9,69.0,29.94,SW,232,6.0,10.5,63,0.00,,,0.00,VWS V14.01,2013-06-11 23:34:00,
2013-06-11 19:35:00,83.0,69.1,29.94,WSW,242,3.0,10.5,63,0.00,,,0.00,VWS V14.01,2013-06-11 23:35:00,
2013-06-11 19:36:00,83.1,69.7,29.94,SW,229,3.0,6.0,64,0.00,,,0.00,VWS V14.01,2013-06-11 23:36:00,
2013-06-11 19:37:00,83.2,69.3,29.94,SW,229,3.0,7.5,63,0.00,,,0.00,VWS V14.01,2013-06-11 23:37:00,
2013-06-11 19:38:00,83.2,69.3,29.94,WSW,246,3.0,7.5,63,0.00,,,0.00,VWS V14.01,2013-06-11 23:38:00,
2013-06-11 19:39:00,83.2,69.3,29.94,SW,217,3.0,4.5,63,0.00,,,0.00,VWS V14.01,2013-06-11 23:39:00,
2013-06-11 19:40:00,83.2,68.8,29.94,SW,225,7.5,9.0,62,0.00,,,0.00,VWS V14.01,2013-06-11 23:40:00,
2013-06-11 19:41:00,83.1,69.2,29.94,SW,224,4.5,9.0,63,0.00,,,0.00,VWS V14.01,2013-06-11 23:41:00,
2013-06-11 19:42:00,83.1,69.2,29.94,SW,234,4.5,7.5,63,0.00,,,0.00,VWS V14.01,2013-06-11 23:42:00,
2013-06-11 19:43:00,83.1,69.2,29.94,SSE,165,6.0,7.5,63,0.00,,,0.00,VWS V14.01,2013-06-11 23:43:00,
2013-06-11 19:44:00,83.1,69.2,29.94,SW,225,3.0,6.0,63,0.00,,,0.00,VWS V14.01,2013-06-11 23:44:00,
2013-06-11 19:45:00,83.1,69.2,29.94,ESE,123,3.0,7.5,63,0.00,,,0.00,VWS V14.01,2013-06-11 23:45:00,
2013-06-11 19:46:00,83.1,69.2,29.93,SE,133,3.0,10.5,63,0.00,,,0.00,VWS V14.01,2013-06-11 23:46:00,
2013-06-11 19:47:00,83.2,69.3,29.93,SW,229,10.5,10.5,63,0.00,,,0.00,VWS V14.01,2013-06-11 23:47:00,
2013-06-11 19:48:00,83.2,68.8,29.93,SE,138,7.5,10.5,62,0.00,,,0.00,VWS V14.01,2013-06-11 23:48:00,
2013-06-11 19:49:00,83.1,68.7,29.93,WSW,239,7.5,9.0,62,0.00,,,0.00,VWS V14.01,2013-06-11 23:49:00,
2013-06-11 19:50:00,83.1,69.2,29.93,South,188,4.5,7.5,63,0.00,,,0.00,VWS V14.01,2013-06-11 23:50:00,
2013-06-11 19:51:00,83.1,69.2,29.93,WSW,244,4.5,7.5,63,0.00,,,0.00,VWS V14.01,2013-06-11 23:51:00,
2013-06-11 19:52:00,83.1,69.2,29.93,SSW,194,3.0,6.0,63,0.00,,,0.00,VWS V14.01,2013-06-11 23:52:00,
2013-06-11 19:53:00,83.2,69.8,29.94,West,269,4.5,7.5,64,0.00,,,0.00,VWS V14.01,2013-06-11 23:53:00,
2013-06-11 19:54:00,83.2,69.3,29.94,SSW,213,6.0,7.5,63,0.00,,,0.00,VWS V14.01,2013-06-11 23:54:00,
2013-06-11 19:55:00,83.2,69.3,29.93,WSW,239,7.5,7.5,63,0.00,,,0.00,VWS V14.01,2013-06-11 23:55:00,
2013-06-11 19:56:00,83.1,68.7,29.94,WSW,237,4.5,7.5,62,0.00,,,0.00,VWS V14.01,2013-06-11 23:56:00,
2013-06-11 19:57:00,83.1,69.2,29.94,WSW,237,4.5,6.0,63,0.00,,,0.00,VWS V14.01,2013-06-11 23:57:00,
2013-06-11 19:58:00,83.1,69.2,29.94,WSW,247,4.5,6.0,63,0.00,,,0.00,VWS V14.01,2013-06-11 23:58:00,
2013-06-11 19:59:00,83.1,69.7,29.94,WSW,239,4.5,6.0,64,0.00,,,0.00,VWS V14.01,2013-06-11 23:59:00,
2013-06-11 20:00:00,83.1,69.2,29.94,SSW,209,7.5,7.5,63,0.00,,,0.00,VWS V14.01,2013-06-12 00:00:00,
2013-06-11 20:01:00,83.1,69.2,29.94,SW,223,3.0,7.5,63,0.00,,,0.00,VWS V14.01,2013-06-12 00:01:00,
2013-06-11 20:02:00,83.1,69.7,29.94,West,271,6.0,7.5,64,0.00,,,0.00,VWS V14.01,2013-06-12 00:02:00,
2013-06-11 20:03:00,83.0,69.1,29.94,WSW,250,6.0,7.5,63,0.00,,,0.00,VWS V14.01,2013-06-12 00:03:00,
2013-06-11 20:04:00,83.0,69.1,29.94,SW,231,6.0,7.5,63,0.00,,,0.00,VWS V14.01,2013-06-12 00:04:00,
2013-06-11 20:05:00,83.0,69.6,29.94,SSW,196,3.0,7.5,64,0.00,,,0.00,VWS V14.01,2013-06-12 00:05:00,
2013-06-11 20:06:00,83.0,69.1,29.94,SW,219,4.5,7.5,63,0.00,,,0.00,VWS V14.01,2013-06-12 00:06:00,
2013-06-11 20:07:00,83.0,69.6,29.94,SSW,213,4.5,10.5,64,0.00,,,0.00,VWS V14.01,2013-06-12 00:07:00,
2013-06-11 20:08:00,83.0,69.1,29.94,SW,229,6.0,10.5,63,0.00,,,0.00,VWS V14.01,2013-06-12 00:08:00,
2013-06-11 20:09:00,83.0,69.1,29.94,WSW,246,3.0,6.0,63,0.00,,,0.00,VWS V14.01,2013-06-12 00:09:00,
2013-06-11 20:10:00,83.0,69.1,29.94,SW,229,9.0,9.0,63,0.00,,,0.00,VWS V14.01,2013-06-12 00:10:00,
2013-06-11 20:11:00,83.0,69.1,29.94,SSW,213,4.5,9.0,63,0.00,,,0.00,VWS V14.01,2013-06-12 00:11:00,
2013-06-11 20:12:00,82.9,69.0,29.94,WSW,237,6.0,9.0,63,0.00,,,0.00,VWS V14.01,2013-06-12 00:12:00,
2013-06-11 20:13:00,82.8,69.4,29.94,SW,226,6.0,9.0,64,0.00,,,0.00,VWS V14.01,2013-06-12 00:13:00,
2013-06-11 20:14:00,82.8,68.9,29.94,ESE,117,4.5,7.5,63,0.00,,,0.00,VWS V14.01,2013-06-12 00:14:00,
2013-06-11 20:15:00,82.7,68.8,29.93,SW,228,6.0,10.5,63,0.00,,,0.00,VWS V14.01,2013-06-12 00:15:00,
2013-06-11 20:16:00,82.7,69.3,29.93,SSW,206,3.0,10.5,64,0.00,,,0.00,VWS V14.01,2013-06-12 00:16:00,
2013-06-11 20:17:00,82.6,69.7,29.93,SSW,199,1.5,7.5,65,0.00,,,0.00,VWS V14.01,2013-06-12 00:17:00,
2013-06-11 20:18:00,82.5,69.6,29.93,WSW,247,4.5,4.5,65,0.00,,,0.00,VWS V14.01,2013-06-12 00:18:00,
2013-06-11 20:19:00,82.5,69.6,29.93,WSW,257,4.5,4.5,65,0.00,,,0.00,VWS V14.01,2013-06-12 00:19:00,
2013-06-11 20:20:00,82.4,69.5,29.93,SW,236,1.5,6.0,65,0.00,,,0.00,VWS V14.01,2013-06-12 00:20:00,
2013-06-11 20:21:00,82.3,69.8,29.93,SSW,192,4.5,6.0,66,0.00,,,0.00,VWS V14.01,2013-06-12 00:21:00,
2013-06-11 20:22:00,82.3,69.4,29.93,SW,223,3.0,10.5,65,0.00,,,0.00,VWS V14.01,2013-06-12 00:22:00,
2013-06-11 20:23:00,82.1,69.2,29.93,SSW,212,6.0,7.5,65,0.00,,,0.00,VWS V14.01,2013-06-12 00:23:00,
2013-06-11 20:24:00,82.1,69.2,29.93,SSW,206,3.0,7.5,65,0.00,,,0.00,VWS V14.01,2013-06-12 00:24:00,
2013-06-11 20:25:00,82.0,69.5,29.93,South,186,1.5,6.0,66,0.00,,,0.00,VWS V14.01,2013-06-12 00:25:00,
2013-06-11 20:26:00,81.9,69.4,29.93,WSW,241,4.5,4.5,66,0.00,,,0.00,VWS V14.01,2013-06-12 00:26:00,
2013-06-11 20:27:00,81.8,69.3,29.93,SSW,203,3.0,6.0,66,0.00,,,0.00,VWS V14.01,2013-06-12 00:27:00,
2013-06-11 20:28:00,81.7,69.2,29.93,SSW,209,1.5,6.0,66,0.00,,,0.00,VWS V14.01,2013-06-12 00:28:00,
2013-06-11 20:29:00,81.6,69.2,29.93,SSW,212,1.5,6.0,66,0.00,,,0.00,VWS V14.01,2013-06-12 00:29:00,
2013-06-11 20:30:00,81.6,69.6,29.93,SSW,194,3.0,3.0,67,0.00,,,0.00,VWS V14.01,2013-06-12 00:30:00,
2013-06-11 20:31:00,81.5,69.1,29.93,SW,216,4.5,6.0,66,0.00,,,0.00,VWS V14.01,2013-06-12 00:31:00,
2013-06-11 20:32:00,81.4,69.4,29.93,SW,215,3.0,7.5,67,0.00,,,0.00,VWS V14.01,2013-06-12 00:32:00,
2013-06-11 20:33:00,81.3,69.3,29.93,SW,215,1.5,7.5,67,0.00,,,0.00,VWS V14.01,2013-06-12 00:33:00,
2013-06-11 20:34:00,81.2,69.2,29.93,SSW,210,6.0,7.5,67,0.00,,,0.00,VWS V14.01,2013-06-12 00:34:00,
2013-06-11 20:35:00,81.1,69.1,29.93,SW,234,3.0,7.5,67,0.00,,,0.00,VWS V14.01,2013-06-12 00:35:00,
2013-06-11 20:36:00,81.1,69.1,29.93,SW,231,1.5,6.0,67,0.00,,,0.00,VWS V14.01,2013-06-12 00:36:00,
2013-06-11 20:37:00,81.0,69.4,29.93,SW,231,1.5,3.0,68,0.00,,,0.00,VWS V14.01,2013-06-12 00:37:00,
2013-06-11 20:38:00,80.9,69.4,29.93,SW,231,1.5,3.0,68,0.00,,,0.00,VWS V14.01,2013-06-12 00:38:00,
2013-06-11 20:39:00,80.9,69.4,29.93,SW,231,1.5,3.0,68,0.00,,,0.00,VWS V14.01,2013-06-12 00:39:00,
2013-06-11 20:40:00,80.8,69.3,29.93,SSW,208,3.0,6.0,68,0.00,,,0.00,VWS V14.01,2013-06-12 00:40:00,
2013-06-11 20:41:00,80.8,69.3,29.93,SW,216,3.0,6.0,68,0.00,,,0.00,VWS V14.01,2013-06-12 00:41:00,
2013-06-11 20:42:00,80.7,69.2,29.93,WSW,239,3.0,4.5,68,0.00,,,0.00,VWS V14.01,2013-06-12 00:42:00,
2013-06-11 20:43:00,80.7,69.2,29.93,SSW,206,7.5,7.5,68,0.00,,,0.00,VWS V14.01,2013-06-12 00:43:00,
2013-06-11 20:44:00,80.6,69.1,29.93,SW,219,3.0,9.0,68,0.00,,,0.00,VWS V14.01,2013-06-12 00:44:00,
2013-06-11 20:45:00,80.6,69.5,29.93,SW,236,3.0,9.0,69,0.00,,,0.00,VWS V14.01,2013-06-12 00:45:00,
2013-06-11 20:46:00,80.5,69.0,29.93,West,260,3.0,7.5,68,0.00,,,0.00,VWS V14.01,2013-06-12 00:46:00,
2013-06-11 20:47:00,80.5,69.4,29.93,WSW,238,3.0,7.5,69,0.00,,,0.00,VWS V14.01,2013-06-12 00:47:00,
2013-06-11 20:48:00,80.4,69.3,29.93,WSW,239,3.0,4.5,69,0.00,,,0.00,VWS V14.01,2013-06-12 00:48:00,
2013-06-11 20:49:00,80.3,69.2,29.93,WSW,239,3.0,4.5,69,0.00,,,0.00,VWS V14.01,2013-06-12 00:49:00,
2013-06-11 20:50:00,80.3,69.2,29.93,SW,236,6.0,6.0,69,0.00,,,0.00,VWS V14.01,2013-06-12 00:50:00,
2013-06-11 20:51:00,80.2,69.1,29.93,SW,229,3.0,6.0,69,0.00,,,0.00,VWS V14.01,2013-06-12 00:51:00,
2013-06-11 20:52:00,80.1,69.0,29.93,WSW,244,1.5,4.5,69,0.00,,,0.00,VWS V14.01,2013-06-12 00:52:00,
2013-06-11 20:53:00,80.1,69.0,29.93,WSW,244,1.5,4.5,69,0.00,,,0.00,VWS V14.01,2013-06-12 00:53:00,
2013-06-11 20:54:00,80.0,69.3,29.93,WSW,244,3.0,3.0,70,0.00,,,0.00,VWS V14.01,2013-06-12 00:54:00,
2013-06-11 20:55:00,80.0,69.3,29.93,SW,229,3.0,3.0,70,0.00,,,0.00,VWS V14.01,2013-06-12 00:55:00,
2013-06-11 20:56:00,79.9,69.2,29.93,NW,316,1.5,3.0,70,0.00,,,0.00,VWS V14.01,2013-06-12 00:56:00,
2013-06-11 20:57:00,79.8,69.2,29.94,SW,229,3.0,3.0,70,0.00,,,0.00,VWS V14.01,2013-06-12 00:57:00,
2013-06-11 20:58:00,79.8,69.2,29.93,SW,229,3.0,3.0,70,0.00,,,0.00,VWS V14.01,2013-06-12 00:58:00,
2013-06-11 20:59:00,79.8,69.2,29.94,SW,229,1.5,3.0,70,0.00,,,0.00,VWS V14.01,2013-06-12 00:59:00,
2013-06-11 21:00:00,79.7,69.1,29.94,WSW,248,1.5,4.5,70,0.00,,,0.00,VWS V14.01,2013-06-12 01:00:00,
2013-06-11 21:01:00,79.7,69.5,29.94,WSW,248,1.5,4.5,71,0.00,,,0.00,VWS V14.01,2013-06-12 01:01:00,
2013-06-11 21:02:00,79.7,69.5,29.94,West,267,1.5,3.0,71,0.00,,,0.00,VWS V14.01,2013-06-12 01:02:00,
2013-06-11 21:03:00,79.7,69.5,29.94,West,267,1.5,3.0,71,0.00,,,0.00,VWS V14.01,2013-06-12 01:03:00,
2013-06-11 21:04:00,79.7,69.5,29.94,West,267,1.5,3.0,71,0.00,,,0.00,VWS V14.01,2013-06-12 01:04:00,
2013-06-11 21:05:00,79.7,69.5,29.94,West,268,1.5,1.5,71,0.00,,,0.00,VWS V14.01,2013-06-12 01:05:00,
2013-06-11 21:06:00,79.6,69.4,29.94,SW,234,3.0,3.0,71,0.00,,,0.00,VWS V14.01,2013-06-12 01:06:00,
2013-06-11 21:07:00,79.4,69.2,29.94,SW,234,3.0,4.5,71,0.00,,,0.00,VWS V14.01,2013-06-12 01:07:00,
2013-06-11 21:08:00,79.4,69.2,29.94,SW,234,1.5,4.5,71,0.00,,,0.00,VWS V14.01,2013-06-12 01:08:00,
2013-06-11 21:09:00,79.3,69.1,29.94,SW,234,3.0,3.0,71,0.00,,,0.00,VWS V14.01,2013-06-12 01:09:00,
2013-06-11 21:10:00,79.2,69.0,29.94,SW,227,3.0,4.5,71,0.00,,,0.00,VWS V14.01,2013-06-12 01:10:00,
2013-06-11 21:11:00,79.2,69.0,29.94,SSW,198,3.0,4.5,71,0.00,,,0.00,VWS V14.01,2013-06-12 01:11:00,
2013-06-11 21:12:00,79.1,69.3,29.93,SSW,203,1.5,4.5,72,0.00,,,0.00,VWS V14.01,2013-06-12 01:12:00,
2013-06-11 21:13:00,79.1,69.3,29.93,SSW,203,1.5,4.5,72,0.00,,,0.00,VWS V14.01,2013-06-12 01:13:00,
2013-06-11 21:14:00,79.0,69.2,29.93,SSW,195,4.5,4.5,72,0.00,,,0.00,VWS V14.01,2013-06-12 01:14:00,
2013-06-11 21:15:00,78.9,69.1,29.93,WSW,240,6.0,6.0,72,0.00,,,0.00,VWS V14.01,2013-06-12 01:15:00,
2013-06-11 21:16:00,78.9,69.1,29.93,SSE,153,3.0,6.0,72,0.00,,,0.00,VWS V14.01,2013-06-12 01:16:00,
2013-06-11 21:17:00,78.7,68.9,29.93,SSW,212,1.5,4.5,72,0.00,,,0.00,VWS V14.01,2013-06-12 01:17:00,
2013-06-11 21:18:00,78.7,68.9,29.93,SSW,212,1.5,4.5,72,0.00,,,0.00,VWS V14.01,2013-06-12 01:18:00,
2013-06-11 21:19:00,78.7,68.9,29.93,SSW,212,1.5,3.0,72,0.00,,,0.00,VWS V14.01,2013-06-12 01:19:00,
2013-06-11 21:20:00,78.6,69.2,29.93,SSW,212,1.5,3.0,73,0.00,,,0.00,VWS V14.01,2013-06-12 01:20:00,
2013-06-11 21:21:00,78.5,69.1,29.93,SSW,212,1.5,1.5,73,0.00,,,0.00,VWS V14.01,2013-06-12 01:21:00,
2013-06-11 21:22:00,78.4,69.0,29.93,SSW,212,1.5,3.0,73,0.00,,,0.00,VWS V14.01,2013-06-12 01:22:00,
2013-06-11 21:23:00,78.4,69.0,29.93,SSW,212,1.5,3.0,73,0.00,,,0.00,VWS V14.01,2013-06-12 01:23:00,
2013-06-11 21:24:00,78.3,68.9,29.93,SSE,147,1.5,4.5,73,0.00,,,0.00,VWS V14.01,2013-06-12 01:24:00,
2013-06-11 21:25:00,78.3,68.9,29.93,SE,130,3.0,4.5,73,0.00,,,0.00,VWS V14.01,2013-06-12 01:25:00,
2013-06-11 21:26:00,78.2,69.2,29.93,SE,130,1.5,4.5,74,0.00,,,0.00,VWS V14.01,2013-06-12 01:26:00,
2013-06-11 21:27:00,78.1,69.1,29.93,SSW,196,1.5,3.0,74,0.00,,,0.00,VWS V14.01,2013-06-12 01:27:00,
2013-06-11 21:28:00,78.1,69.1,29.93,SSW,197,1.5,3.0,74,0.00,,,0.00,VWS V14.01,2013-06-12 01:28:00,
2013-06-11 21:29:00,78.0,69.1,29.92,South,185,3.0,4.5,74,0.00,,,0.00,VWS V14.01,2013-06-12 01:29:00,
2013-06-11 21:30:00,78.0,69.1,29.92,SSW,206,3.0,4.5,74,0.00,,,0.00,VWS V14.01,2013-06-12 01:30:00,
2013-06-11 21:31:00,77.9,68.9,29.92,SSW,206,3.0,4.5,74,0.00,,,0.00,VWS V14.01,2013-06-12 01:31:00,
2013-06-11 21:32:00,77.8,69.2,29.92,SSE,163,1.5,3.0,75,0.00,,,0.00,VWS V14.01,2013-06-12 01:32:00,
2013-06-11 21:33:00,77.8,69.2,29.92,SSE,163,1.5,3.0,75,0.00,,,0.00,VWS V14.01,2013-06-12 01:33:00,
2013-06-11 21:34:00,77.8,69.2,29.92,SSE,163,1.5,1.5,75,0.00,,,0.00,VWS V14.01,2013-06-12 01:34:00,
2013-06-11 21:35:00,77.7,69.2,29.92,SSW,206,1.5,3.0,75,0.00,,,0.00,VWS V14.01,2013-06-12 01:35:00,
2013-06-11 21:36:00,77.7,69.2,29.92,SSW,206,1.5,3.0,75,0.00,,,0.00,VWS V14.01,2013-06-12 01:36:00,
2013-06-11 21:37:00,77.6,69.1,29.93,SSW,206,1.5,1.5,75,0.00,,,0.00,VWS V14.01,2013-06-12 01:37:00,
2013-06-11 21:38:00,77.6,69.1,29.93,SSW,206,1.5,1.5,75,0.00,,,0.00,VWS V14.01,2013-06-12 01:38:00,
2013-06-11 21:39:00,77.5,69.0,29.93,SSW,206,1.5,1.5,75,0.00,,,0.00,VWS V14.01,2013-06-12 01:39:00,
2013-06-11 21:40:00,77.5,69.0,29.93,SSW,206,1.5,1.5,75,0.00,,,0.00,VWS V14.01,2013-06-12 01:40:00,
2013-06-11 21:41:00,77.5,69.0,29.93,SSW,206,1.5,1.5,75,0.00,,,0.00,VWS V14.01,2013-06-12 01:41:00,
2013-06-11 21:42:00,77.4,68.9,29.93,SSW,206,1.5,1.5,75,0.00,,,0.00,VWS V14.01,2013-06-12 01:42:00,
2013-06-11 21:43:00,77.4,68.9,29.93,SSW,206,1.5,1.5,75,0.00,,,0.00,VWS V14.01,2013-06-12 01:43:00,
2013-06-11 21:44:00,77.4,68.9,29.93,South,184,1.5,1.5,75,0.00,,,0.00,VWS V14.01,2013-06-12 01:44:00,
2013-06-11 21:45:00,77.3,69.2,29.93,South,184,1.5,1.5,76,0.00,,,0.00,VWS V14.01,2013-06-12 01:45:00,
2013-06-11 21:46:00,77.3,69.2,29.94,South,184,1.5,1.5,76,0.00,,,0.00,VWS V14.01,2013-06-12 01:46:00,
2013-06-11 21:47:00,77.3,69.2,29.94,South,184,1.5,1.5,76,0.00,,,0.00,VWS V14.01,2013-06-12 01:47:00,
2013-06-11 21:48:00,77.3,69.2,29.94,South,184,1.5,1.5,76,0.00,,,0.00,VWS V14.01,2013-06-12 01:48:00,
2013-06-11 21:49:00,77.3,69.2,29.94,South,184,1.5,1.5,76,0.00,,,0.00,VWS V14.01,2013-06-12 01:49:00,
2013-06-11 21:50:00,77.3,69.2,29.94,South,184,1.5,3.0,76,0.00,,,0.00,VWS V14.01,2013-06-12 01:50:00,
2013-06-11 21:51:00,77.3,69.2,29.94,South,184,1.5,3.0,76,0.00,,,0.00,VWS V14.01,2013-06-12 01:51:00,
2013-06-11 21:52:00,77.2,69.1,29.94,SSE,165,1.5,3.0,76,0.00,,,0.00,VWS V14.01,2013-06-12 01:52:00,
2013-06-11 21:53:00,77.2,69.1,29.94,SSE,165,1.5,3.0,76,0.00,,,0.00,VWS V14.01,2013-06-12 01:53:00,
2013-06-11 21:54:00,77.2,69.1,29.94,SSE,165,1.5,1.5,76,0.00,,,0.00,VWS V14.01,2013-06-12 01:54:00,
2013-06-11 21:55:00,77.2,69.1,29.94,SSE,165,1.5,1.5,76,0.00,,,0.00,VWS V14.01,2013-06-12 01:55:00,
2013-06-11 21:56:00,77.2,69.1,29.94,SSE,165,1.5,1.5,76,0.00,,,0.00,VWS V14.01,2013-06-12 01:56:00,
2013-06-11 21:57:00,77.2,69.1,29.95,SSE,165,1.5,1.5,76,0.00,,,0.00,VWS V14.01,2013-06-12 01:57:00,
2013-06-11 21:58:00,77.1,69.0,29.95,SSE,165,1.5,1.5,76,0.00,,,0.00,VWS V14.01,2013-06-12 01:58:00,
2013-06-11 21:59:00,77.1,69.0,29.96,SSE,165,1.5,1.5,76,0.00,,,0.00,VWS V14.01,2013-06-12 01:59:00,
2013-06-11 22:00:00,77.1,69.0,29.96,SSE,165,1.5,1.5,76,0.00,,,0.00,VWS V14.01,2013-06-12 02:00:00,
2013-06-11 22:01:00,77.1,69.3,29.96,SSE,167,1.5,1.5,77,0.00,,,0.00,VWS V14.01,2013-06-12 02:01:00,
2013-06-11 22:02:00,77.0,69.2,29.97,South,172,1.5,3.0,77,0.00,,,0.00,VWS V14.01,2013-06-12 02:02:00,
2013-06-11 22:03:00,77.0,69.2,29.97,South,171,1.5,3.0,77,0.00,,,0.00,VWS V14.01,2013-06-12 02:03:00,
2013-06-11 22:04:00,77.0,69.2,29.97,South,172,1.5,1.5,77,0.00,,,0.00,VWS V14.01,2013-06-12 02:04:00,
2013-06-11 22:05:00,77.0,69.2,29.97,South,171,1.5,1.5,77,0.00,,,0.00,VWS V14.01,2013-06-12 02:05:00,
2013-06-11 22:06:00,77.0,69.2,29.97,South,172,1.5,1.5,77,0.00,,,0.00,VWS V14.01,2013-06-12 02:06:00,
2013-06-11 22:07:00,77.0,69.2,29.97,South,172,1.5,1.5,77,0.00,,,0.00,VWS V14.01,2013-06-12 02:07:00,
2013-06-11 22:08:00,77.0,69.2,29.97,South,170,1.5,1.5,77,0.00,,,0.00,VWS V14.01,2013-06-12 02:08:00,
2013-06-11 22:09:00,77.0,69.2,29.97,South,172,1.5,1.5,77,0.00,,,0.00,VWS V14.01,2013-06-12 02:09:00,
2013-06-11 22:10:00,77.1,69.3,29.97,South,171,1.5,1.5,77,0.00,,,0.00,VWS V14.01,2013-06-12 02:10:00,
2013-06-11 22:11:00,77.1,69.3,29.97,South,171,1.5,1.5,77,0.00,,,0.00,VWS V14.01,2013-06-12 02:11:00,
2013-06-11 22:12:00,77.1,69.3,29.97,South,172,1.5,1.5,77,0.00,,,0.00,VWS V14.01,2013-06-12 02:12:00,
2013-06-11 22:13:00,77.1,69.3,29.97,South,171,1.5,1.5,77,0.00,,,0.00,VWS V14.01,2013-06-12 02:13:00,
2013-06-11 22:14:00,77.1,69.3,29.97,South,172,1.5,1.5,77,0.00,,,0.00,VWS V14.01,2013-06-12 02:14:00,
2013-06-11 22:15:00,77.1,69.3,29.97,South,172,1.5,1.5,77,0.00,,,0.00,VWS V14.01,2013-06-12 02:15:00,
2013-06-11 22:16:00,77.0,69.2,29.97,South,171,1.5,1.5,77,0.00,,,0.00,VWS V14.01,2013-06-12 02:16:00,
2013-06-11 22:17:00,77.0,69.2,29.97,South,171,1.5,1.5,77,0.00,,,0.00,VWS V14.01,2013-06-12 02:17:00,
2013-06-11 22:18:00,77.0,69.2,29.97,South,171,1.5,1.5,77,0.00,,,0.00,VWS V14.01,2013-06-12 02:18:00,
2013-06-11 22:19:00,76.9,69.2,29.97,South,171,1.5,1.5,77,0.00,,,0.00,VWS V14.01,2013-06-12 02:19:00,
2013-06-11 22:20:00,76.9,69.2,29.97,South,172,1.5,1.5,77,0.00,,,0.00,VWS V14.01,2013-06-12 02:20:00,
2013-06-11 22:21:00,76.8,69.4,29.97,South,172,1.5,1.5,78,0.00,,,0.00,VWS V14.01,2013-06-12 02:21:00,
2013-06-11 22:22:00,76.7,69.3,29.97,South,171,1.5,1.5,78,0.00,,,0.00,VWS V14.01,2013-06-12 02:22:00,
2013-06-11 22:23:00,76.8,69.4,29.97,South,171,1.5,1.5,78,0.00,,,0.00,VWS V14.01,2013-06-12 02:23:00,
2013-06-11 22:24:00,76.7,69.3,29.97,South,171,1.5,1.5,78,0.00,,,0.00,VWS V14.01,2013-06-12 02:24:00,
2013-06-11 22:25:00,76.7,69.3,29.97,South,172,1.5,1.5,78,0.00,,,0.00,VWS V14.01,2013-06-12 02:25:00,
2013-06-11 22:26:00,76.6,69.2,29.97,South,171,1.5,1.5,78,0.00,,,0.00,VWS V14.01,2013-06-12 02:26:00,
2013-06-11 22:27:00,76.6,69.2,29.97,South,171,1.5,1.5,78,0.00,,,0.00,VWS V14.01,2013-06-12 02:27:00,
2013-06-11 22:28:00,76.6,69.2,29.97,South,171,1.5,1.5,78,0.00,,,0.00,VWS V14.01,2013-06-12 02:28:00,
2013-06-11 22:29:00,76.5,69.1,29.97,South,171,1.5,1.5,78,0.00,,,0.00,VWS V14.01,2013-06-12 02:29:00,
2013-06-11 22:30:00,76.5,69.1,29.97,South,172,1.5,1.5,78,0.00,,,0.00,VWS V14.01,2013-06-12 02:30:00,
2013-06-11 22:31:00,76.4,69.0,29.97,South,172,1.5,1.5,78,0.00,,,0.00,VWS V14.01,2013-06-12 02:31:00,
2013-06-11 22:32:00,76.3,68.9,29.97,South,172,1.5,1.5,78,0.00,,,0.00,VWS V14.01,2013-06-12 02:32:00,
2013-06-11 22:33:00,76.3,68.9,29.97,South,172,1.5,1.5,78,0.00,,,0.00,VWS V14.01,2013-06-12 02:33:00,
2013-06-11 22:34:00,76.3,68.9,29.97,South,172,1.5,1.5,78,0.00,,,0.00,VWS V14.01,2013-06-12 02:34:00,
2013-06-11 22:35:00,76.2,69.2,29.97,South,172,1.5,1.5,79,0.00,,,0.00,VWS V14.01,2013-06-12 02:35:00,
2013-06-11 22:36:00,76.2,69.2,29.97,South,171,1.5,1.5,79,0.00,,,0.00,VWS V14.01,2013-06-12 02:36:00,
2013-06-11 22:37:00,76.1,69.1,29.97,South,171,1.5,1.5,79,0.00,,,0.00,VWS V14.01,2013-06-12 02:37:00,
2013-06-11 22:38:00,76.1,69.1,29.97,South,172,1.5,1.5,79,0.00,,,0.00,VWS V14.01,2013-06-12 02:38:00,
2013-06-11 22:39:00,76.0,69.0,29.96,South,172,1.5,1.5,79,0.00,,,0.00,VWS V14.01,2013-06-12 02:39:00,
2013-06-11 22:40:00,75.9,68.9,29.96,South,171,1.5,1.5,79,0.00,,,0.00,VWS V14.01,2013-06-12 02:40:00,
2013-06-11 22:41:00,75.9,68.9,29.96,South,171,1.5,1.5,79,0.00,,,0.00,VWS V14.01,2013-06-12 02:41:00,
2013-06-11 22:42:00,75.9,68.9,29.96,SSE,167,1.5,3.0,79,0.00,,,0.00,VWS V14.01,2013-06-12 02:42:00,
2013-06-11 22:43:00,75.8,68.8,29.96,SSE,167,1.5,3.0,79,0.00,,,0.00,VWS V14.01,2013-06-12 02:43:00,
2013-06-11 22:44:00,75.8,68.8,29.96,South,175,3.0,3.0,79,0.00,,,0.00,VWS V14.01,2013-06-12 02:44:00,
2013-06-11 22:45:00,75.8,68.8,29.96,South,175,1.5,3.0,79,0.00,,,0.00,VWS V14.01,2013-06-12 02:45:00,
2013-06-11 22:46:00,75.8,68.8,29.96,South,175,3.0,3.0,79,0.00,,,0.00,VWS V14.01,2013-06-12 02:46:00,
2013-06-11 22:47:00,75.9,68.9,29.96,South,175,1.5,3.0,79,0.00,,,0.00,VWS V14.01,2013-06-12 02:47:00,
2013-06-11 22:48:00,75.9,68.9,29.96,South,175,1.5,1.5,79,0.00,,,0.00,VWS V14.01,2013-06-12 02:48:00,
2013-06-11 22:49:00,75.9,68.9,29.96,South,175,1.5,1.5,79,0.00,,,0.00,VWS V14.01,2013-06-12 02:49:00,
2013-06-11 22:50:00,75.9,68.9,29.96,South,175,1.5,1.5,79,0.00,,,0.00,VWS V14.01,2013-06-12 02:50:00,
2013-06-11 22:51:00,75.9,68.9,29.96,South,175,1.5,1.5,79,0.00,,,0.00,VWS V14.01,2013-06-12 02:51:00,
2013-06-11 22:52:00,75.8,68.8,29.95,South,175,1.5,1.5,79,0.00,,,0.00,VWS V14.01,2013-06-12 02:52:00,
2013-06-11 22:53:00,75.8,69.2,29.95,SSW,203,3.0,3.0,80,0.00,,,0.00,VWS V14.01,2013-06-12 02:53:00,
2013-06-11 22:54:00,75.8,69.2,29.95,SSW,203,1.5,3.0,80,0.00,,,0.00,VWS V14.01,2013-06-12 02:54:00,
2013-06-11 22:55:00,75.9,69.3,29.95,SSW,203,1.5,3.0,80,0.00,,,0.00,VWS V14.01,2013-06-12 02:55:00,
2013-06-11 22:56:00,75.9,69.7,29.95,SSW,205,1.5,3.0,81,0.00,,,0.00,VWS V14.01,2013-06-12 02:56:00,
2013-06-11 22:57:00,75.9,69.3,29.96,SSW,206,1.5,1.5,80,0.00,,,0.00,VWS V14.01,2013-06-12 02:57:00,
2013-06-11 22:58:00,75.9,69.3,29.96,SSW,205,1.5,1.5,80,0.00,,,0.00,VWS V14.01,2013-06-12 02:58:00,
2013-06-11 22:59:00,75.9,69.3,29.96,SSW,206,1.5,1.5,80,0.00,,,0.00,VWS V14.01,2013-06-12 02:59:00,
2013-06-11 23:00:00,75.9,69.3,29.96,SSW,206,1.5,1.5,80,0.00,,,0.00,VWS V14.01,2013-06-12 03:00:00,
2013-06-11 23:01:00,75.8,69.2,29.96,SSW,206,1.5,1.5,80,0.00,,,0.00,VWS V14.01,2013-06-12 03:01:00,
2013-06-11 23:02:00,75.8,69.2,29.96,SSW,206,1.5,1.5,80,0.00,,,0.00,VWS V14.01,2013-06-12 03:02:00,
2013-06-11 23:03:00,75.8,69.2,29.95,SSW,205,1.5,1.5,80,0.00,,,0.00,VWS V14.01,2013-06-12 03:03:00,
2013-06-11 23:04:00,75.7,69.1,29.95,SSW,208,3.0,3.0,80,0.00,,,0.00,VWS V14.01,2013-06-12 03:04:00,
2013-06-11 23:05:00,75.6,69.0,29.95,SSW,209,3.0,4.5,80,0.00,,,0.00,VWS V14.01,2013-06-12 03:05:00,
2013-06-11 23:06:00,75.6,69.0,29.95,SSW,209,4.5,4.5,80,0.00,,,0.00,VWS V14.01,2013-06-12 03:06:00,
2013-06-11 23:07:00,75.6,69.0,29.95,SSW,209,3.0,4.5,80,0.00,,,0.00,VWS V14.01,2013-06-12 03:07:00,
2013-06-11 23:08:00,75.6,69.0,29.95,SSW,209,3.0,4.5,80,0.00,,,0.00,VWS V14.01,2013-06-12 03:08:00,
2013-06-11 23:09:00,75.6,69.0,29.95,SSW,209,1.5,3.0,80,0.00,,,0.00,VWS V14.01,2013-06-12 03:09:00,
2013-06-11 23:10:00,75.6,69.0,29.95,SSW,209,1.5,3.0,80,0.00,,,0.00,VWS V14.01,2013-06-12 03:10:00,
2013-06-11 23:11:00,75.6,69.0,29.95,SSW,209,1.5,3.0,80,0.00,,,0.00,VWS V14.01,2013-06-12 03:11:00,
2013-06-11 23:12:00,75.5,68.9,29.95,SSW,209,1.5,3.0,80,0.00,,,0.00,VWS V14.01,2013-06-12 03:12:00,
2013-06-11 23:13:00,75.5,68.9,29.95,SSW,209,1.5,3.0,80,0.00,,,0.00,VWS V14.01,2013-06-12 03:13:00,
2013-06-11 23:14:00,75.5,68.9,29.95,SSW,208,1.5,3.0,80,0.00,,,0.00,VWS V14.01,2013-06-12 03:14:00,
2013-06-11 23:15:00,75.5,68.9,29.95,SSW,209,1.5,3.0,80,0.00,,,0.00,VWS V14.01,2013-06-12 03:15:00,
2013-06-11 23:16:00,75.5,68.9,29.95,SSW,208,1.5,1.5,80,0.00,,,0.00,VWS V14.01,2013-06-12 03:16:00,
2013-06-11 23:17:00,75.5,69.3,29.95,SSW,208,1.5,1.5,81,0.00,,,0.00,VWS V14.01,2013-06-12 03:17:00,
2013-06-11 23:18:00,75.5,69.3,29.95,SSW,209,3.0,3.0,81,0.00,,,0.00,VWS V14.01,2013-06-12 03:18:00,
2013-06-11 23:19:00,75.5,69.3,29.95,SSW,208,1.5,3.0,81,0.00,,,0.00,VWS V14.01,2013-06-12 03:19:00,
2013-06-11 23:20:00,75.4,69.2,29.95,SSW,209,1.5,1.5,81,0.00,,,0.00,VWS V14.01,2013-06-12 03:20:00,
2013-06-11 23:21:00,75.4,69.2,29.95,SSW,209,1.5,1.5,81,0.00,,,0.00,VWS V14.01,2013-06-12 03:21:00,
2013-06-11 23:22:00,75.4,69.2,29.95,SSW,209,1.5,1.5,81,0.00,,,0.00,VWS V14.01,2013-06-12 03:22:00,
2013-06-11 23:23:00,75.4,69.2,29.95,SSW,209,1.5,1.5,81,0.00,,,0.00,VWS V14.01,2013-06-12 03:23:00,
2013-06-11 23:24:00,75.3,69.1,29.95,SSW,208,1.5,3.0,81,0.00,,,0.00,VWS V14.01,2013-06-12 03:24:00,
2013-06-11 23:25:00,75.3,69.1,29.95,SSW,209,1.5,3.0,81,0.00,,,0.00,VWS V14.01,2013-06-12 03:25:00,
2013-06-11 23:26:00,75.3,69.1,29.95,SSW,208,1.5,1.5,81,0.00,,,0.00,VWS V14.01,2013-06-12 03:26:00,
2013-06-11 23:27:00,75.2,69.0,29.95,SSW,209,1.5,1.5,81,0.00,,,0.00,VWS V14.01,2013-06-12 03:27:00,
2013-06-11 23:28:00,75.2,69.0,29.95,SSW,209,1.5,1.5,81,0.00,,,0.00,VWS V14.01,2013-06-12 03:28:00,
2013-06-11 23:29:00,75.1,68.9,29.95,SSW,208,1.5,1.5,81,0.00,,,0.00,VWS V14.01,2013-06-12 03:29:00,
2013-06-11 23:30:00,75.1,68.9,29.95,SSW,208,1.5,1.5,81,0.00,,,0.00,VWS V14.01,2013-06-12 03:30:00,
2013-06-11 23:31:00,75.0,68.8,29.95,SSW,209,1.5,1.5,81,0.00,,,0.00,VWS V14.01,2013-06-12 03:31:00,
2013-06-11 23:32:00,74.9,69.0,29.95,SSW,209,1.5,1.5,82,0.00,,,0.00,VWS V14.01,2013-06-12 03:32:00,
2013-06-11 23:33:00,74.8,68.9,29.95,SSW,209,1.5,1.5,82,0.00,,,0.00,VWS V14.01,2013-06-12 03:33:00,
2013-06-11 23:34:00,74.8,68.9,29.95,SSW,209,1.5,1.5,82,0.00,,,0.00,VWS V14.01,2013-06-12 03:34:00,
2013-06-11 23:35:00,74.7,68.8,29.95,SSW,209,1.5,1.5,82,0.00,,,0.00,VWS V14.01,2013-06-12 03:35:00,
2013-06-11 23:36:00,74.6,68.8,29.95,SSW,209,1.5,1.5,82,0.00,,,0.00,VWS V14.01,2013-06-12 03:36:00,
2013-06-11 23:37:00,74.5,68.7,29.95,SSW,209,1.5,1.5,82,0.00,,,0.00,VWS V14.01,2013-06-12 03:37:00,
2013-06-11 23:38:00,74.5,68.7,29.95,SSW,209,1.5,1.5,82,0.00,,,0.00,VWS V14.01,2013-06-12 03:38:00,
2013-06-11 23:39:00,74.4,68.6,29.95,SSW,209,1.5,1.5,82,0.00,,,0.00,VWS V14.01,2013-06-12 03:39:00,
2013-06-11 23:40:00,74.4,68.9,29.95,SSW,209,1.5,1.5,83,0.00,,,0.00,VWS V14.01,2013-06-12 03:40:00,
2013-06-11 23:41:00,74.3,68.8,29.95,SSW,209,1.5,1.5,83,0.00,,,0.00,VWS V14.01,2013-06-12 03:41:00,
2013-06-11 23:42:00,74.1,68.6,29.95,SSW,209,1.5,1.5,83,0.00,,,0.00,VWS V14.01,2013-06-12 03:42:00,
2013-06-11 23:43:00,74.1,68.6,29.95,SSW,209,1.5,1.5,83,0.00,,,0.00,VWS V14.01,2013-06-12 03:43:00,
2013-06-11 23:44:00,74.1,68.6,29.95,SSW,209,1.5,1.5,83,0.00,,,0.00,VWS V14.01,2013-06-12 03:44:00,
2013-06-11 23:45:00,74.0,68.5,29.95,SSW,209,1.5,1.5,83,0.00,,,0.00,VWS V14.01,2013-06-12 03:45:00,
2013-06-11 23:46:00,73.9,68.4,29.95,SSW,209,1.5,1.5,83,0.00,,,0.00,VWS V14.01,2013-06-12 03:46:00,
2013-06-11 23:47:00,73.9,68.8,29.95,SSW,209,1.5,1.5,84,0.00,,,0.00,VWS V14.01,2013-06-12 03:47:00,
2013-06-11 23:48:00,73.9,68.8,29.95,SSW,209,1.5,1.5,84,0.00,,,0.00,VWS V14.01,2013-06-12 03:48:00,
2013-06-11 23:49:00,73.8,68.7,29.94,SSW,208,3.0,3.0,84,0.00,,,0.00,VWS V14.01,2013-06-12 03:49:00,
2013-06-11 23:50:00,73.8,68.7,29.94,SSW,208,1.5,3.0,84,0.00,,,0.00,VWS V14.01,2013-06-12 03:50:00,
2013-06-11 23:51:00,73.7,68.6,29.94,SSW,208,1.5,3.0,84,0.00,,,0.00,VWS V14.01,2013-06-12 03:51:00,
2013-06-11 23:52:00,73.8,68.7,29.94,SSW,210,3.0,3.0,84,0.00,,,0.00,VWS V14.01,2013-06-12 03:52:00,
2013-06-11 23:53:00,73.8,68.7,29.94,SSW,210,1.5,3.0,84,0.00,,,0.00,VWS V14.01,2013-06-12 03:53:00,
2013-06-11 23:54:00,73.8,68.7,29.94,SSW,210,1.5,3.0,84,0.00,,,0.00,VWS V14.01,2013-06-12 03:54:00,
2013-06-11 23:55:00,73.8,68.7,29.94,SSW,210,1.5,1.5,84,0.00,,,0.00,VWS V14.01,2013-06-12 03:55:00,
2013-06-11 23:56:00,73.9,68.8,29.93,SSW,210,1.5,1.5,84,0.00,,,0.00,VWS V14.01,2013-06-12 03:56:00,
2013-06-11 23:57:00,73.9,68.8,29.94,SSW,210,1.5,1.5,84,0.00,,,0.00,VWS V14.01,2013-06-12 03:57:00,
2013-06-11 23:58:00,73.9,68.8,29.93,SSW,210,1.5,1.5,84,0.00,,,0.00,VWS V14.01,2013-06-12 03:58:00,
2013-06-11 23:59:00,73.9,68.8,29.93,SSW,212,4.5,4.5,84,0.00,,,0.00,VWS V14.01,2013-06-12 03:59:00,